Date StartTime U_cm/s V_cm/s W_cm/s Ustd_cm/s Vstd_cm/s Wstd_cm/s Uvar_(cm/s)^2 Vvar_(cm/s)^2 Wvar_(cm/s)^2 KE_(m/s)^2 TurbulentKE_(m/s)^2 HorizWindSpeed_cm/s FrictionSpeec_cm/s DragCoef SpeedOfSound_m/s SonicTemperature_C Pressure_mb 
01/31/2015  00:00:00      -76.860      -32.728      -14.256       28.340       12.983       14.409      803.151      168.548      207.616        0.418        0.059       83.538       15.216        0.033      333.367        2.635      863.036
01/31/2015  00:01:00       -0.215      -25.801        3.728       16.665        9.292       11.025      277.720       86.340      121.560        0.058        0.024       25.802       11.202        0.188      333.429        2.737      863.061
01/31/2015  00:02:00      -15.733      -18.904       -8.723       15.002       10.297        8.964      225.072      106.032       80.359        0.055        0.021       24.594        7.891        0.103      333.531        2.908      863.076
01/31/2015  00:03:00      -39.620      -20.331       -6.435       16.321       16.053       10.214      266.370      257.699      104.331        0.133        0.031       44.532        5.719        0.016      333.456        2.782      863.088
01/31/2015  00:04:00       30.613       12.903        2.315       23.096       19.845       15.664      533.417      393.813      245.373        0.114        0.059       33.221        7.824        0.055      333.448        2.768      863.107
01/31/2015  00:05:00       56.384       30.256        7.019       13.738       14.479       13.699      188.722      209.640      187.658        0.236        0.029       63.989        5.261        0.007      333.415        2.713      863.114
01/31/2015  00:06:00       31.947       16.795       -4.698       15.168        7.018        8.271      230.079       49.249       68.413        0.084        0.017       36.093        5.050        0.020      333.370        2.639      863.117
01/31/2015  00:07:00       33.180       13.399        6.812       10.609       18.764       14.162      112.551      352.088      200.549        0.100        0.033       35.784       12.372        0.120      333.514        2.878      863.120
01/31/2015  00:08:00       22.334      -44.022       17.326       22.571       52.038       24.333      509.459     2707.920      592.107        0.327        0.190       49.363       22.208        0.202      333.732        3.241      863.120
01/31/2015  00:09:00       22.094      -63.112       -6.024       26.769       28.239       20.183      716.567      797.417      407.342        0.321        0.096       66.867       17.080        0.065      333.875        3.478      863.126
01/31/2015  00:10:00      -61.224       -3.117       -1.922       39.366       42.941       20.160     1549.671     1843.892      406.445        0.378        0.190       61.303       21.765        0.126      333.417        2.718      863.152
01/31/2015  00:11:00      -78.710       19.286       -3.762       13.705       16.421       12.525      187.818      269.635      156.887        0.360        0.031       81.038        6.259        0.006      333.519        2.886      863.168
01/31/2015  00:12:00      -70.601       -8.016      -12.636       11.349       15.157        9.561      128.796      229.726       91.404        0.283        0.022       71.054        5.505        0.006      333.567        2.966      863.178
01/31/2015  00:13:00      -59.167      -15.867       -7.868       15.394       12.862       10.223      236.985      165.429      104.517        0.216        0.025       61.258        6.592        0.012      333.541        2.922      863.172
01/31/2015  00:14:00      -70.759      -41.151       -8.347        9.309       11.156        8.513       86.665      124.455       72.477        0.353        0.014       81.855        5.759        0.005      333.598        3.016      863.171
01/31/2015  00:15:00      -54.791      -20.381       -3.395       11.913        9.851        9.368      141.924       97.043       87.763        0.188        0.016       58.459        7.584        0.017      333.576        2.980      863.165
01/31/2015  00:16:00      -35.949      -16.407       -3.924       10.304       10.910        7.087      106.171      119.033       50.230        0.093        0.014       39.516        6.320        0.026      333.510        2.870      863.159
01/31/2015  00:17:00      -40.360      -10.314       -8.988        8.952        8.597        5.041       80.137       73.900       25.415        0.100        0.009       41.657        4.366        0.011      333.472        2.808      863.161
01/31/2015  00:18:00      -22.775      -17.459       -9.960       19.065       13.906       13.405      363.471      193.372      179.686        0.083        0.037       28.697       10.926        0.145      333.491        2.841      863.166
01/31/2015  00:19:00      -57.816      -15.533       -6.355       13.075        7.379        6.545      170.945       54.456       42.839        0.195        0.013       59.866        2.837        0.002      333.599        3.019      863.187
01/31/2015  00:20:00      -80.275       -8.814      -15.081       16.780       12.437       12.505      281.558      154.687      156.364        0.367        0.030       80.757        8.426        0.011      333.381        2.658      863.199
01/31/2015  00:21:00      -44.199        6.441       -7.602       17.577       27.463       12.027      308.951      754.241      144.644        0.163        0.060       44.666       10.022        0.050      333.495        2.846      863.204
01/31/2015  00:22:00      -38.849       -3.133       -5.844       23.027       10.641       12.299      530.229      113.227      151.273        0.117        0.040       38.975       10.509        0.073      333.461        2.790      863.205
01/31/2015  00:23:00      -60.243      -12.768       -8.858       10.870       13.565        8.544      118.156      184.002       72.997        0.212        0.019       61.581        6.937        0.013      333.436        2.749      863.213
01/31/2015  00:24:00      -35.606       -8.649       -7.833       13.324       13.552        8.332      177.542      183.666       69.419        0.092        0.022       36.641        4.035        0.012      333.422        2.726      863.232
01/31/2015  00:25:00      -37.182       -7.146      -11.808        8.857        5.404        4.790       78.443       29.199       22.941        0.085        0.007       37.862        3.303        0.008      333.553        2.944      863.251
01/31/2015  00:26:00      -36.146      -28.848      -11.150        7.850       13.614        8.460       61.627      185.330       71.564        0.129        0.016       46.246        4.679        0.010      333.691        3.170      863.260
01/31/2015  00:27:00      -20.262       -7.811        0.173       20.344       17.960        8.881      413.879      322.559       78.879        0.064        0.041       21.715       12.787        0.347      333.445        2.763      863.267
01/31/2015  00:28:00        2.542       14.456       -2.676        8.976       12.647        7.418       80.569      159.936       55.027        0.026        0.015       14.678        2.609        0.032      333.590        3.005      863.277
01/31/2015  00:29:00        2.846       -4.513       -1.238        8.724        7.433        8.817       76.107       55.248       77.741        0.012        0.010        5.335        5.187        0.945      333.818        3.383      863.272
01/31/2015  00:30:00       20.470      -10.287        2.735       13.325       15.441       12.118      177.560      238.435      146.851        0.055        0.028       22.909        8.998        0.154      333.934        3.576      863.251
01/31/2015  00:31:00      -14.304      -32.622       -2.820       37.468       32.954       12.321     1403.846     1085.979      151.802        0.196        0.132       35.620       14.890        0.175      333.834        3.409      863.249
01/31/2015  00:32:00      -77.459       15.151       -7.159       24.507       16.656       16.353      600.587      277.427      267.427        0.371        0.057       78.927       15.189        0.037      333.278        2.489      863.258
01/31/2015  00:33:00      -60.664       -7.546       -7.858       18.030       30.205       11.957      325.066      912.362      142.960        0.259        0.069       61.131        8.299        0.018      333.353        2.611      863.258
01/31/2015  00:34:00      -11.012        6.244      -10.956       26.432       18.094       10.172      698.632      327.388      103.461        0.070        0.056       12.659        8.031        0.402      333.725        3.229      863.255
01/31/2015  00:35:00       32.565       49.803       -1.601       14.829       23.351       14.443      219.911      545.281      208.609        0.226        0.049       59.504       14.082        0.056      333.984        3.659      863.255
01/31/2015  00:36:00       33.624       53.086       -7.667       17.484       16.116       13.652      305.687      259.739      186.382        0.238        0.038       62.839        9.905        0.025      333.998        3.682      863.255
01/31/2015  00:37:00       26.786       76.208       -9.556       22.053       43.673       18.047      486.348     1907.351      325.699        0.467        0.136       80.779       22.334        0.076      333.907        3.531      863.255
01/31/2015  00:38:00       16.312      135.372      -20.078       25.355       43.816       23.826      642.861     1919.859      567.693        1.106        0.157      136.351       27.290        0.040      333.699        3.183      863.256
01/31/2015  00:39:00      -10.135      161.970      -24.719       16.307       20.717       11.817      265.934      429.186      139.637        1.389        0.042      162.287        7.474        0.002      333.584        2.994      863.245
01/31/2015  00:40:00      -22.817      164.091      -22.838       17.318       28.171       10.757      299.909      793.620      115.707        1.459        0.060      165.669       11.669        0.005      333.616        3.047      863.235
01/31/2015  00:41:00        1.042      137.907      -28.003       13.366       23.500       11.252      178.657      552.254      126.616        1.033        0.043      137.910        3.989        0.001      333.630        3.071      863.227
01/31/2015  00:42:00       34.518      104.154      -20.662       18.272       18.746       12.120      333.876      351.420      146.906        0.665        0.042      109.725        8.177        0.006      333.514        2.876      863.213
01/31/2015  00:43:00       46.968       51.351       -8.435       19.613       34.044       19.021      384.657     1159.020      361.801        0.341        0.095       69.591       16.321        0.055      333.459        2.786      863.200
01/31/2015  00:44:00       23.641       16.727        6.086       14.863       13.607       15.667      220.899      185.139      245.455        0.076        0.033       28.960        8.918        0.095      333.373        2.646      863.187
01/31/2015  00:45:00       64.515       26.696        1.085       23.211       16.105       12.495      538.757      259.374      156.131        0.291        0.048       69.820        9.443        0.018      333.379        2.656      863.178
01/31/2015  00:46:00       56.223       22.972        9.637       19.444       16.030       16.220      378.053      256.950      263.100        0.234        0.045       60.735       11.582        0.036      333.347        2.603      863.169
01/31/2015  00:47:00       79.857       36.035       10.619       23.392       17.378       17.435      547.188      301.996      303.963        0.447        0.058       87.611       13.517        0.024      333.346        2.602      863.153
01/31/2015  00:48:00       57.626       34.799       22.169       30.547       23.027       22.568      933.128      530.224      509.328        0.350        0.099       67.319       16.514        0.060      333.334        2.580      863.144
01/31/2015  00:49:00       50.658       38.076       24.646       13.362       15.008       19.055      178.555      225.244      363.104        0.270        0.038       63.372       12.575        0.039      333.333        2.578      863.133
01/31/2015  00:50:00       82.417       35.483        9.589       30.618       21.040       14.155      937.467      442.698      200.360        0.486        0.079       89.731       11.777        0.017      333.317        2.553      863.135
01/31/2015  00:51:00       56.245       36.786        7.353       14.732       19.342       15.945      217.018      374.131      254.244        0.271        0.042       67.207       11.946        0.032      333.266        2.468      863.138
01/31/2015  00:52:00       49.681       36.918        3.195       15.865       11.951       11.289      251.700      142.824      127.448        0.218        0.026       61.896        7.800        0.016      333.245        2.432      863.124
01/31/2015  00:53:00       38.365       28.269        3.057       13.170       14.570       13.552      173.449      212.278      183.666        0.142        0.028       47.655       10.607        0.050      333.288        2.503      863.110
01/31/2015  00:54:00       42.692       34.511       -0.361        9.679        8.357        7.278       93.679       69.838       52.971        0.162        0.011       54.897        5.636        0.011      333.391        2.673      863.106
01/31/2015  00:55:00       46.861       23.499        3.003       11.117       13.611        8.323      123.581      185.261       69.271        0.157        0.019       52.423        5.346        0.010      333.415        2.713      863.115
01/31/2015  00:56:00       59.093       25.105        5.316       16.222       12.191        7.461      263.145      148.632       55.665        0.231        0.023       64.205        6.716        0.011      333.473        2.811      863.120
01/31/2015  00:57:00       43.991       33.708       16.602       14.711       15.494       16.391      216.415      240.075      268.670        0.204        0.036       55.421        9.163        0.027      333.430        2.739      863.108
01/31/2015  00:58:00       48.291       37.893        1.926       17.070       15.587       14.338      291.381      242.954      205.582        0.226        0.037       61.384        7.150        0.014      333.386        2.667      863.101
01/31/2015  00:59:00       41.991       50.569        1.050       22.121       17.763       10.602      489.318      315.518      112.398        0.262        0.046       65.730        6.382        0.009      333.302        2.528      863.103
01/31/2015  01:00:00       19.989       31.299       -8.074       13.693       16.274        9.594      187.494      264.855       92.051        0.099        0.027       37.137        8.498        0.052      333.281        2.491      863.109
01/31/2015  01:01:00       23.291       46.082       -5.290       12.379       18.840       12.302      153.246      354.952      151.345        0.168        0.033       51.633        9.724        0.035      333.312        2.544      863.109
01/31/2015  01:02:00       17.063       73.052      -16.072       12.033       13.837        6.211      144.785      191.453       38.571        0.313        0.019       75.018        4.523        0.004      333.273        2.476      863.114
01/31/2015  01:03:00       -1.395       79.737      -15.373        6.338       11.928        5.426       40.176      142.277       29.442        0.340        0.011       79.749        5.278        0.004      333.334        2.583      863.124
01/31/2015  01:04:00        6.291       73.670      -12.068       18.099       16.291       11.044      327.562      265.408      121.966        0.316        0.036       73.938        9.531        0.017      333.258        2.453      863.119
01/31/2015  01:05:00       41.719       43.002       -4.115       22.670       27.084       19.497      513.924      733.536      380.117        0.262        0.081       59.914       18.408        0.094      333.167        2.306      863.114
01/31/2015  01:06:00       27.760       24.398       -0.888       15.252       14.661       11.116      232.628      214.952      123.571        0.097        0.029       36.958        7.268        0.039      333.251        2.443      863.091
01/31/2015  01:07:00       10.411       36.783       -4.511       16.236       14.905       12.004      263.623      222.172      144.093        0.106        0.031       38.227        4.313        0.013      333.467        2.801      863.059
01/31/2015  01:08:00       -2.725       20.049       -0.020       21.108       22.259       11.875      445.568      495.462      141.007        0.075        0.054       20.234       12.279        0.368      333.195        2.350      863.034
01/31/2015  01:09:00       41.525        9.905        6.862       13.403       14.145       13.067      179.639      200.093      170.735        0.121        0.028       42.690        8.995        0.044      333.302        2.527      863.010
01/31/2015  01:10:00       43.284       20.315        1.365       13.360       13.725       11.489      178.494      188.362      131.999        0.139        0.025       47.815        4.551        0.009      333.392        2.676      863.001
01/31/2015  01:11:00       17.104       22.653        2.893       10.597       10.912        7.663      112.301      119.069       58.720        0.055        0.015       28.385        2.328        0.007      333.188        2.339      863.014
01/31/2015  01:12:00        4.789       11.288        2.518        6.851        5.502        3.035       46.933       30.272        9.208        0.012        0.004       12.262        1.610        0.017      333.107        2.206      863.022
01/31/2015  01:13:00       11.270       21.869       -2.704        6.554       13.040        5.564       42.955      170.036       30.956        0.043        0.012       24.602        4.818        0.038      333.074        2.151      863.036
01/31/2015  01:14:00       47.009       16.138        3.548       23.911       17.515       10.930      571.758      306.764      119.460        0.174        0.050       49.702        6.786        0.019      333.084        2.166      863.035
01/31/2015  01:15:00       62.887       24.300       10.690       20.972       14.325       12.142      439.806      205.196      147.437        0.273        0.040       67.418       10.182        0.023      333.039        2.094      863.028
01/31/2015  01:16:00       19.625       11.833        2.306        9.883        6.800        7.811       97.679       46.247       61.019        0.037        0.010       22.916        5.640        0.061      333.076        2.153      863.020
01/31/2015  01:17:00        2.663       11.223       -0.081        7.266       10.469        4.445       52.799      109.607       19.757        0.016        0.009       11.534        1.479        0.016      333.075        2.152      863.018
01/31/2015  01:18:00        6.694       23.785       -1.939        8.196        7.943        5.529       67.171       63.095       30.572        0.039        0.008       24.709        5.389        0.048      333.085        2.168      863.018
01/31/2015  01:19:00       15.392       32.911       -8.891        9.971       10.083        8.349       99.411      101.666       69.712        0.083        0.014       36.333        7.321        0.041      333.119        2.226      863.023
01/31/2015  01:20:00        8.995       26.789       -6.050       12.047        7.890        8.092      145.135       62.252       65.476        0.055        0.014       28.259        8.543        0.091      333.270        2.474      863.006
01/31/2015  01:21:00      -24.858       -2.949       -4.470       20.015       16.837        6.400      400.590      283.482       40.960        0.069        0.036       25.033        8.047        0.103      333.088        2.174      862.986
01/31/2015  01:22:00      -58.678      -23.853       -9.883       10.376        7.607        5.805      107.654       57.870       33.695        0.215        0.010       63.341        5.113        0.007      332.962        1.966      862.969
01/31/2015  01:23:00      -93.304      -31.286       -7.088       14.063       15.156        9.067      197.755      229.698       82.202        0.512        0.025       98.410        8.009        0.007      332.832        1.753      862.955
01/31/2015  01:24:00      -55.102       -9.716        0.002       20.442       11.910       11.403      417.892      141.858      130.033        0.191        0.034       55.952       10.777        0.037      332.740        1.600      862.958
01/31/2015  01:25:00      -63.397      -16.029       -8.229       15.834       11.012        8.490      250.723      121.256       72.077        0.239        0.022       65.391        8.337        0.016      332.780        1.665      862.971
01/31/2015  01:26:00      -79.102        9.280      -10.371        9.937        9.477        9.540       98.737       89.811       91.007        0.337        0.014       79.645        4.901        0.004      332.932        1.917      862.989
01/31/2015  01:27:00      -72.854      -30.568      -12.113       14.720       23.507       11.403      216.681      552.566      130.039        0.364        0.045       79.007        7.309        0.009      332.940        1.930      863.008
01/31/2015  01:28:00     -106.058       -5.547      -16.767       31.326       19.128        9.823      981.312      365.878       96.487        0.650        0.072      106.203        7.640        0.005      332.744        1.605      863.032
01/31/2015  01:29:00      -94.039      -26.578       -2.445       23.208       20.091       13.249      538.612      403.629      175.549        0.534        0.056       97.722        9.836        0.010      332.796        1.692      863.052
01/31/2015  01:30:00     -105.332      -30.098       -2.298       23.211       25.615       11.744      538.746      656.125      137.911        0.667        0.067      109.548       11.001        0.010      332.843        1.770      863.075
01/31/2015  01:31:00     -123.412      -30.047       -1.684       26.479       20.255       15.849      701.161      410.254      251.195        0.875        0.068      127.017       13.344        0.011      332.803        1.705      863.088
01/31/2015  01:32:00     -127.765      -30.912       -4.038       33.426       23.655       20.925     1117.327      559.553      437.848        0.970        0.106      131.451       18.884        0.021      332.774        1.656      863.093
01/31/2015  01:33:00     -150.125      -17.592      -13.301       40.959       29.932       25.356     1677.656      895.943      642.943        1.312        0.161      151.153       26.076        0.030      332.878        1.827      863.096
01/31/2015  01:34:00     -150.903      -27.474      -14.338       29.157       26.435       20.899      850.148      698.824      436.777        1.286        0.099      153.384       15.692        0.010      332.820        1.732      863.099
01/31/2015  01:35:00     -156.812      -19.223      -16.988       34.883       23.822       18.542     1216.854      567.499      343.816        1.369        0.106      157.986       15.741        0.010      332.812        1.720      863.101
01/31/2015  01:36:00     -185.837       18.366      -18.885       17.753       20.712       15.429      315.179      428.968      238.051        1.811        0.049      186.742       10.719        0.003      332.701        1.535      863.094
01/31/2015  01:37:00     -175.363        6.327      -18.569       31.319       16.821       14.357      980.893      282.949      206.137        1.630        0.073      175.477       15.252        0.008      332.669        1.480      863.071
01/31/2015  01:38:00     -143.165      -12.083      -11.107       28.785       22.076       18.146      828.594      487.353      329.281        1.121        0.082      143.674       15.940        0.012      332.620        1.399      863.054
01/31/2015  01:39:00     -166.027      -22.892      -16.588       29.034       26.699       15.449      842.998      712.844      238.679        1.508        0.090      167.598       15.666        0.009      332.657        1.462      863.036
01/31/2015  01:40:00     -164.960      -33.760      -19.301       19.364       15.857       12.182      374.946      251.442      148.410        1.475        0.039      168.379        7.229        0.002      332.629        1.416      863.032
01/31/2015  01:41:00     -130.214      -71.013       -4.601       46.746       38.894       22.691     2185.200     1512.771      514.877        1.312        0.211      148.319       26.391        0.032      332.628        1.413      863.009
01/31/2015  01:42:00     -117.282      -49.877       -6.463       38.117       33.651       20.160     1452.937     1132.393      406.415        0.964        0.150      127.448       21.742        0.029      332.654        1.458      863.003
01/31/2015  01:43:00      -45.068      -44.376        8.262       45.156       33.287       26.508     2039.075     1108.005      702.651        0.396        0.192       63.248       26.991        0.182      332.753        1.621      863.005
01/31/2015  01:44:00      -89.460      -87.384        3.715       55.470       39.681       29.631     3076.879     1574.552      878.019        1.059        0.276      125.056       25.225        0.041      332.885        1.840      863.015
01/31/2015  01:45:00     -143.502      -84.105       -1.465       43.778       33.486       24.715     1916.556     1121.287      610.851        1.566        0.182      166.332       19.156        0.013      332.911        1.882      863.039
01/31/2015  01:46:00     -111.365      -83.901        8.038       69.724       54.059       41.247     4861.419     2922.404     1701.293        1.449        0.474      139.433       39.951        0.082      332.903        1.869      863.037
01/31/2015  01:47:00     -159.493     -118.351       -6.688       89.043       46.842       34.841     7928.724     2194.215     1213.924        2.541        0.567      198.608       25.673        0.017      332.930        1.910      863.042
01/31/2015  01:48:00     -140.624     -147.368        8.711       77.976       60.526       45.366     6080.302     3663.410     2058.038        2.668        0.590      203.697       48.177        0.056      332.932        1.914      863.039
01/31/2015  01:49:00     -185.572     -134.165       -1.927       58.819       60.964       36.469     3459.636     3716.651     1329.992        3.047        0.425      228.992       37.423        0.027      332.942        1.927      863.031
01/31/2015  01:50:00     -189.090     -144.409       -7.475       58.675       70.158       34.613     3442.798     4922.100     1198.038        3.311        0.478      237.926       38.981        0.027      333.001        2.027      863.020
01/31/2015  01:51:00     -160.470     -144.661       -3.779       77.356       56.395       39.881     5983.880     3180.440     1590.483        2.872        0.538      216.050       43.085        0.040      333.002        2.030      863.012
01/31/2015  01:52:00     -116.857     -123.408       16.806       80.923       69.944       42.290     6548.486     4892.104     1788.402        2.120        0.661      169.956       44.926        0.070      333.036        2.085      862.981
01/31/2015  01:53:00     -178.658     -160.293       -5.212       66.957       52.900       42.337     4483.224     2798.430     1792.400        3.336        0.454      240.026       36.221        0.023      333.096        2.184      862.974
01/31/2015  01:54:00      -98.073      -93.143       18.244       88.442       63.721       50.527     7821.949     4060.315     2553.007        1.653        0.722      135.255       57.047        0.178      333.088        2.172      862.970
01/31/2015  01:55:00      -85.831     -100.434       11.908       76.620       60.921       41.711     5870.599     3711.426     1739.800        1.446        0.566      132.114       38.253        0.084      333.016        2.053      862.976
01/31/2015  01:56:00      -64.308      -47.407        3.181       48.457       40.085       29.028     2348.098     1606.833      842.605        0.559        0.240       79.893       26.736        0.112      333.083        2.166      862.990
01/31/2015  01:57:00       -9.586      -32.260       19.022       33.763       36.205       18.858     1139.967     1310.788      355.623        0.215        0.140       33.654       21.947        0.425      333.065        2.136      863.005
01/31/2015  01:58:00      -16.213       14.117       18.118       42.667       17.329       19.736     1820.472      300.287      389.502        0.165        0.126       21.498       13.611        0.401      333.089        2.175      863.020
01/31/2015  01:59:00       25.656       12.929       -6.842       16.817       16.517       12.419      282.811      272.811      154.223        0.079        0.035       28.729        9.662        0.113      332.893        1.852      863.034
01/31/2015  02:00:00       60.987       31.453       -3.823       31.283       21.361       18.120      978.627      456.314      328.344        0.324        0.088       68.620       15.773        0.053      332.914        1.889      863.051
01/31/2015  02:01:00       53.426      -71.160        0.427       34.117       59.152       33.849     1163.946     3498.925     1145.747        0.686        0.290       88.984       25.316        0.081      333.204        2.365      863.082
01/31/2015  02:02:00      -50.218      -12.013       -7.263       24.082       35.873       17.798      579.947     1286.906      316.774        0.245        0.109       51.635       13.691        0.070      333.201        2.357      863.098
01/31/2015  02:03:00      -54.143       10.402      -12.640       22.491       24.394       13.501      505.849      595.051      182.287        0.224        0.064       55.133       13.710        0.062      333.228        2.403      863.117
01/31/2015  02:04:00      -95.236      -31.584      -15.219       22.230       23.547       14.083      494.164      554.466      198.337        0.577        0.062      100.337       14.602        0.021      333.240        2.424      863.127
01/31/2015  02:05:00     -128.351      -22.036      -18.574       23.466       17.937       16.442      550.653      321.721      270.330        0.922        0.057      130.229       13.324        0.010      333.242        2.429      863.149
01/31/2015  02:06:00     -108.693      -43.854      -14.488       32.697       18.869       12.388     1069.115      356.049      153.473        0.776        0.079      117.207        6.581        0.003      333.291        2.508      863.161
01/31/2015  02:07:00      -46.949      -31.325        4.141       46.760       26.983       21.035     2186.475      728.097      442.489        0.328        0.168       56.440       25.099        0.198      333.144        2.267      863.181
01/31/2015  02:08:00       -4.307      -14.340        8.484       29.721       21.537       18.795      883.328      463.839      353.249        0.100        0.085       14.973       14.792        0.976      333.119        2.225      863.200
01/31/2015  02:09:00      -22.402      -48.257        6.916       44.996       35.461       22.696     2024.637     1257.472      515.106        0.334        0.190       53.203       20.890        0.154      333.160        2.293      863.183
01/31/2015  02:10:00      -27.742      -11.168        2.140       44.951       28.051       17.359     2020.560      786.843      301.340        0.200        0.155       29.905       22.666        0.574      333.116        2.221      863.178
01/31/2015  02:11:00      -38.585      -37.407        0.401       41.892       26.853       17.370     1754.970      721.074      301.734        0.283        0.139       53.741       15.605        0.084      333.154        2.283      863.195
01/31/2015  02:12:00      -55.843      -41.615        3.438       32.111       24.507       20.211     1031.141      600.587      408.498        0.345        0.102       69.644       12.604        0.033      333.160        2.293      863.210
01/31/2015  02:13:00     -120.942      -40.000       -8.805       18.823       20.995       12.426      354.290      440.770      154.410        0.863        0.047      127.385        9.737        0.006      333.218        2.388      863.229
01/31/2015  02:14:00     -104.013        5.551      -11.333       34.780       23.617       18.428     1209.659      557.761      339.600        0.654        0.105      104.161       15.503        0.022      333.263        2.463      863.251
01/31/2015  02:15:00      -74.087        7.677      -10.616       26.930       33.738       18.411      725.213     1138.261      338.966        0.393        0.110       74.484       10.630        0.020      333.325        2.565      863.250
01/31/2015  02:16:00      -59.913        7.235       -7.025       17.969       19.292       13.068      322.868      372.168      170.770        0.228        0.043       60.349       11.975        0.039      333.310        2.539      863.234
01/31/2015  02:17:00      -55.619       26.923        8.177       27.209       26.697       17.472      740.349      712.756      305.270        0.282        0.088       61.792       15.825        0.066      333.322        2.561      863.225
01/31/2015  02:18:00      -33.666       18.833        0.135       17.290       17.749       12.035      298.931      315.014      144.837        0.112        0.038       38.576        9.122        0.056      333.208        2.372      863.242
01/31/2015  02:19:00      -19.895      -10.106       -5.569       17.049       16.770        5.953      290.667      281.224       35.435        0.057        0.030       22.315        5.856        0.069      333.194        2.348      863.256
01/31/2015  02:20:00       26.883       39.534       -4.442       24.053       24.177       11.607      578.524      584.542      134.729        0.180        0.065       47.808       12.522        0.069      333.171        2.311      863.287
01/31/2015  02:21:00       20.829       25.058       -9.840       26.873       25.482       11.049      722.157      649.335      122.075        0.133        0.075       32.585       11.632        0.127      333.096        2.187      863.312
01/31/2015  02:22:00       31.748      113.809       -8.631       38.349       59.219       32.612     1470.611     3506.916     1063.565        1.004        0.302      118.154       23.929        0.041      332.979        1.994      863.322
01/31/2015  02:23:00       19.799       87.746        7.566       32.607       89.231       35.090     1063.246     7962.239     1231.309        0.920        0.513       89.952       47.690        0.281      332.902        1.866      863.319
01/31/2015  02:24:00       22.248       33.072       -1.841       19.108       16.905        9.864      365.120      285.795       97.308        0.117        0.037       39.859        7.346        0.034      332.858        1.796      863.324
01/31/2015  02:25:00       50.656       21.752        9.820       20.893       14.765       16.667      436.520      217.999      277.805        0.203        0.047       55.128       11.314        0.042      332.874        1.821      863.333
01/31/2015  02:26:00       22.625       25.393       -5.184       19.443       20.720       14.243      378.037      429.301      202.851        0.110        0.051       34.010       15.846        0.217      332.839        1.765      863.349
01/31/2015  02:27:00       15.961       31.674       -3.401       12.190       14.757        6.544      148.587      217.777       42.823        0.084        0.020       35.468        6.800        0.037      332.824        1.743      863.361
01/31/2015  02:28:00       29.585       26.028       -5.629       19.272       16.901        9.275      371.404      285.628       86.018        0.116        0.037       39.404        5.948        0.023      332.820        1.735      863.364
01/31/2015  02:29:00       42.227       58.132       48.233       32.584       36.722       33.196     1061.703     1348.471     1101.974        0.550        0.176       71.850       26.088        0.132      332.764        1.640      863.355
01/31/2015  02:30:00      100.465       69.364       38.030       28.865       24.976       25.475      833.184      623.790      648.982        0.923        0.105      122.084       18.859        0.024      332.743        1.605      863.332
01/31/2015  02:31:00       84.440       53.215       24.872       27.095       22.055       25.797      734.122      486.422      665.460        0.623        0.094       99.810       20.178        0.041      332.829        1.746      863.309
01/31/2015  02:32:00       87.506       56.199       23.394       35.362       31.467       31.681     1250.486      990.157     1003.656        0.730        0.162      103.998       12.980        0.016      332.950        1.946      863.300
01/31/2015  02:33:00       56.792       37.479        1.409       31.667       25.103       20.893     1002.823      630.149      436.504        0.335        0.103       68.044       12.642        0.035      332.862        1.802      863.295
01/31/2015  02:34:00       23.809       48.752        2.763       38.625       43.496       22.681     1491.879     1891.913      514.446        0.342        0.195       54.255       24.342        0.201      332.845        1.773      863.273
01/31/2015  02:35:00       15.662      163.597      -27.146       30.606       35.834       20.187      936.737     1284.072      407.507        1.519        0.131      164.345       16.297        0.010      332.975        1.986      863.268
01/31/2015  02:36:00        0.927      163.134      -28.137       33.226       26.532       18.013     1103.949      703.924      324.459        1.477        0.107      163.136       16.836        0.011      333.110        2.209      863.251
01/31/2015  02:37:00       -3.223      112.031      -19.196       31.038       48.922       13.055      963.356     2393.381      170.442        0.823        0.176      112.077       19.014        0.029      333.301        2.526      863.226
01/31/2015  02:38:00      -79.030       88.938      -16.150       46.807       37.068       20.081     2190.865     1374.042      403.243        0.919        0.198      118.978       14.913        0.016      333.250        2.441      863.187
01/31/2015  02:39:00      -85.935       44.394      -14.964       26.955       26.852       18.812      726.561      721.041      353.890        0.569        0.090       96.724       11.130        0.013      333.315        2.550      863.157
01/31/2015  02:40:00      -70.660       24.914      -10.488       29.921       29.169       13.914      895.238      850.819      193.597        0.383        0.097       74.923        4.807        0.004      333.096        2.188      863.148
01/31/2015  02:41:00     -132.907      -26.987      -21.962       17.126       23.484       10.760      293.299      551.504      115.780        0.992        0.048      135.619        8.679        0.004      332.703        1.538      863.146
01/31/2015  02:42:00     -140.216      -41.032      -11.659       25.920       28.969       14.241      671.844      839.208      202.809        1.160        0.086      146.097        9.665        0.004      332.682        1.504      863.146
01/31/2015  02:43:00     -112.772      -42.459       -3.048       38.052       23.634       14.630     1447.963      558.586      214.029        0.837        0.111      120.500       11.885        0.010      332.818        1.729      863.157
01/31/2015  02:44:00      -80.748      -39.357       -3.939       22.807       24.087       13.921      520.141      580.183      193.798        0.469        0.065       89.829       12.351        0.019      332.939        1.927      863.170
01/31/2015  02:45:00      -95.309      -26.433       -0.580       30.639       31.838       13.972      938.768     1013.681      195.218        0.596        0.107       98.906       12.363        0.016      333.024        2.069      863.182
01/31/2015  02:46:00     -102.855        9.379       -8.039       42.271       30.129       18.796     1786.849      907.743      353.287        0.689        0.152      103.282       21.094        0.042      332.842        1.767      863.198
01/31/2015  02:47:00      -53.951        0.157        2.124       52.885       25.106       19.124     2796.872      630.325      365.721        0.335        0.190       53.951       23.599        0.191      332.750        1.617      863.210
01/31/2015  02:48:00     -107.021      -18.613       -6.153       22.160       18.213       14.762      491.073      331.706      217.908        0.644        0.052      108.628       13.437        0.015      332.721        1.568      863.219
01/31/2015  02:49:00     -106.593      -14.993       -3.548       47.169       28.647       20.568     2224.888      820.637      423.028        0.753        0.173      107.642       20.859        0.038      332.645        1.443      863.216
01/31/2015  02:50:00      -90.970      -21.555        2.273       48.357       31.166       22.656     2338.446      971.331      513.302        0.628        0.191       93.489       26.523        0.080      332.587        1.345      863.211
01/31/2015  02:51:00      -98.747        1.454       -8.439       30.676       20.413       16.538      941.002      416.677      273.501        0.573        0.082       98.758       16.562        0.028      332.628        1.413      863.206
01/31/2015  02:52:00      -72.498      -21.818        3.697       28.133       17.817       14.230      791.486      317.447      202.483        0.353        0.066       75.710       15.381        0.041      332.781        1.667      863.203
01/31/2015  02:53:00      -72.427      -11.713        0.626       37.938       21.542       15.540     1439.321      464.047      241.478        0.376        0.107       73.368       20.046        0.075      332.811        1.718      863.192
01/31/2015  02:54:00      -59.301      -26.664       11.780       25.931       25.084       16.071      672.419      629.186      258.266        0.296        0.078       65.020       16.252        0.062      332.807        1.711      863.179
01/31/2015  02:55:00      -56.353      -37.505        1.262       29.257       20.962       13.710      855.983      439.421      187.954        0.303        0.074       67.692       14.378        0.045      332.842        1.769      863.175
01/31/2015  02:56:00      -21.366      -24.111        2.106       20.260       11.427       11.791      410.465      130.568      139.033        0.086        0.034       32.216       11.737        0.133      332.836        1.759      863.160
01/31/2015  02:57:00        3.177       -3.968        6.910       11.128        8.718        8.584      123.827       75.997       73.688        0.017        0.014        5.083        5.997        1.392      332.725        1.577      863.146
01/31/2015  02:58:00       31.202       14.601        1.822       28.604       19.778       14.365      818.177      391.180      206.340        0.130        0.071       34.449       13.918        0.163      332.673        1.489      863.141
01/31/2015  02:59:00      101.292       44.249       23.267       42.698       33.668       21.465     1823.088     1133.548      460.765        0.809        0.171      110.535       15.708        0.020      332.601        1.369      863.139
01/31/2015  03:00:00      100.340       48.496       17.193       22.637       20.612       24.188      512.437      424.839      585.051        0.712        0.076      111.445       14.768        0.018      332.659        1.466      863.133
01/31/2015  03:01:00       71.742       41.682       17.599       29.713       22.636       32.870      882.841      512.375     1080.462        0.483        0.124       82.972       20.719        0.062      332.759        1.630      863.113
01/31/2015  03:02:00       70.895       23.165       17.743       30.361       21.446       18.989      921.803      459.948      360.587        0.381        0.087       74.583       10.203        0.019      332.829        1.747      863.097
01/31/2015  03:03:00       21.648       27.977       21.970       25.544       19.842       17.736      652.516      393.707      314.549        0.155        0.068       35.374       11.416        0.104      332.813        1.719      863.066
01/31/2015  03:04:00      -18.779      -13.885        4.309       24.402       13.626        9.799      595.437      185.657       96.027        0.072        0.044       23.355       11.397        0.238      332.876        1.824      863.041
01/31/2015  03:05:00      -15.448      -24.315       11.418       15.122       14.243       11.850      228.660      202.870      140.414        0.077        0.029       28.808        8.988        0.097      332.794        1.690      863.042
01/31/2015  03:06:00      -75.985      -12.234       -6.563       25.234       14.179       11.248      636.767      201.051      126.517        0.347        0.048       76.963       10.292        0.018      332.339        0.937      863.055
01/31/2015  03:07:00      -61.832       -1.692       -9.295       14.819       14.103       10.050      219.615      198.883      101.003        0.222        0.026       61.855        4.982        0.006      332.281        0.843      863.075
01/31/2015  03:08:00      -88.036        3.933      -11.426       27.524       20.937       12.930      757.569      438.360      167.186        0.463        0.068       88.124        8.997        0.010      332.387        1.015      863.091
01/31/2015  03:09:00      -90.664       -6.134       -6.133       29.563       28.794       24.012      873.967      829.079      576.584        0.529        0.114       90.871       18.263        0.040      332.289        0.855      863.106
01/31/2015  03:10:00      -48.537      -20.436       -4.176       26.973       20.986       18.730      727.526      440.403      350.802        0.215        0.076       52.664       11.364        0.047      332.306        0.882      863.114
01/31/2015  03:11:00      -15.148      -27.026        4.490       25.848       17.724       11.672      668.134      314.147      136.235        0.105        0.056       30.982       11.484        0.137      332.297        0.868      863.109
01/31/2015  03:12:00      -35.460       -9.708        3.439       11.827       11.736        9.935      139.872      137.744       98.699        0.087        0.019       36.764        7.548        0.042      332.345        0.946      863.117
01/31/2015  03:13:00      -39.833        1.590       -6.936       13.570       29.281        9.993      184.146      857.404       99.866        0.139        0.057       39.865        8.080        0.041      332.384        1.009      863.121
01/31/2015  03:14:00      -56.779       36.106      -16.337       16.147       27.023       15.515      260.728      730.241      240.728        0.301        0.062       67.287       10.403        0.024      332.468        1.149      863.132
01/31/2015  03:15:00      -69.356       48.524      -15.410       15.053       26.358       16.416      226.593      694.760      269.471        0.430        0.060       84.645       10.785        0.016      332.440        1.104      863.161
01/31/2015  03:16:00      -76.895       35.149       -9.782       27.685       29.057       17.628      766.455      844.297      310.749        0.458        0.096       84.548       15.719        0.035      332.265        0.817      863.177
01/31/2015  03:17:00      -85.149       11.581       -7.273       37.061       25.043       16.766     1373.507      627.160      281.099        0.486        0.114       85.933       15.015        0.031      332.221        0.744      863.171
01/31/2015  03:18:00      -63.676       13.842      -18.389       24.553       23.499       17.018      602.866      552.201      289.628        0.301        0.072       65.163        8.533        0.017      332.173        0.662      863.161
01/31/2015  03:19:00      -52.667        3.142       -8.056       25.968       32.914       14.630      674.317     1083.323      214.033        0.241        0.099       52.761       11.192        0.045      332.125        0.582      863.138
01/31/2015  03:20:00     -118.589       -9.159      -17.319       44.342       34.177       23.828     1966.181     1168.048      567.792        0.907        0.185      118.942       22.472        0.036      331.981        0.346      863.107
01/31/2015  03:21:00     -153.924        9.792      -22.249       27.740       30.936       17.135      769.527      957.060      293.614        1.315        0.101      154.235       11.124        0.005      331.930        0.263      863.083
01/31/2015  03:22:00     -132.996       21.768      -15.030       32.035       38.157       18.490     1026.229     1455.966      341.867        1.061        0.141      134.766       10.377        0.006      331.936        0.272      863.076
01/31/2015  03:23:00     -112.823       14.556      -16.745       49.252       28.240       18.387     2425.723      797.522      338.093        0.839        0.178      113.758       19.191        0.028      331.990        0.360      863.093
01/31/2015  03:24:00      -82.789        5.309       -4.050       41.140       28.692       22.664     1692.497      823.246      513.676        0.496        0.151       82.959       20.876        0.063      332.013        0.399      863.117
01/31/2015  03:25:00      -81.784        4.738       -5.417       35.934       26.209       18.290     1291.282      686.900      334.531        0.453        0.116       81.921       12.289        0.023      332.085        0.520      863.141
01/31/2015  03:26:00      -53.537        6.961       -7.854       22.327       22.044       17.185      498.511      485.922      295.331        0.213        0.064       53.987       15.286        0.080      332.197        0.702      863.142
01/31/2015  03:27:00      -98.348        7.876      -16.320       38.519       22.402       14.882     1483.748      501.861      221.480        0.610        0.110       98.663       10.706        0.012      332.135        0.602      863.125
01/31/2015  03:28:00      -80.085        7.227      -14.040       26.629       19.179       12.573      709.104      367.835      158.075        0.395        0.062       80.411       11.119        0.019      332.120        0.578      863.116
01/31/2015  03:29:00      -52.972       -9.805      -13.565       17.006       16.740       10.191      289.212      280.239      103.856        0.188        0.034       53.872        7.058        0.017      332.172        0.663      863.104
01/31/2015  03:30:00      -61.466      -13.558       -1.487       24.908       24.945       13.877      620.396      622.234      192.567        0.270        0.072       62.943       11.989        0.036      332.145        0.619      863.093
01/31/2015  03:31:00      -69.590      -31.204       -6.563       24.348       22.200       10.788      592.806      492.843      116.376        0.353        0.060       76.266        9.394        0.015      332.072        0.497      863.101
01/31/2015  03:32:00      -50.194       -8.695        0.255       23.609       14.835       11.894      557.386      220.080      141.468        0.176        0.046       50.942        9.867        0.038      331.955        0.304      863.128
01/31/2015  03:33:00      -23.110       17.549       -1.931       22.026       17.773       13.395      485.141      315.883      179.437        0.091        0.049       29.018       12.634        0.190      332.008        0.392      863.161
01/31/2015  03:34:00      -59.081        9.578       -6.943       23.736       22.088       15.094      563.415      487.899      227.816        0.245        0.064       59.852       11.897        0.040      332.116        0.571      863.185
01/31/2015  03:35:00      -49.243       11.376       -7.072       24.082       33.536       17.316      579.921     1124.642      299.845        0.230        0.100       50.540       10.210        0.041      332.308        0.888      863.195
01/31/2015  03:36:00      -51.759       24.923       -3.684       23.835       27.009       16.490      568.114      729.490      271.928        0.244        0.078       57.447       13.684        0.057      332.591        1.353      863.194
01/31/2015  03:37:00      -51.831       -7.304      -13.039       14.759       18.986        8.371      217.837      360.465       70.072        0.178        0.032       52.343        6.271        0.014      332.347        0.951      863.199
01/31/2015  03:38:00      -16.717      -34.135      -13.445       15.100       10.263        7.967      228.023      105.319       63.470        0.101        0.020       38.008        3.752        0.010      332.074        0.500      863.195
01/31/2015  03:39:00       -7.647      -27.795       -2.584        9.766       11.452        9.882       95.376      131.147       97.646        0.058        0.016       28.828        2.880        0.010      332.528        1.249      863.179
01/31/2015  03:40:00      -24.320        2.127        3.106       25.328       18.987        9.952      641.523      360.513       99.050        0.085        0.055       24.413        9.196        0.142      332.206        0.718      863.169
01/31/2015  03:41:00      -33.369        7.341       -2.744       12.669       19.201        6.466      160.511      368.681       41.814        0.087        0.029       34.167        5.575        0.027      332.100        0.543      863.198
01/31/2015  03:42:00      -40.316      -12.147       -1.773       15.071       15.394       14.693      227.123      236.986      215.888        0.123        0.034       42.106        4.924        0.014      332.215        0.733      863.241
01/31/2015  03:43:00      -69.456      -40.192       -7.948       14.001       13.578        8.929      196.033      184.352       79.720        0.348        0.023       80.247        4.552        0.003      331.965        0.320      863.280
01/31/2015  03:44:00      -80.815      -28.751      -10.064       21.935       23.084       16.899      481.146      532.884      285.581        0.438        0.065       85.777       12.244        0.020      331.861        0.148      863.280
01/31/2015  03:45:00      -32.949      -15.951       -9.960       22.874       12.571       11.689      523.233      158.032      136.643        0.113        0.041       36.607        7.590        0.043      331.898        0.210      863.264
01/31/2015  03:46:00      -10.742      -26.595       -6.483       13.034       11.224        9.722      169.874      125.972       94.522        0.063        0.020       28.683        4.356        0.023      331.978        0.342      863.251
01/31/2015  03:47:00      -26.509      -18.611       -3.330       10.334       12.911        9.572      106.782      166.703       91.620        0.071        0.018       32.390        3.590        0.012      331.831        0.098      863.263
01/31/2015  03:48:00      -45.833      -21.477       -7.958       11.591       13.102        5.483      134.345      171.662       30.058        0.148        0.017       50.616        4.563        0.008      331.800        0.049      863.283
01/31/2015  03:49:00      -37.625      -12.187       -3.023       13.655       10.674       10.209      186.445      113.937      104.223        0.099        0.020       39.549        2.027        0.003      331.714       -0.091      863.302
01/31/2015  03:50:00      -19.392      -13.617       -6.775       13.252       14.909       12.874      175.625      222.290      165.733        0.059        0.028       23.695        8.917        0.142      331.731       -0.065      863.311
01/31/2015  03:51:00      -33.084      -29.826       -3.565       15.756       17.481       12.917      248.264      305.586      166.846        0.136        0.036       44.544        7.672        0.030      331.692       -0.128      863.317
01/31/2015  03:52:00      -60.198      -31.320      -12.957       14.734        9.766        7.495      217.100       95.384       56.179        0.257        0.018       67.858        3.624        0.003      331.663       -0.175      863.319
01/31/2015  03:53:00      -61.645      -27.748      -11.019       15.663        8.770        8.858      245.344       76.908       78.472        0.255        0.020       67.603        5.764        0.007      331.611       -0.261      863.331
01/31/2015  03:54:00      -44.328      -19.090       -8.729       14.614        9.184        7.696      213.557       84.354       59.234        0.138        0.018       48.264        3.814        0.006      331.624       -0.241      863.339
01/31/2015  03:55:00      -74.663       -7.665       -9.807        9.307        7.925       10.104       86.618       62.801      102.087        0.299        0.013       75.055        5.609        0.006      331.601       -0.279      863.335
01/31/2015  03:56:00     -135.853       -0.871      -23.778       40.075       14.007       16.352     1605.978      196.185      267.385        1.055        0.103      135.856       17.497        0.017      331.524       -0.406      863.334
01/31/2015  03:57:00     -160.499      -13.103      -26.937       34.222       25.017       21.528     1171.164      625.870      463.476        1.446        0.113      161.033       18.156        0.013      331.368       -0.662      863.340
01/31/2015  03:58:00      -87.467      -12.723      -10.299       29.103       24.005       19.967      846.974      576.236      398.681        0.487        0.091       88.387       16.733        0.036      331.334       -0.718      863.340
01/31/2015  03:59:00      -34.905       -1.132      -10.060       27.680       22.546       14.901      766.203      508.336      222.047        0.141        0.075       34.923       13.458        0.149      331.547       -0.367      863.345
01/31/2015  04:00:00      -45.214       -1.863       -2.852       19.187       28.531       12.938      368.147      814.033      167.401        0.170        0.067       45.252       10.963        0.059      331.657       -0.187      863.357
01/31/2015  04:01:00      -64.314        5.157      -10.014       16.094       19.830       12.009      259.009      393.240      144.222        0.253        0.040       64.520        8.704        0.018      331.747       -0.039      863.375
01/31/2015  04:02:00      -70.127        5.839      -11.146       16.349       15.031       11.068      267.290      225.937      122.495        0.285        0.031       70.369        8.820        0.016      331.890        0.197      863.386
01/31/2015  04:03:00      -60.204      -17.085       -9.119       14.986       17.436       12.523      224.590      304.026      156.823        0.234        0.034       62.581        9.740        0.024      331.891        0.199      863.391
01/31/2015  04:04:00      -68.533       -4.731      -13.200       11.198       13.463        8.783      125.405      181.239       77.144        0.264        0.019       68.697        3.175        0.002      331.881        0.182      863.389
01/31/2015  04:05:00      -67.805       -4.245       -3.103       17.959       13.853       10.351      322.543      191.898      107.136        0.262        0.031       67.938        8.224        0.015      331.938        0.276      863.384
01/31/2015  04:06:00      -60.555       -0.349       -8.484       11.587       11.783       10.083      134.270      138.832      101.662        0.206        0.019       60.556        5.917        0.010      332.003        0.384      863.396
01/31/2015  04:07:00      -52.384       -3.925       -5.637       14.312       14.307       15.206      204.819      204.700      231.209        0.172        0.032       52.531       10.038        0.037      332.074        0.499      863.408
01/31/2015  04:08:00      -54.940      -29.395       -7.272       30.150       14.743       15.268      909.050      217.353      233.102        0.265        0.068       62.310       15.424        0.061      332.004        0.383      863.431
01/31/2015  04:09:00      -58.787      -27.383      -11.044       24.027       22.490       12.133      577.319      505.812      147.219        0.278        0.062       64.852        7.229        0.012      331.793        0.037      863.438
01/31/2015  04:10:00      -66.523      -20.629      -10.002       21.287       23.529       12.842      453.126      553.622      164.920        0.306        0.059       69.649        9.091        0.017      331.800        0.049      863.443
01/31/2015  04:11:00      -67.387      -19.362      -10.231       21.888       24.211       13.030      479.090      586.172      169.779        0.313        0.062       70.113        9.605        0.019      331.825        0.090      863.450
01/31/2015  04:12:00      -74.279      -25.734      -11.446       12.777       16.292       11.597      163.247      265.436      134.485        0.344        0.028       78.610        7.850        0.010      331.733       -0.060      863.464
01/31/2015  04:13:00      -66.740      -32.937      -15.872       14.039       19.794       10.462      197.107      391.800      109.458        0.324        0.035       74.425        7.488        0.010      331.773        0.004      863.488
01/31/2015  04:14:00      -53.635       -4.446       -8.051       19.556       22.317       12.976      382.456      498.031      168.374        0.200        0.052       53.819        6.436        0.014      331.787        0.027      863.523
01/31/2015  04:15:00      -64.354       14.033       -2.893       50.618       30.331       20.662     2562.219      919.943      426.899        0.413        0.195       65.866       24.890        0.143      331.930        0.263      863.557
01/31/2015  04:16:00      -64.423       37.338      -13.441       19.810       30.154       13.711      392.423      909.247      188.000        0.361        0.074       74.461       12.816        0.030      332.423        1.076      863.563
01/31/2015  04:17:00      -34.156        9.197       -5.981       20.393       16.313       11.402      415.856      266.122      130.005        0.105        0.041       35.372       11.388        0.104      332.281        0.840      863.545
01/31/2015  04:18:00      -29.712      133.698      -18.226       24.809       39.973       14.603      615.472     1597.813      213.259        1.076        0.121      136.959       12.519        0.008      332.584        1.342      863.524
01/31/2015  04:19:00      -58.964      114.175      -10.599       39.435       37.365       19.127     1555.152     1396.171      365.848        0.997        0.166      128.502       16.003        0.016      332.515        1.228      863.520
01/31/2015  04:20:00      -65.810      124.150      -15.460       31.886       37.641       22.935     1016.739     1416.825      526.018        1.147        0.148      140.514       20.904        0.022      332.704        1.540      863.527
01/31/2015  04:21:00      -47.284      151.303      -22.069       25.329       26.838       16.862      641.569      720.278      284.330        1.363        0.082      158.519        8.514        0.003      332.625        1.409      863.538
01/31/2015  04:22:00      -61.241       94.543      -16.280       33.324       31.302       19.706     1110.466      979.796      388.312        0.772        0.124      112.644        8.428        0.006      332.668        1.479      863.532
01/31/2015  04:23:00      -90.072       45.854      -15.569       14.838       27.157       13.569      220.153      737.507      184.128        0.580        0.057      101.072        8.766        0.008      332.343        0.943      863.521
01/31/2015  04:24:00      -60.313       58.596      -14.165       21.111       26.245       16.367      445.662      688.792      267.865        0.434        0.070       84.090       15.098        0.032      332.411        1.057      863.530
01/31/2015  04:25:00      -37.667       80.333      -10.507       27.542       24.824       14.510      758.564      616.215      210.552        0.478        0.079       88.725       11.711        0.017      332.487        1.181      863.534
01/31/2015  04:26:00      -29.002       26.545       -4.538       23.229       32.397       14.006      539.591     1049.580      196.155        0.168        0.089       39.316       13.731        0.122      332.367        0.984      863.548
01/31/2015  04:27:00      -12.313        1.966        0.619       16.583       19.660       13.598      274.990      386.503      184.911        0.050        0.042       12.469       12.775        1.050      332.213        0.731      863.544
01/31/2015  04:28:00        2.884       -0.597        3.916       11.188        8.829        7.571      125.182       77.946       57.320        0.014        0.013        2.945        4.083        1.922      332.226        0.751      863.525
01/31/2015  04:29:00      -16.701       -1.421       -5.966       17.318       20.170        8.624      299.913      406.814       74.370        0.055        0.039       16.761        6.095        0.132      332.229        0.756      863.499
01/31/2015  04:30:00       -6.270      -19.136        7.683       23.403       16.243       14.065      547.696      263.831      197.826        0.074        0.050       20.137        7.232        0.129      332.109        0.559      863.475
01/31/2015  04:31:00      -14.998      -19.992       -6.979       15.014        8.233        7.883      225.434       67.774       62.134        0.051        0.018       24.992        4.756        0.036      332.138        0.608      863.463
01/31/2015  04:32:00       -5.845        0.057        0.428        6.961        3.657        3.761       48.456       13.375       14.142        0.006        0.004        5.845        2.230        0.145      332.099        0.540      863.455
01/31/2015  04:33:00      -11.349       -3.647        3.563        8.792        6.698        5.621       77.292       44.861       31.600        0.015        0.008       11.920        3.902        0.107      332.099        0.542      863.445
01/31/2015  04:34:00      -10.668      -15.961        0.192        7.802       10.625        7.086       60.864      112.896       50.213        0.030        0.011       19.198        6.184        0.104      332.148        0.624      863.443
01/31/2015  04:35:00      -10.854      -20.255       -0.530        9.544        6.387        7.559       91.097       40.794       57.139        0.036        0.009       22.980        4.650        0.041      332.221        0.741      863.449
01/31/2015  04:36:00      -29.005      -12.401        0.606       12.036       11.089        6.594      144.868      122.961       43.483        0.065        0.016       31.545        4.683        0.022      332.209        0.725      863.455
01/31/2015  04:37:00      -24.220       -9.744       -4.967       16.153        6.197        5.234      260.928       38.404       27.391        0.052        0.016       26.106        5.639        0.047      332.158        0.639      863.462
01/31/2015  04:38:00      -31.844      -11.463       -4.330       14.557        8.882        7.873      211.898       78.884       61.987        0.076        0.018       33.844        7.428        0.048      332.160        0.643      863.468
01/31/2015  04:39:00      -46.310      -18.329        4.511       16.063       10.357       10.342      258.021      107.258      106.961        0.149        0.024       49.805        4.050        0.007      332.070        0.495      863.476
01/31/2015  04:40:00      -66.543      -16.075       -4.481       13.518       13.011        8.853      182.734      169.288       78.368        0.257        0.022       68.457        4.302        0.004      332.008        0.392      863.478
01/31/2015  04:41:00      -91.801      -27.446       -0.281       16.450       21.705       15.411      270.615      471.099      237.507        0.508        0.049       95.816       10.008        0.011      331.897        0.208      863.476
01/31/2015  04:42:00      -95.344      -37.937       -1.429       18.965       20.071       12.741      359.656      402.851      162.321        0.573        0.046      102.614        4.058        0.002      331.851        0.133      863.480
01/31/2015  04:43:00      -96.154      -24.105       -5.904       28.233       23.639       17.955      797.094      558.789      322.372        0.577        0.084       99.130       13.931        0.020      331.793        0.037      863.491
01/31/2015  04:44:00     -109.470       -7.614       -2.533       39.919       25.606       21.579     1593.519      655.665      465.671        0.738        0.136      109.735       23.479        0.046      331.644       -0.208      863.509
01/31/2015  04:45:00     -122.799      -45.815       -3.393       26.071       22.779       15.824      679.685      518.866      250.395        0.932        0.072      131.067       13.001        0.010      331.604       -0.274      863.514
01/31/2015  04:46:00     -133.628      -55.458       -3.716       33.025       25.046       18.467     1090.655      627.284      341.019        1.150        0.103      144.679       13.984        0.009      331.532       -0.392      863.508
01/31/2015  04:47:00      -77.941      -53.899        9.684       57.973       31.107       20.564     3360.924      967.631      422.862        0.691        0.238       94.762       26.788        0.080      331.560       -0.345      863.497
01/31/2015  04:48:00      -81.031      -47.202        3.322       33.222       23.020       20.771     1103.680      529.904      431.422        0.543        0.103       93.777       22.047        0.055      331.521       -0.411      863.488
01/31/2015  04:49:00      -91.460      -38.212       -2.556       26.590       22.016       15.345      707.042      484.698      235.483        0.563        0.071       99.122       13.154        0.018      331.516       -0.418      863.473
01/31/2015  04:50:00     -101.726      -43.410       -7.222       22.258       20.525       16.416      495.403      421.271      269.471        0.674        0.059      110.601       13.813        0.016      331.557       -0.352      863.469
01/31/2015  04:51:00     -116.780      -22.857       -7.871       15.207       16.177       10.335      231.247      261.693      106.804        0.741        0.030      118.995        7.147        0.004      331.555       -0.354      863.478
01/31/2015  04:52:00     -112.369       -7.065      -10.803       27.744       22.728       16.331      769.741      516.578      266.716        0.717        0.078      112.591       13.299        0.014      331.478       -0.481      863.492
01/31/2015  04:53:00     -115.096       -8.146       -7.153       32.123       21.624       16.105     1031.901      467.616      259.367        0.756        0.088      115.384       18.067        0.025      331.439       -0.546      863.491
01/31/2015  04:54:00      -59.011      -40.024        5.083       43.340       27.244       16.407     1878.327      742.236      269.194        0.400        0.144       71.304       21.363        0.090      331.449       -0.528      863.487
01/31/2015  04:55:00      -37.925      -18.884        2.602       33.031       17.135       13.834     1091.072      293.618      191.382        0.169        0.079       42.367       13.751        0.105      331.440       -0.544      863.494
01/31/2015  04:56:00      -56.950      -41.101       -7.387       17.525       14.694       10.581      307.118      215.910      111.952        0.281        0.032       70.232       10.180        0.021      331.454       -0.521      863.499
01/31/2015  04:57:00      -52.987      -19.697       -4.313       16.369       15.698       12.238      267.957      246.413      149.769        0.194        0.033       56.529        7.686        0.018      331.508       -0.434      863.506
01/31/2015  04:58:00      -77.179      -32.847       -7.271       19.125       17.420       14.828      365.767      303.465      219.855        0.399        0.044       83.878       12.368        0.022      331.391       -0.625      863.504
01/31/2015  04:59:00      -74.107      -21.392      -13.131       23.195       16.563       12.924      538.003      274.323      167.035        0.355        0.049       77.133        9.615        0.016      331.391       -0.624      863.511
01/31/2015  05:00:00      -71.260      -33.402      -14.155       19.268       13.574       11.957      371.245      184.261      142.977        0.355        0.035       78.700        8.551        0.012      331.391       -0.625      863.526
01/31/2015  05:01:00      -71.469      -24.349       -4.270       24.034       16.380       11.282      577.617      268.300      127.279        0.335        0.049       75.503        9.070        0.014      331.384       -0.637      863.545
01/31/2015  05:02:00      -50.449      -17.609        1.804       24.585       26.625       13.677      604.409      708.883      187.056        0.218        0.075       53.434       10.852        0.041      331.332       -0.721      863.576
01/31/2015  05:03:00      -34.736        0.481       -0.172       30.103       24.464       13.509      906.192      598.467      182.492        0.145        0.084       34.740       16.080        0.214      331.311       -0.756      863.622
01/31/2015  05:04:00     -141.404       24.419      -14.476       60.991       46.694       28.416     3719.841     2180.356      807.443        1.375        0.335      143.496       30.684        0.046      331.284       -0.800      863.670
01/31/2015  05:05:00     -174.950       42.908      -17.423       47.142       39.356       25.457     2222.404     1548.903      648.054        1.859        0.221      180.135       20.301        0.013      331.316       -0.749      863.709
01/31/2015  05:06:00     -182.978       37.240      -26.078       48.367       40.137       19.244     2339.377     1611.004      370.339        1.993        0.216      186.729       14.447        0.006      331.272       -0.822      863.737
01/31/2015  05:07:00     -141.331       -0.006      -18.519       38.757       35.901       18.648     1502.131     1288.858      347.759        1.173        0.157      141.331       14.338        0.010      331.278       -0.810      863.752
01/31/2015  05:08:00     -145.777      -15.281      -13.866       28.989       30.088       18.903      840.346      905.287      357.317        1.189        0.105      146.575       12.103        0.007      331.159       -1.006      863.763
01/31/2015  05:09:00      -58.163      -44.345       -5.812       51.634       28.173       29.112     2666.103      793.706      847.489        0.484        0.215       73.140       27.690        0.143      331.154       -1.013      863.775
01/31/2015  05:10:00      -63.137      -39.421       -8.321       30.931       31.325       19.348      956.752      981.274      374.338        0.396        0.116       74.433       14.578        0.038      331.134       -1.047      863.783
01/31/2015  05:11:00      -57.107       -3.328       -4.373       28.468       28.691       15.816      810.431      823.149      250.132        0.259        0.094       57.204        9.503        0.028      331.150       -1.020      863.789
01/31/2015  05:12:00      -57.994       -6.957       -5.235       22.751       12.982       14.613      517.598      168.541      213.545        0.217        0.045       58.410       11.812        0.041      331.121       -1.069      863.800
01/31/2015  05:13:00      -75.732       13.528       -9.229       14.949       24.048       12.111      223.459      578.306      146.673        0.348        0.047       76.931        9.400        0.015      331.408       -0.596      863.814
01/31/2015  05:14:00      -58.117        7.732       -6.935       23.823       19.235       15.914      567.526      369.986      253.240        0.234        0.060       58.629       12.156        0.043      331.420       -0.578      863.821
01/31/2015  05:15:00      -58.867       -5.950       -8.863       23.983       16.652       12.988      575.206      277.293      168.692        0.230        0.051       59.167       10.019        0.029      331.145       -1.029      863.824
01/31/2015  05:16:00      -55.149        5.794      -10.439       21.279       26.369       19.696      452.814      695.338      387.913        0.236        0.077       55.452        9.604        0.030      331.188       -0.958      863.819
01/31/2015  05:17:00      -73.090       22.661      -15.304       13.514       15.683       11.494      182.617      245.949      132.112        0.333        0.028       76.523        4.542        0.004      331.558       -0.349      863.823
01/31/2015  05:18:00      -56.450      -15.113      -16.446       19.657       18.039       10.240      386.403      325.396      104.867        0.225        0.041       58.438       10.907        0.035      331.442       -0.540      863.811
01/31/2015  05:19:00      -37.707      -25.251       -6.182       12.869       10.806        7.592      165.615      116.768       57.636        0.122        0.017       45.381        4.862        0.011      331.343       -0.702      863.797
01/31/2015  05:20:00      -44.844      -14.670       -7.027        8.127        9.886        9.144       66.046       97.725       83.616        0.126        0.012       47.183        7.069        0.022      331.318       -0.743      863.800
01/31/2015  05:21:00      -43.052      -14.692       -9.934       10.341        9.624        8.654      106.942       92.629       74.888        0.122        0.014       45.490        5.458        0.014      331.271       -0.820      863.821
01/31/2015  05:22:00      -49.927      -27.462      -11.741       27.114        8.649        9.470      735.148       74.811       89.682        0.214        0.045       56.981        9.874        0.030      331.248       -0.859      863.843
01/31/2015  05:23:00      -81.563      -23.961      -15.016       11.117       13.437        8.906      123.585      180.560       79.317        0.392        0.019       85.009        3.381        0.002      331.211       -0.920      863.857
01/31/2015  05:24:00      -90.363      -38.298      -13.491       12.916       14.593        8.801      166.827      212.965       77.449        0.514        0.023       98.144        1.807        0.000      331.246       -0.861      863.869
01/31/2015  05:25:00      -82.339      -42.885       -7.773       14.872        7.043        6.107      221.185       49.609       37.299        0.449        0.015       92.838        5.214        0.003      331.284       -0.800      863.871
01/31/2015  05:26:00      -28.841      -20.820        2.109       27.117       18.163       15.388      735.333      329.882      236.792        0.129        0.065       35.571       11.217        0.099      331.297       -0.779      863.875
01/31/2015  05:27:00      -21.938      -27.595        0.190       23.688       11.729       15.770      561.139      137.575      248.682        0.109        0.047       35.253       13.295        0.142      331.433       -0.556      863.881
01/31/2015  05:28:00      -36.585      -11.247       -1.258       11.995       12.235        9.059      143.881      149.695       82.072        0.092        0.019       38.275        6.945        0.033      331.451       -0.527      863.911
01/31/2015  05:29:00      -38.218      -18.240       -5.464       10.713        5.397        5.155      114.766       29.132       26.575        0.100        0.009       42.347        2.025        0.002      331.556       -0.352      863.952
01/31/2015  05:30:00      -59.040      -18.242       -9.598        7.619       10.551        7.843       58.053      111.320       61.510        0.207        0.012       61.794        4.848        0.006      331.502       -0.442      863.983
01/31/2015  05:31:00      -71.321      -19.369      -12.027       10.273        9.910        8.253      105.538       98.201       68.110        0.294        0.014       73.905        3.057        0.002      331.410       -0.594      863.993
01/31/2015  05:32:00      -47.609      -18.699       -2.384       12.762       12.805        7.959      162.871      163.967       63.344        0.151        0.020       51.150        6.146        0.014      331.371       -0.656      863.975
01/31/2015  05:33:00      -22.253      -22.481       -2.979       15.000        8.766        6.618      224.988       76.835       43.801        0.068        0.017       31.633        2.107        0.004      331.514       -0.421      863.955
01/31/2015  05:34:00      -37.545      -20.296       -2.006       13.338        8.856        8.031      177.891       78.435       64.496        0.107        0.016       42.679        5.158        0.015      331.488       -0.464      863.944
01/31/2015  05:35:00      -44.044      -26.223       -2.241       23.178       12.262       10.695      537.198      150.348      114.385        0.172        0.040       51.259       12.088        0.056      331.422       -0.574      863.939
01/31/2015  05:36:00      -50.310      -26.468       -4.618       22.379       13.767       11.110      500.837      189.532      123.422        0.203        0.041       56.847        8.209        0.021      331.306       -0.763      863.956
01/31/2015  05:37:00      -75.002      -40.738       -5.385       21.420       11.232        9.011      458.817      126.148       81.194        0.399        0.033       85.351        9.358        0.012      331.347       -0.697      863.981
01/31/2015  05:38:00      -76.177      -43.091       -2.512       19.660       18.867       15.082      386.499      355.975      227.472        0.432        0.048       87.520       11.049        0.016      331.370       -0.659      864.008
01/31/2015  05:39:00     -105.528      -24.553      -10.484       14.913       15.584       11.511      222.391      242.874      132.505        0.622        0.030      108.347        5.918        0.003      331.397       -0.614      864.048
01/31/2015  05:40:00     -111.348      -24.365       -9.013       23.491       22.719       16.083      551.812      516.172      258.671        0.720        0.066      113.983       13.034        0.013      331.263       -0.834      864.084
01/31/2015  05:41:00      -86.560      -21.562       -4.898       29.842       21.948       16.340      890.524      481.731      267.006        0.481        0.082       89.205       13.782        0.024      331.126       -1.061      864.109
01/31/2015  05:42:00     -115.370      -21.187      -10.931       12.012       13.264       10.385      144.286      175.929      107.856        0.715        0.021      117.299        6.407        0.003      331.111       -1.084      864.117
01/31/2015  05:43:00     -100.763      -30.330       -1.590       23.110       25.020       16.248      534.057      626.022      263.997        0.625        0.071      105.229       13.548        0.017      331.042       -1.199      864.118
01/31/2015  05:44:00     -122.480      -31.928       -6.687       23.840       21.150       15.231      568.368      447.325      231.998        0.866        0.062      126.573       11.043        0.008      331.069       -1.155      864.128
01/31/2015  05:45:00     -136.448      -18.396      -13.461       23.726       19.955       13.571      562.908      398.186      184.181        1.014        0.057      137.682       11.400        0.007      331.012       -1.246      864.150
01/31/2015  05:46:00     -121.499      -16.049       -7.997       17.338       18.177       12.426      300.599      330.410      154.404        0.793        0.039      122.555        8.252        0.005      330.961       -1.331      864.182
01/31/2015  05:47:00     -121.603      -15.168      -13.421       17.271       20.698       13.200      298.277      428.391      174.238        0.805        0.045      122.545        9.512        0.006      331.018       -1.237      864.214
01/31/2015  05:48:00     -111.314      -32.971      -10.628       23.130       19.822       15.438      534.984      392.914      238.343        0.738        0.058      116.095       12.178        0.011      330.939       -1.367      864.231
01/31/2015  05:49:00     -110.443      -16.273       -4.994       26.356       26.672       17.023      694.625      711.377      289.776        0.709        0.085      111.636       11.941        0.011      330.912       -1.411      864.238
01/31/2015  05:50:00     -129.107      -17.395      -12.208       37.352       25.586       19.625     1395.186      654.645      385.124        0.978        0.122      130.273       20.876        0.026      330.859       -1.499      864.243
01/31/2015  05:51:00      -61.909      -16.829       -0.230       36.033       26.499       19.853     1298.360      702.181      394.149        0.325        0.120       64.156       17.746        0.077      330.830       -1.545      864.232
01/31/2015  05:52:00     -125.597      -14.599       -5.887       39.580       25.576       24.095     1566.584      654.148      580.580        0.941        0.140      126.443       24.039        0.036      330.912       -1.412      864.224
01/31/2015  05:53:00     -129.108       -6.575       -4.247       33.754       21.715       20.173     1139.311      471.556      406.963        0.937        0.101      129.276       19.890        0.024      330.965       -1.324      864.210
01/31/2015  05:54:00     -105.987      -23.187       -1.784       37.819       23.431       18.571     1430.259      549.018      344.865        0.705        0.116      108.494       20.419        0.035      330.970       -1.317      864.203
01/31/2015  05:55:00      -69.495      -14.685        0.575       33.969       22.095       14.763     1153.915      488.182      217.939        0.345        0.093       71.030       15.484        0.048      330.991       -1.283      864.198
01/31/2015  05:56:00      -62.401      -20.690        4.439       28.616       19.825       15.839      818.851      393.044      250.865        0.290        0.073       65.741       14.402        0.048      331.034       -1.212      864.192
01/31/2015  05:57:00      -80.921      -26.480       -5.828       16.766       14.647       11.598      281.109      214.533      134.517        0.396        0.032       85.143        7.338        0.007      331.080       -1.136      864.203
01/31/2015  05:58:00      -98.898      -22.513       -4.286       14.635       15.587       10.011      214.195      242.948      100.213        0.543        0.028      101.428        8.687        0.007      331.109       -1.088      864.209
01/31/2015  05:59:00     -102.984      -22.406       -7.778       18.264       14.655       10.719      333.579      214.772      114.890        0.592        0.033      105.393        8.560        0.007      331.121       -1.068      864.225
01/31/2015  06:00:00      -70.156       -3.352       -2.521       40.811       17.256       14.834     1665.574      297.760      220.062        0.356        0.109       70.236       13.688        0.038      331.166       -0.994      864.241
01/31/2015  06:01:00      -73.310       -5.833       -4.924       18.702       23.857       14.496      349.768      569.167      210.141        0.328        0.056       73.541       11.057        0.023      331.115       -1.079      864.248
01/31/2015  06:02:00      -51.333        5.651       -3.227       25.240       21.074       15.735      637.065      444.108      247.595        0.200        0.066       51.643       11.186        0.047      331.157       -1.009      864.262
01/31/2015  06:03:00      -49.624       -5.193      -10.653       16.437       27.777       11.068      270.182      771.562      122.501        0.188        0.058       49.895       10.171        0.042      331.160       -1.006      864.261
01/31/2015  06:04:00      -34.587       -1.354       -7.239       18.237       28.054       12.497      332.575      787.047      156.183        0.126        0.064       34.614        5.794        0.028      331.178       -0.976      864.252
01/31/2015  06:05:00      -11.376       -8.060        3.490       17.947       19.483       15.137      322.107      379.574      229.139        0.057        0.047       13.942       13.764        0.975      331.189       -0.957      864.234
01/31/2015  06:06:00      -35.764      -21.898       -6.606       12.521       16.409       10.850      156.767      269.253      117.720        0.117        0.027       41.935        6.397        0.023      331.086       -1.127      864.204
01/31/2015  06:07:00      -41.505      -33.189       -5.216       21.428       14.773       13.695      459.145      218.243      187.563        0.186        0.043       53.143        5.240        0.010      331.044       -1.196      864.180
01/31/2015  06:08:00      -26.547      -28.393      -12.545       20.062       11.332       10.066      402.483      128.418      101.318        0.115        0.032       38.870        8.136        0.044      331.107       -1.090      864.173
01/31/2015  06:09:00      -26.984      -13.875       -1.874       20.974       10.036       10.880      439.902      100.720      118.379        0.079        0.033       30.343        9.716        0.103      331.067       -1.159      864.175
01/31/2015  06:10:00      -36.177       -3.647       -3.025       10.017       11.764        7.629      100.344      138.387       58.197        0.081        0.015       36.360        6.879        0.036      331.384       -0.636      864.177
01/31/2015  06:11:00      -35.843      -13.403       -5.049        9.337       11.344        8.221       87.180      128.692       67.582        0.089        0.014       38.267        4.176        0.012      331.206       -0.929      864.178
01/31/2015  06:12:00      -24.345      -19.003       -9.344       11.629        9.444        8.866      135.241       89.180       78.597        0.067        0.015       30.884        5.653        0.033      331.203       -0.934      864.181
01/31/2015  06:13:00      -23.037      -14.784       -7.082       11.112        7.035        4.754      123.481       49.490       22.599        0.050        0.010       27.373        4.268        0.024      331.346       -0.699      864.182
01/31/2015  06:14:00      -48.130      -32.292       -7.133       14.610       10.480        8.140      213.456      109.824       66.256        0.190        0.019       57.959        3.701        0.004      331.185       -0.963      864.186
01/31/2015  06:15:00      -72.403      -33.260       -8.934       10.475        8.905        7.606      109.728       79.294       57.846        0.334        0.012       79.677        3.829        0.002      331.024       -1.229      864.184
01/31/2015  06:16:00      -92.952      -23.275      -11.483       15.829       12.616        8.383      250.549      159.176       70.279        0.490        0.024       95.821        4.183        0.002      331.024       -1.228      864.176
01/31/2015  06:17:00      -85.771      -28.659      -10.557        8.042        8.939        6.735       64.669       79.903       45.360        0.424        0.009       90.432        3.059        0.001      331.151       -1.017      864.174
01/31/2015  06:18:00      -79.905      -24.360      -12.452        9.927       11.480        8.397       98.544      131.783       70.506        0.372        0.015       83.535        4.407        0.003      331.167       -0.994      864.178
01/31/2015  06:19:00      -98.365      -20.438      -12.532       15.554       11.215        8.851      241.922      125.775       78.335        0.535        0.022      100.466        4.887        0.002      331.193       -0.949      864.178
01/31/2015  06:20:00      -96.536      -24.800      -10.761        9.260       11.255        7.585       85.749      126.683       57.537        0.516        0.013       99.670        4.448        0.002      331.211       -0.921      864.180
01/31/2015  06:21:00     -105.317      -37.248       -9.725       11.335       12.009        8.663      128.477      144.214       75.052        0.646        0.017      111.710        4.612        0.002      331.232       -0.885      864.170
01/31/2015  06:22:00      -82.631      -25.919       -2.953       10.069       14.158        8.901      101.376      200.458       79.224        0.394        0.019       86.600        5.148        0.004      331.168       -0.990      864.170
01/31/2015  06:23:00      -66.784      -25.241       -2.842       16.968       15.468       11.855      287.922      239.253      140.532        0.289        0.033       71.395       10.539        0.022      331.059       -1.170      864.164
01/31/2015  06:24:00      -61.918      -30.411        1.297       20.617       15.088       11.270      425.058      227.650      127.010        0.277        0.039       68.983        9.187        0.018      330.990       -1.284      864.159
01/31/2015  06:25:00      -41.964      -24.806        0.963       22.565       15.253        9.236      509.183      232.664       85.306        0.160        0.041       48.747        6.700        0.019      330.971       -1.313      864.145
01/31/2015  06:26:00      -56.617      -21.954       -4.693       19.461       13.929        9.763      378.749      194.026       95.323        0.219        0.033       60.724        6.489        0.011      330.969       -1.318      864.135
01/31/2015  06:27:00      -67.492      -42.192       -5.609       12.074       19.305       10.104      145.791      372.688      102.088        0.349        0.031       79.595        5.912        0.006      330.978       -1.302      864.129
01/31/2015  06:28:00      -40.632      -34.344        5.011       29.783       17.515       15.426      887.030      306.758      237.968        0.214        0.072       53.202       16.431        0.095      330.957       -1.337      864.125
01/31/2015  06:29:00      -55.101      -31.837        3.969       24.659       17.722       12.776      608.077      314.058      163.236        0.258        0.054       63.638        9.567        0.023      330.991       -1.281      864.132
01/31/2015  06:30:00      -28.823      -19.879        4.667       32.494       15.785       12.450     1055.844      249.162      155.014        0.135        0.073       35.014       18.077        0.267      330.992       -1.282      864.147
01/31/2015  06:31:00        7.874      -21.036        5.043        9.911       13.244        8.712       98.221      175.415       75.892        0.044        0.017       22.462        3.735        0.028      331.047       -1.190      864.166
01/31/2015  06:32:00      -18.484       -5.814       -3.650       15.447        5.470        5.860      238.598       29.919       34.344        0.035        0.015       19.377        6.634        0.117      331.007       -1.260      864.171
01/31/2015  06:33:00      -28.035       -0.903       -2.327        4.998        6.267        4.227       24.983       39.270       17.871        0.044        0.004       28.049        2.298        0.007      330.961       -1.331      864.183
01/31/2015  06:34:00      -44.538      -14.442       -1.542       13.976        9.034        6.008      195.327       81.620       36.097        0.125        0.016       46.821        5.645        0.015      330.984       -1.294      864.184
01/31/2015  06:35:00      -58.403      -27.349       -2.251       22.042       15.258        7.296      485.840      232.809       53.230        0.247        0.039       64.489        7.791        0.015      330.929       -1.383      864.172
01/31/2015  06:36:00      -61.926      -26.799       -2.104       41.427       17.158       12.240     1716.229      294.404      149.814        0.336        0.108       67.476       13.551        0.040      330.847       -1.518      864.170
01/31/2015  06:37:00      -81.816      -14.316       -7.133       21.715       13.289       10.328      471.533      176.585      106.674        0.385        0.038       83.060        6.590        0.006      330.761       -1.659      864.163
01/31/2015  06:38:00      -58.140        5.855       -5.535       19.327       22.031       12.228      373.521      485.375      149.533        0.223        0.050       58.434        9.228        0.025      330.718       -1.731      864.149
01/31/2015  06:39:00      -53.584        1.170       -5.148       20.204       17.109        9.371      408.219      292.712       87.814        0.184        0.039       53.597        6.699        0.016      330.730       -1.710      864.124
01/31/2015  06:40:00      -62.885      -13.483       -4.734       19.700       16.716       15.176      388.107      279.424      230.323        0.253        0.045       64.314       14.371        0.050      330.725       -1.718      864.103
01/31/2015  06:41:00      -71.378      -32.896       -4.672       16.718       14.098        9.574      279.495      198.762       91.655        0.338        0.028       78.593        8.955        0.013      330.736       -1.701      864.075
01/31/2015  06:42:00      -65.611      -31.367        1.684       24.737       18.631       15.833      611.909      347.106      250.690        0.325        0.060       72.724       15.812        0.047      330.669       -1.810      864.073
01/31/2015  06:43:00      -97.855      -36.198      -15.068       18.655       14.841        9.221      347.998      220.251       85.022        0.588        0.033      104.335        8.556        0.007      330.647       -1.847      864.080
01/31/2015  06:44:00      -94.323      -37.508       -8.217       25.806       17.071       12.742      665.946      291.413      162.358        0.575        0.056      101.507        5.001        0.002      330.593       -1.933      864.085
01/31/2015  06:45:00      -96.125      -37.243       -8.382       18.857       13.736        9.937      355.575      188.677       98.740        0.567        0.032      103.088        5.786        0.003      330.555       -1.995      864.086
01/31/2015  06:46:00      -92.648      -20.354       -0.820       23.146       24.453       11.414      535.755      597.950      130.277        0.513        0.063       94.858        6.337        0.004      330.531       -2.037      864.096
01/31/2015  06:47:00      -93.779       -5.492      -10.019       33.643       20.469       13.867     1131.860      418.985      192.289        0.533        0.087       93.940       12.023        0.016      330.518       -2.057      864.115
01/31/2015  06:48:00      -58.062        3.763      -10.471       16.073       29.388       13.431      258.333      863.673      180.385        0.240        0.065       58.183       10.294        0.031      330.586       -1.946      864.140
01/31/2015  06:49:00      -61.202       41.820      -10.500       22.807       28.950       17.250      520.141      838.104      297.561        0.363        0.083       74.126       11.915        0.026      330.726       -1.717      864.194
01/31/2015  06:50:00      -75.065       49.704      -21.269       16.826       24.820       11.226      283.131      616.034      126.012        0.479        0.051       90.029        7.016        0.006      330.707       -1.747      864.254
01/31/2015  06:51:00      -51.242        9.567       -6.112       14.907       22.216       12.556      222.215      493.537      157.647        0.181        0.044       52.128        8.389        0.026      330.615       -1.899      864.305
01/31/2015  06:52:00      -68.235      -17.584       -8.331       24.242       20.957       16.478      587.652      439.177      271.520        0.317        0.065       70.464       12.845        0.033      330.494       -2.098      864.325
01/31/2015  06:53:00      -71.372      -25.357      -14.371       15.315       18.148       13.564      234.561      329.350      183.995        0.335        0.037       75.742        9.877        0.017      330.524       -2.048      864.341
01/31/2015  06:54:00      -53.238       11.374       -8.808       17.694       22.077       10.433      313.074      487.415      108.855        0.198        0.045       54.439        7.437        0.019      330.607       -1.910      864.348
01/31/2015  06:55:00      -77.206      -19.526       -9.331       20.311       17.078       12.768      412.527      291.668      163.021        0.365        0.043       79.637       11.144        0.020      330.534       -2.032      864.360
01/31/2015  06:56:00      -78.473      -24.704      -12.766       24.244       18.517       11.204      587.781      342.891      125.535        0.399        0.053       82.269        6.744        0.007      330.370       -2.300      864.380
01/31/2015  06:57:00      -74.189      -24.545        1.453       26.468       23.672       17.058      700.543      560.349      290.972        0.383        0.078       78.144       13.714        0.031      330.308       -2.402      864.390
01/31/2015  06:58:00      -93.811       -3.694       -9.826       19.293       23.412       13.444      372.206      548.108      180.747        0.501        0.055       93.884        9.521        0.010      330.299       -2.416      864.398
01/31/2015  06:59:00      -68.210      -24.875       -7.108       19.088       20.963       11.181      364.354      439.454      125.017        0.313        0.046       72.604        9.867        0.018      330.442       -2.182      864.405
01/31/2015  07:00:00      -47.641      -37.446       -8.782       13.337       10.324       10.112      177.889      106.590      102.252        0.207        0.019       60.596        4.569        0.006      330.548       -2.009      864.419
01/31/2015  07:01:00      -70.371      -22.272       -7.857       12.180       14.030        7.467      148.352      196.847       55.759        0.296        0.020       73.811        3.242        0.002      330.622       -1.888      864.428
01/31/2015  07:02:00      -51.073       -3.006       -5.239       15.512        9.321        9.280      240.621       86.886       86.123        0.153        0.021       51.161        7.113        0.019      330.626       -1.880      864.460
01/31/2015  07:03:00      -42.785       -0.334       -4.047       18.671        7.227        8.460      348.611       52.234       71.569        0.116        0.024       42.786        4.890        0.013      330.621       -1.888      864.495
01/31/2015  07:04:00      -56.772       13.406      -12.537       10.759       11.399        8.872      115.764      129.932       78.716        0.194        0.016       58.333        5.410        0.009      330.642       -1.855      864.531
01/31/2015  07:05:00      -43.488       -6.421       -3.430       14.983        8.781        9.765      224.482       77.107       95.364        0.117        0.020       43.959        9.451        0.046      330.642       -1.855      864.560
01/31/2015  07:06:00      -23.288      -17.855      -10.554       10.055       12.500       10.282      101.095      156.262      105.713        0.067        0.018       29.345        8.129        0.077      330.802       -1.592      864.576
01/31/2015  07:07:00       -8.222       -4.430        5.482       14.998       18.111       14.477      224.931      328.001      209.592        0.044        0.038        9.340       14.438        2.390      330.911       -1.413      864.589
01/31/2015  07:08:00      -25.151       -2.604       -5.165       15.852       11.803        7.560      251.294      139.317       57.153        0.056        0.022       25.286        7.538        0.089      330.946       -1.354      864.604
01/31/2015  07:09:00      -27.545      -20.973       -5.140       23.405       14.647       13.524      547.807      214.529      182.904        0.108        0.047       34.621        8.449        0.060      330.844       -1.522      864.609
01/31/2015  07:10:00      -47.729      -21.629      -11.104       14.240       14.655        9.868      202.791      214.763       97.376        0.169        0.026       52.401        2.622        0.003      330.666       -1.816      864.612
01/31/2015  07:11:00      -24.690      -16.900       -0.621       18.078       10.870        8.569      326.803      118.162       73.420        0.071        0.026       29.920        5.292        0.031      330.628       -1.877      864.622
01/31/2015  07:12:00      -67.926      -21.028      -17.151       11.642       11.609        8.312      135.534      134.767       69.090        0.284        0.017       71.106        6.724        0.009      330.589       -1.940      864.634
01/31/2015  07:13:00      -79.100       -5.580      -13.049       17.707       13.748       11.843      313.531      189.018      140.247        0.355        0.032       79.296        6.950        0.008      330.579       -1.957      864.662
01/31/2015  07:14:00      -60.523      -16.305      -13.512       13.033       11.194        6.829      169.872      125.308       46.642        0.223        0.017       62.681        7.885        0.016      330.687       -1.781      864.687
01/31/2015  07:15:00      -41.774      -17.475       -5.024       13.995       11.968       10.518      195.850      143.233      110.636        0.126        0.022       45.282        5.649        0.016      330.664       -1.819      864.707
01/31/2015  07:16:00      -20.048      -20.163      -11.546        8.969       12.372        7.656       80.443      153.061       58.607        0.062        0.015       28.433        4.795        0.028      330.811       -1.577      864.727
01/31/2015  07:17:00      -16.770        9.416       -8.894       14.067       36.387        9.387      197.881     1324.004       88.123        0.103        0.081       19.233       12.974        0.455      331.017       -1.239      864.747
01/31/2015  07:18:00      -39.601       14.013       -6.785       15.753       31.678       12.822      248.161     1003.511      164.413        0.161        0.071       42.007       12.313        0.086      331.087       -1.125      864.760
01/31/2015  07:19:00      -59.122      -26.745      -13.651       14.050       12.007        8.075      197.415      144.172       65.207        0.240        0.020       64.890        5.875        0.008      330.789       -1.613      864.762
01/31/2015  07:20:00      -44.093      -27.649      -11.793       25.005       10.666       12.464      625.264      113.774      155.351        0.187        0.045       52.044        8.799        0.029      330.751       -1.676      864.757
01/31/2015  07:21:00      -76.900       -5.055      -10.170       19.557       14.588       13.335      382.460      212.814      177.835        0.341        0.039       77.066        6.914        0.008      330.693       -1.770      864.760
01/31/2015  07:22:00      -62.893      -25.465      -15.855       16.572       15.687        9.107      274.637      246.090       82.933        0.273        0.030       67.853        3.319        0.002      330.571       -1.971      864.770
01/31/2015  07:23:00      -38.520      -30.745       -3.781       22.285       16.577       20.251      496.609      274.802      410.118        0.181        0.059       49.285        9.153        0.034      330.612       -1.904      864.775
01/31/2015  07:24:00      -72.024      -26.030       -9.499       28.169       15.171       17.194      793.497      230.147      295.619        0.364        0.066       76.583       16.882        0.049      330.608       -1.911      864.771
01/31/2015  07:25:00      -83.015      -20.216      -13.225       15.521       14.123       12.181      240.888      199.446      148.382        0.403        0.029       85.441        7.675        0.008      330.659       -1.826      864.767
01/31/2015  07:26:00      -60.400      -19.913       -8.588       16.424       15.005       10.335      269.761      225.162      106.817        0.236        0.030       63.598        8.618        0.018      330.723       -1.720      864.774
01/31/2015  07:27:00      -39.094      -31.830      -12.847       10.712       11.275        9.755      114.739      127.121       95.163        0.152        0.017       50.413        7.796        0.024      330.895       -1.438      864.781
01/31/2015  07:28:00      -12.605      -19.017       -3.436       11.441       10.012        7.088      130.893      100.243       50.241        0.041        0.014       22.815        6.093        0.071      331.037       -1.206      864.800
01/31/2015  07:29:00      -29.916      -24.033        6.119       13.821       13.477       14.923      191.026      181.620      222.693        0.105        0.030       38.374        8.575        0.050      331.123       -1.066      864.816
01/31/2015  07:30:00      -49.626       -4.252        3.249       10.281       16.215       10.861      105.690      262.915      117.953        0.149        0.024       49.808        6.708        0.018      331.078       -1.139      864.845
01/31/2015  07:31:00       -3.969        5.766        4.537       12.735        8.308        9.553      162.193       69.016       91.261        0.020        0.016        7.000        8.324        1.414      331.263       -0.835      864.875
01/31/2015  07:32:00      -43.340       -4.185       -2.906       23.560       13.522        9.170      555.059      182.843       84.095        0.136        0.041       43.542       12.315        0.080      331.136       -1.043      864.915
01/31/2015  07:33:00      -88.681        3.272      -12.238       16.779       10.576        9.187      281.546      111.843       84.401        0.425        0.024       88.741        5.494        0.004      331.082       -1.133      864.963
01/31/2015  07:34:00     -107.765        9.438      -14.246       19.100       11.844        9.496      364.822      140.276       90.175        0.625        0.030      108.177        3.429        0.001      331.091       -1.118      865.002
01/31/2015  07:35:00      -93.228       11.627      -12.745       40.404       24.827       16.643     1632.477      616.384      276.979        0.576        0.126       93.950       19.312        0.042      331.038       -1.204      865.038
01/31/2015  07:36:00      -44.781      -11.798       -0.151       23.590       21.024       17.739      556.502      442.014      314.675        0.173        0.066       46.309       15.840        0.117      330.991       -1.281      865.063
01/31/2015  07:37:00      -26.393        0.909       -7.213       19.414       15.565       16.184      376.895      242.284      261.933        0.082        0.044       26.409        7.265        0.076      331.158       -1.009      865.066
01/31/2015  07:38:00      -38.642      -24.996       -8.500       14.424       11.613        8.039      208.051      134.871       64.626        0.130        0.020       46.022        3.181        0.005      331.148       -1.024      865.073
01/31/2015  07:39:00      -55.275      -16.955       -5.704       10.126       13.666        7.431      102.540      186.772       55.213        0.186        0.017       57.817        6.286        0.012      331.170       -0.987      865.095
01/31/2015  07:40:00      -32.927      -10.936      -10.566       13.286        9.063        8.612      176.515       82.136       74.164        0.082        0.017       34.696        4.763        0.019      331.305       -0.766      865.112
01/31/2015  07:41:00      -40.873      -22.747      -11.465       12.529        7.171        7.239      156.974       51.420       52.405        0.129        0.013       46.776        4.812        0.011      331.259       -0.841      865.146
01/31/2015  07:42:00      -45.819      -37.992      -13.700       18.635       15.248       10.455      347.251      232.509      109.312        0.221        0.034       59.521        6.002        0.010      331.198       -0.943      865.183
01/31/2015  07:43:00      -44.364      -29.490        3.218       47.992       18.624       20.204     2303.236      346.837      408.193        0.295        0.153       53.271       26.982        0.257      331.154       -1.014      865.208
01/31/2015  07:44:00     -107.945      -18.216      -11.105       27.397       16.780       17.870      750.617      281.573      319.335        0.673        0.068      109.472       18.364        0.028      331.060       -1.169      865.258
01/31/2015  07:45:00      -76.893      -19.736       -8.513       27.289       20.350       14.852      744.673      414.122      220.576        0.388        0.069       79.386       13.172        0.028      331.054       -1.179      865.272
01/31/2015  07:46:00      -42.186       -5.157       -7.571       18.398       14.705       11.873      338.479      216.223      140.980        0.128        0.035       42.500        6.005        0.020      331.173       -0.982      865.296
01/31/2015  07:47:00      -58.384      -18.966       -7.749       18.168       14.563       10.531      330.062      212.081      110.911        0.224        0.033       61.387       10.114        0.027      331.230       -0.888      865.311
01/31/2015  07:48:00      -59.934      -29.488       -5.558       13.326       12.418        8.042      177.591      154.200       64.681        0.244        0.020       66.796        5.688        0.007      331.250       -0.855      865.320
01/31/2015  07:49:00      -70.047      -21.791       -8.339       12.386       15.800        9.142      153.407      249.656       83.578        0.297        0.024       73.358        4.510        0.004      331.267       -0.828      865.332
01/31/2015  07:50:00      -69.343      -24.847      -12.311        9.607       10.931        7.680       92.285      119.493       58.978        0.292        0.014       73.660        4.668        0.004      331.335       -0.716      865.336
01/31/2015  07:51:00      -70.274      -22.321      -11.918        7.270        8.525        7.001       52.853       72.667       49.012        0.288        0.009       73.733        2.691        0.001      331.360       -0.675      865.354
01/31/2015  07:52:00      -40.764      -12.363       -2.163       16.407       18.198        9.510      269.184      331.177       90.439        0.125        0.035       42.597        6.491        0.023      331.373       -0.654      865.370
01/31/2015  07:53:00      -40.261      -17.329       -3.144       17.509       18.174       10.362      306.582      330.299      107.372        0.134        0.037       43.832        9.103        0.043      331.453       -0.522      865.388
01/31/2015  07:54:00      -39.212      -21.600       -2.386       12.745       11.366        6.314      162.441      129.177       39.865        0.117        0.017       44.768        5.318        0.014      331.417       -0.583      865.398
01/31/2015  07:55:00      -59.963      -22.704       -5.081        7.888        4.725        4.128       62.220       22.327       17.041        0.212        0.005       64.118        1.093        0.000      331.446       -0.533      865.401
01/31/2015  07:56:00      -49.137      -19.983       -7.217        7.261        7.899        6.476       52.728       62.391       41.934        0.151        0.008       53.044        3.243        0.004      331.455       -0.520      865.408
01/31/2015  07:57:00      -40.131      -19.305       -5.631       11.023        9.240        5.691      121.513       85.382       32.382        0.113        0.012       44.533        4.126        0.009      331.503       -0.442      865.415
01/31/2015  07:58:00      -20.734      -13.402       -2.825        8.881        5.595        4.690       78.864       31.305       22.001        0.037        0.007       24.689        4.075        0.027      331.544       -0.372      865.412
01/31/2015  07:59:00      -24.161      -21.667        0.710       14.999       11.299        8.031      224.961      127.662       64.489        0.074        0.021       32.453        4.349        0.018      331.663       -0.175      865.417
01/31/2015  08:00:00      -24.284      -42.767       -0.692       15.468       18.983       14.896      239.266      360.366      221.882        0.162        0.041       49.181        9.417        0.037      331.735       -0.057      865.435
01/31/2015  08:01:00      -42.766      -31.068       -3.999       21.597       24.365       12.250      466.434      593.643      150.060        0.201        0.061       52.860       11.197        0.045      331.634       -0.225      865.455
01/31/2015  08:02:00      -39.744       -2.221      -10.705        9.780        8.596        5.922       95.642       73.888       35.076        0.095        0.010       39.806        3.365        0.007      331.590       -0.295      865.473
01/31/2015  08:03:00      -36.246      -40.070       10.989       27.577       25.652       21.530      760.498      658.048      463.530        0.246        0.094       54.031       17.056        0.100      331.574       -0.324      865.487
01/31/2015  08:04:00      -38.547      -31.525       -6.042       18.895       16.004       12.566      357.034      256.143      157.895        0.164        0.039       49.797        3.834        0.006      331.525       -0.404      865.487
01/31/2015  08:05:00      -24.461      -32.898      -10.401       31.994       24.045       16.597     1023.594      578.173      275.469        0.183        0.094       40.995        9.430        0.053      331.608       -0.268      865.479
01/31/2015  08:06:00      -21.630      -16.790       -7.545       26.672       24.960       13.984      711.397      623.014      195.544        0.117        0.076       27.382        7.226        0.070      331.607       -0.269      865.479
01/31/2015  08:07:00       -5.232      -19.181       -8.057       16.549       27.124       13.606      273.854      735.685      185.121        0.083        0.060       19.881       11.759        0.350      331.649       -0.198      865.488
01/31/2015  08:08:00      -32.685      -29.743      -13.105       27.572       31.303       18.094      760.203      979.852      327.391        0.210        0.103       44.192       14.702        0.111      331.617       -0.253      865.477
01/31/2015  08:09:00       -9.684      -37.583       -8.926       22.099       26.516       27.591      488.360      703.116      761.263        0.177        0.098       38.811       18.520        0.228      331.720       -0.083      865.468
01/31/2015  08:10:00      -14.902       -4.653       -9.396       17.024       15.629       12.326      289.811      244.269      151.932        0.051        0.034       15.612        7.490        0.230      331.810        0.066      865.456
01/31/2015  08:11:00       -1.148      -10.007       -4.131       11.268       15.543       14.456      126.973      241.590      208.973        0.035        0.029       10.073       12.045        1.430      331.969        0.327      865.452
01/31/2015  08:12:00      -21.774      -16.333       -8.759       25.558       17.524       16.790      653.198      307.075      281.919        0.103        0.062       27.219       14.013        0.265      331.726       -0.073      865.457
01/31/2015  08:13:00      -19.244        7.915       16.225       22.781       17.117       19.216      518.952      292.989      369.246        0.094        0.059       20.808        6.913        0.110      332.020        0.411      865.471
01/31/2015  08:14:00      -15.296        0.524       23.507       13.397       20.125       22.811      179.490      405.020      520.332        0.095        0.055       15.305       19.154        1.566      332.212        0.727      865.482
01/31/2015  08:15:00      -21.654        5.886       22.489       17.499       14.798       14.775      306.203      218.974      218.294        0.088        0.037       22.440       10.355        0.213      332.163        0.648      865.477
01/31/2015  08:16:00       10.635      -11.936       13.127       55.558       56.770       36.551     3086.660     3222.862     1335.978        0.404        0.382       15.987       45.222        8.002      332.169        0.658      865.464
01/31/2015  08:17:00       67.341      -76.555      -21.115       53.392       52.709       35.615     2850.674     2778.189     1268.411        0.887        0.345      101.958       31.619        0.096      332.055        0.468      865.463
01/31/2015  08:18:00        3.735       12.685       44.892       21.703       32.965       24.301      471.019     1086.675      590.539        0.217        0.107       13.223       23.978        3.288      332.387        1.018      865.464
01/31/2015  08:19:00       11.962      -28.134       20.747       33.984       52.869       31.687     1154.884     2795.130     1004.089        0.316        0.248       30.572       29.395        0.924      332.254        0.798      865.478
01/31/2015  08:20:00       12.710      -12.683       22.556       30.595       34.548       31.740      936.079     1193.576     1007.420        0.198        0.157       17.956       22.708        1.599      332.380        1.006      865.493
01/31/2015  08:21:00       16.419      -12.463       24.776       24.109       34.325       23.062      581.236     1178.221      531.868        0.166        0.115       20.613       14.871        0.520      332.280        0.841      865.505
01/31/2015  08:22:00       -3.448        8.962       33.710       13.495       23.265       11.833      182.103      541.275      140.023        0.105        0.043        9.603        6.177        0.414      332.476        1.165      865.537
01/31/2015  08:23:00       39.780       41.035       11.417       36.336       29.134       23.250     1320.323      848.766      540.547        0.305        0.135       57.152       23.132        0.164      332.097        0.538      865.584
01/31/2015  08:24:00       57.108       50.047        4.305       30.249       20.497       22.646      914.987      420.131      512.826        0.382        0.092       75.934       13.619        0.032      331.991        0.364      865.629
01/31/2015  08:25:00       11.801       68.777       -5.031       20.905       26.949       18.572      437.000      726.264      344.901        0.320        0.075       69.782       12.815        0.034      332.144        0.616      865.655
01/31/2015  08:26:00       19.215       21.495        8.831       19.562       21.275       19.178      382.687      452.615      367.784        0.106        0.060       28.831       12.929        0.201      332.348        0.951      865.679
01/31/2015  08:27:00       31.103       40.347        1.439       19.732       21.825       21.401      389.347      476.341      458.000        0.196        0.066       50.944       15.415        0.092      332.280        0.840      865.701
01/31/2015  08:28:00       70.852       59.025       -4.512       28.021       23.249       24.180      785.156      540.502      584.691        0.522        0.096       92.217       12.599        0.019      332.173        0.664      865.731
01/31/2015  08:29:00       84.932       55.499       -0.670       21.188       17.345       20.919      448.938      300.864      437.596        0.574        0.059      101.457        7.489        0.005      331.937        0.274      865.761
01/31/2015  08:30:00       65.259       35.690       -4.497       19.655       17.094       15.673      386.333      292.215      245.656        0.324        0.046       74.381        7.238        0.009      332.008        0.392      865.786
01/31/2015  08:31:00       79.665       39.821       -1.578       25.597       18.385       22.214      655.201      338.007      493.447        0.471        0.074       89.063       11.691        0.017      332.002        0.382      865.820
01/31/2015  08:32:00       77.611       49.408        4.311       31.198       26.440       27.179      973.324      699.063      738.684        0.545        0.121       92.004       22.399        0.059      331.977        0.341      865.848
01/31/2015  08:33:00       58.202       43.421       -2.034       22.067       17.747       19.014      486.964      314.958      361.543        0.322        0.058       72.615       14.337        0.039      332.172        0.661      865.862
01/31/2015  08:34:00       32.193       37.544        4.459       26.023       27.987       18.688      677.213      783.289      349.229        0.214        0.090       49.456       13.674        0.076      332.307        0.884      865.857
01/31/2015  08:35:00       55.706       23.762       21.841       21.378       24.120       25.249      457.005      581.764      637.521        0.291        0.084       60.562       13.632        0.051      332.191        0.694      865.851
01/31/2015  08:36:00       39.171       32.725        9.958       27.550       24.616       21.751      759.010      605.926      473.122        0.227        0.092       51.042       14.310        0.079      332.275        0.831      865.853
01/31/2015  08:37:00       -1.803       87.894      -25.976       20.280       41.455       17.552      411.282     1718.527      308.078        0.542        0.122       87.913        5.551        0.004      332.145        0.617      865.868
01/31/2015  08:38:00       20.759       50.138        8.846       27.307       27.215       22.432      745.670      740.667      503.180        0.251        0.099       54.266       12.590        0.054      332.495        1.195      865.887
01/31/2015  08:39:00       -6.247       23.865       41.385       10.863       29.202       20.748      118.006      852.746      430.496        0.186        0.070       24.669       17.251        0.489      332.777        1.660      865.897
01/31/2015  08:40:00       64.487       42.900       12.141       35.435       27.930       21.585     1255.650      780.110      465.898        0.432        0.125       77.453       12.783        0.027      332.479        1.168      865.894
01/31/2015  08:41:00       96.524       55.129       13.273       32.030       22.480       28.377     1025.910      505.348      805.249        0.743        0.117      111.158        9.836        0.008      332.356        0.964      865.884
01/31/2015  08:42:00       60.018       57.184       17.282       24.948       29.137       23.120      622.401      848.983      534.524        0.459        0.100       82.898       21.278        0.066      332.316        0.899      865.878
01/31/2015  08:43:00       45.750       56.173       27.337       22.309       27.242       25.406      497.707      742.152      645.468        0.394        0.094       72.446       19.208        0.070      332.591        1.353      865.866
01/31/2015  08:44:00        6.795       26.502       45.148       24.261       29.617       21.481      588.583      877.187      461.442        0.236        0.096       27.359        8.613        0.099      332.869        1.812      865.856
01/31/2015  08:45:00        5.393       52.687       69.915       22.803       33.988       21.388      519.982     1155.195      457.453        0.491        0.107       52.962       21.045        0.158      332.693        1.521      865.861
01/31/2015  08:46:00        8.459       74.557       94.240       35.762       41.932       28.769     1278.908     1758.266      827.672        0.919        0.193       75.035       28.940        0.149      332.639        1.433      865.880
01/31/2015  08:47:00       90.733       71.537       70.547       59.749       35.246       42.200     3569.928     1242.292     1780.836        1.246        0.330      115.542       38.320        0.110      332.345        0.948      865.902
01/31/2015  08:48:00       87.462       54.105       44.608       39.804       29.635       33.130     1584.330      878.252     1097.572        0.806        0.178      102.844       22.088        0.046      332.328        0.920      865.909
01/31/2015  08:49:00       41.972       78.411       74.240       39.113       35.807       29.832     1529.788     1282.165      889.939        0.856        0.185       88.938       23.585        0.070      332.326        0.916      865.906
01/31/2015  08:50:00        9.530       24.498       52.638       30.174       40.483       28.709      910.457     1638.857      824.194        0.342        0.169       26.287       28.508        1.176      332.674        1.491      865.922
01/31/2015  08:51:00        7.321       -8.277       23.890       22.140       24.114       25.489      490.176      581.465      649.704        0.121        0.086       11.050       16.540        2.240      332.844        1.771      865.958
01/31/2015  08:52:00       27.190      -11.428       43.131       27.909       32.739       21.488      778.910     1071.823      461.734        0.252        0.116       29.494       10.876        0.136      332.962        1.966      865.991
01/31/2015  08:53:00       61.890      -74.548       -6.954       25.678       30.014       23.140      659.351      900.814      535.458        0.577        0.105       96.890       17.345        0.032      332.468        1.150      866.011
01/31/2015  08:54:00       18.127       -1.099       24.132       29.698       22.389       27.234      881.970      501.254      741.678        0.152        0.106       18.160       22.402        1.522      333.087        2.173      866.023
01/31/2015  08:55:00       16.448       30.626       46.158       20.711       19.821       11.900      428.956      392.881      141.616        0.215        0.048       34.763       10.212        0.086      332.930        1.913      866.039
01/31/2015  08:56:00       47.829       38.952       44.541       28.949       34.696       29.886      838.025     1203.807      893.185        0.436        0.147       61.684       23.895        0.150      332.690        1.517      866.028
01/31/2015  08:57:00       87.324       69.603       30.079       20.263       26.829       29.846      410.569      719.806      890.776        0.770        0.101      111.670       23.568        0.045      332.502        1.207      866.014
01/31/2015  08:58:00       79.502       67.846       39.382       31.698       19.674       27.142     1004.756      387.069      736.707        0.730        0.106      104.516       20.467        0.038      332.448        1.116      866.020
01/31/2015  08:59:00       49.818       53.321       68.026       29.985       26.220       23.403      899.087      687.464      547.687        0.604        0.107       72.973       16.280        0.050      332.721        1.568      866.039
01/31/2015  09:00:00       42.664       72.942       71.912       38.445       31.359       21.121     1478.017      983.387      446.105        0.761        0.145       84.503       17.410        0.042      332.740        1.599      866.060
01/31/2015  09:01:00       17.788       78.755       81.521       31.503       26.997       20.561      992.457      728.830      422.748        0.765        0.107       80.739       17.661        0.048      332.800        1.699      866.061
01/31/2015  09:02:00       38.045       80.870       71.397       35.509       26.410       17.829     1260.919      697.514      317.884        0.768        0.114       89.372       17.113        0.037      332.746        1.609      866.063
01/31/2015  09:03:00       68.306       71.038       47.415       28.254       17.366       20.820      798.314      301.562      433.471        0.675        0.077       98.550       12.967        0.017      332.623        1.406      866.070
01/31/2015  09:04:00       48.421       63.551       51.811       37.213       25.604       19.201     1384.792      655.547      368.685        0.574        0.120       79.896       17.961        0.051      332.809        1.713      866.092
01/31/2015  09:05:00       -1.381       36.984       56.522       21.663       28.464       20.762      469.299      810.176      431.056        0.314        0.086       37.009       15.854        0.183      333.041        2.097      866.094
01/31/2015  09:06:00      -18.571        7.967       48.632       18.574       27.453       19.304      344.976      753.685      372.637        0.212        0.074       20.208       17.938        0.788      333.257        2.454      866.096
01/31/2015  09:07:00       -6.911      -39.828       12.384       26.005       33.173       23.165      676.259     1100.427      536.628        0.205        0.116       40.423       19.045        0.222      333.148        2.273      866.102
01/31/2015  09:08:00       -9.807      -12.298       27.976       14.316       28.716       14.628      204.948      824.601      213.979        0.114        0.062       15.730       10.779        0.470      333.343        2.595      866.100
01/31/2015  09:09:00       -7.000       15.332       52.353       14.664       22.305       20.313      215.036      497.515      412.599        0.207        0.056       16.854       13.786        0.669      333.481        2.824      866.089
01/31/2015  09:10:00      -12.224       20.205       54.398       14.124       22.376       19.425      199.484      500.679      377.348        0.230        0.054       23.615       15.713        0.443      333.553        2.944      866.079
01/31/2015  09:11:00      -10.610        6.144       28.809       17.729       26.875       22.188      314.322      722.277      492.287        0.125        0.076       12.261       19.464        2.520      333.571        2.974      866.069
01/31/2015  09:12:00      -29.427       14.365       30.800       29.376       25.846       21.100      862.925      668.002      445.228        0.200        0.099       32.746       16.876        0.266      333.409        2.705      866.062
01/31/2015  09:13:00       36.597      -20.160       19.983       47.463       52.229       29.634     2252.743     2727.825      878.164        0.400        0.293       41.782       32.982        0.623      333.577        2.983      866.059
01/31/2015  09:14:00       54.164       -9.858       27.735       35.947       63.209       38.310     1292.168     3995.377     1467.628        0.528        0.338       55.053       33.886        0.379      333.510        2.872      866.057
01/31/2015  09:15:00       18.638       65.266       73.022       27.966       32.722       16.051      782.095     1070.715      257.629        0.602        0.106       67.875       18.225        0.072      333.535        2.913      866.061
01/31/2015  09:16:00        9.808       14.562       52.112       27.746       49.824       32.179      769.817     2482.447     1035.519        0.366        0.214       17.557       31.018        3.121      333.713        3.209      866.054
01/31/2015  09:17:00        5.408       46.412       71.449       24.831       28.140       23.456      616.576      791.838      550.174        0.462        0.098       46.726       19.015        0.166      333.366        2.635      866.043
01/31/2015  09:18:00      -45.580      -18.787        4.516       32.219       39.931       28.358     1038.091     1594.524      804.188        0.294        0.172       49.300       31.037        0.396      333.312        2.546      866.029
01/31/2015  09:19:00        1.797        2.281       20.535       16.511       33.492       19.417      272.627     1121.692      377.016        0.110        0.089        2.904       19.250       43.954      333.753        3.274      866.021
01/31/2015  09:20:00      -24.953       -3.561       11.113       16.785       15.582       11.161      281.750      242.795      124.558        0.070        0.032       25.206        7.601        0.091      333.612        3.041      866.004
01/31/2015  09:21:00        7.546       35.454       37.113       26.664       39.719       31.002      710.951     1577.616      961.096        0.297        0.162       36.249       25.150        0.481      333.726        3.230      865.990
01/31/2015  09:22:00       -7.432       -4.360       31.691       32.809       29.364       35.118     1076.414      862.255     1233.287        0.212        0.159        8.616       27.400       10.112      333.580        2.989      865.984
01/31/2015  09:23:00      -54.826      -17.282       20.846       33.997       41.384       30.818     1155.818     1712.613      949.722        0.378        0.191       57.485       32.721        0.324      333.508        2.870      865.980
01/31/2015  09:24:00      -12.335        8.920       16.206       38.009       34.598       31.113     1444.721     1197.039      968.001        0.205        0.180       15.222       15.242        1.003      333.906        3.527      865.976
01/31/2015  09:25:00       35.895      -58.324        0.649       58.132       60.203       44.824     3379.319     3624.459     2009.215        0.685        0.451       68.484       33.442        0.238      333.764        3.292      865.961
01/31/2015  09:26:00       -1.347      -57.571        2.748       47.679       50.129       28.540     2273.263     2512.924      814.517        0.446        0.280       57.587       19.441        0.114      333.727        3.233      865.961
01/31/2015  09:27:00      -11.334      -19.759       32.217       14.183       35.484       28.271      201.169     1259.099      799.269        0.191        0.113       22.779       22.528        0.978      333.973        3.640      865.958
01/31/2015  09:28:00      -19.572       50.694       83.534       28.191       49.462       35.856      794.713     2446.522     1285.623        0.723        0.226       54.341       30.798        0.321      333.976        3.644      865.951
01/31/2015  09:29:00       82.954      -97.854      -12.026       71.258       89.287       51.147     5077.714     7972.143     2616.018        1.613        0.783      128.284       62.830        0.240      333.551        2.938      865.951
01/31/2015  09:30:00       51.940       32.469       55.332       58.098       64.534       54.381     3375.358     4164.588     2957.280        0.865        0.525       61.253       53.869        0.773      333.706        3.196      865.956
01/31/2015  09:31:00       17.618       89.406      109.334       44.226       47.382       26.049     1955.905     2245.100      678.567        1.257        0.244       91.126       28.446        0.097      333.560        2.954      865.951
01/31/2015  09:32:00       54.835       67.680       67.902       36.315       39.864       29.582     1318.795     1589.175      875.084        0.799        0.189       87.106       26.674        0.094      333.479        2.821      865.951
01/31/2015  09:33:00       30.953       35.054       25.512       30.939       28.079       24.475      957.209      788.422      599.028        0.259        0.117       46.764       14.453        0.096      333.550        2.939      865.960
01/31/2015  09:34:00      -10.085        7.416       44.522       21.156       42.848       31.549      447.571     1835.913      995.368        0.271        0.164       12.518       23.971        3.667      334.191        3.999      865.984
01/31/2015  09:35:00       53.983      -10.449       10.208       29.257       27.070       31.148      855.988      732.782      970.188        0.284        0.128       54.985       18.996        0.119      333.619        3.052      866.013
01/31/2015  09:36:00       -7.101      -20.571        5.514       24.630       20.396       17.425      606.613      416.016      303.638        0.091        0.066       21.762        7.409        0.116      333.756        3.278      866.046
01/31/2015  09:37:00      -55.451      -46.096       -8.627       35.093       28.250       17.138     1231.484      798.065      293.711        0.380        0.116       72.109        8.516        0.014      333.621        3.056      866.097
01/31/2015  09:38:00      -63.771      -12.890       12.627       54.952       28.573       22.346     3019.727      816.400      499.329        0.436        0.217       65.061       25.619        0.155      333.768        3.300      866.153
01/31/2015  09:39:00      -52.544       -9.124        5.278       31.998       18.840       16.711     1023.845      354.937      279.249        0.226        0.083       53.330       15.218        0.081      333.693        3.174      866.190
01/31/2015  09:40:00      -54.390       27.494       -2.246       21.495       18.841       16.643      462.017      354.985      276.993        0.241        0.055       60.944       12.262        0.040      333.554        2.944      866.223
01/31/2015  09:41:00      -66.983       23.521       -8.552       18.243       20.518       12.564      332.790      420.976      157.867        0.301        0.046       70.993        3.742        0.003      333.456        2.781      866.260
01/31/2015  09:42:00      -36.141       17.304       11.984       19.587       15.061       20.180      383.638      226.836      407.221        0.138        0.051       40.070        6.942        0.030      333.751        3.271      866.291
01/31/2015  09:43:00        4.906       30.040       -0.581       57.443       24.398       22.693     3299.708      595.283      514.968        0.267        0.220       30.438       19.681        0.418      333.832        3.405      866.311
01/31/2015  09:44:00       61.695       44.290       15.702       32.877       35.513       23.577     1080.881     1261.163      555.863        0.446        0.145       75.946       15.183        0.040      333.824        3.391      866.318
01/31/2015  09:45:00        1.461        5.196       19.026       29.219       43.783       23.407      853.756     1916.921      547.892        0.185        0.166        5.397       15.922        8.703      334.102        3.854      866.324
01/31/2015  09:46:00      -13.645       -7.272       -7.258       37.283       34.812       17.477     1390.030     1211.861      305.435        0.160        0.145       15.462       15.850        1.051      333.967        3.628      866.320
01/31/2015  09:47:00        7.811       10.893       19.212       18.055       20.655       19.591      325.979      426.616      383.791        0.084        0.057       13.404       12.090        0.814      334.674        4.802      866.310
01/31/2015  09:48:00      -15.743       12.018       29.013       20.527       32.519       29.373      421.360     1057.483      862.795        0.179        0.117       19.806       21.927        1.226      334.677        4.809      866.313
01/31/2015  09:49:00       -4.836       11.690       69.995       23.548       37.660       27.621      554.511     1418.281      762.914        0.390        0.137       12.650       21.875        2.990      334.768        4.959      866.325
01/31/2015  09:50:00       -2.092      -78.529       23.069       34.271       90.325       44.892     1174.529     8158.601     2015.251        0.902        0.567       78.557       57.737        0.540      334.449        4.428      866.325
01/31/2015  09:51:00       -8.147      -65.206        1.081       41.153       50.713       46.868     1693.589     2571.761     2196.640        0.539        0.323       65.713       27.849        0.180      334.177        3.976      866.351
01/31/2015  09:52:00       34.143      -11.739       27.910       40.513       38.440       32.179     1641.304     1477.636     1035.484        0.312        0.208       36.104       21.296        0.348      334.228        4.064      866.372
01/31/2015  09:53:00       17.293      -35.335       19.793       30.507       39.230       33.761      930.685     1539.031     1139.814        0.277        0.180       39.340       22.100        0.316      334.134        3.906      866.381
01/31/2015  09:54:00       -1.343       42.377       81.260       35.253       48.095       33.780     1242.797     2313.117     1141.087        0.655        0.235       42.398       35.956        0.719      334.300        4.181      866.381
01/31/2015  09:55:00       11.073       57.485       42.365       36.964       35.785       42.599     1366.303     1280.566     1814.708        0.484        0.223       58.542       28.048        0.230      334.308        4.195      866.381
01/31/2015  09:56:00        0.137       62.690       -2.687       32.877       56.067       27.493     1080.920     3143.534      755.849        0.446        0.249       62.690       26.591        0.180      334.216        4.041      866.376
01/31/2015  09:57:00       19.997      112.327       -1.810       37.434       66.091       35.570     1401.300     4367.970     1265.215        1.003        0.352      114.093       39.156        0.118      334.085        3.824      866.376
01/31/2015  09:58:00       39.625       22.207        4.781       34.941       31.531       24.439     1220.868      994.186      597.248        0.245        0.141       45.423        7.420        0.027      334.083        3.822      866.393
01/31/2015  09:59:00       16.324       13.422        6.910       15.859       22.610       23.419      251.522      511.197      548.461        0.090        0.066       21.133       11.375        0.290      334.337        4.244      866.420
01/31/2015  10:00:00       48.040       56.548       47.695       47.231       33.782       47.647     2230.811     1141.226     2270.264        0.671        0.282       74.199       27.867        0.141      334.283        4.153      866.434
01/31/2015  10:01:00       36.666       25.859       43.450       52.600       66.952       43.180     2766.753     4482.635     1864.493        0.651        0.456       44.867       40.762        0.825      334.418        4.379      866.423
01/31/2015  10:02:00      146.025       88.256       17.670       62.618       46.343       51.815     3921.055     2147.642     2684.762        1.909        0.438      170.624       27.729        0.026      334.043        3.753      866.414
01/31/2015  10:03:00       17.959       46.820       56.309       35.342       46.178       37.342     1249.034     2132.427     1394.397        0.523        0.239       50.146       19.085        0.145      334.552        4.600      866.406
01/31/2015  10:04:00       95.526       78.559        9.785       44.329       35.512       35.802     1965.104     1261.073     1281.749        0.995        0.225      123.680       22.400        0.033      334.211        4.033      866.397
01/31/2015  10:05:00       76.889       73.673      -10.065       45.013       31.575       28.348     2026.206      996.964      803.612        0.763        0.191      106.487       17.324        0.026      334.142        3.919      866.403
01/31/2015  10:06:00      103.803       70.504        0.496       42.969       32.848       27.871     1846.340     1079.022      776.801        0.972        0.185      125.482       13.608        0.012      334.216        4.043      866.390
01/31/2015  10:07:00      135.108      103.179       25.291       75.566       47.613       50.309     5710.185     2266.964     2531.037        2.002        0.525      170.001       25.301        0.022      334.346        4.255      866.372
01/31/2015  10:08:00      100.472       87.302       40.224       52.348       42.685       53.266     2740.287     1821.968     2837.293        1.337        0.370      133.102       42.023        0.100      334.077        3.810      866.384
01/31/2015  10:09:00       47.676       65.538       44.275       46.114       35.343       42.906     2126.499     1249.152     1840.921        0.687        0.261       81.044       14.847        0.034      334.612        4.700      866.383
01/31/2015  10:10:00       11.857       34.858       17.568       32.708       31.872       31.175     1069.834     1015.823      971.873        0.236        0.153       36.819       20.457        0.309      334.712        4.865      866.379
01/31/2015  10:11:00       -0.160       50.496       71.060       27.696       46.275       36.155      767.060     2141.388     1307.159        0.591        0.211       50.497       37.425        0.549      334.944        5.251      866.378
01/31/2015  10:12:00       68.656       64.502       78.208       65.442       67.352       51.659     4282.658     4536.253     2668.628        1.324        0.574       94.203       50.813        0.291      334.257        4.111      866.380
01/31/2015  10:13:00       23.828       55.812       60.109       38.185       53.149       36.967     1458.132     2824.794     1366.546        0.647        0.282       60.685       33.874        0.312      334.452        4.434      866.374
01/31/2015  10:14:00      -16.684        2.466       52.196       24.279       46.363       40.793      589.460     2149.519     1664.103        0.371        0.220       16.866       35.914        4.534      334.912        5.197      866.379
01/31/2015  10:15:00        2.978       30.050       56.585       26.909       42.471       31.847      724.079     1803.772     1014.235        0.383        0.177       30.198       26.747        0.785      335.044        5.417      866.375
01/31/2015  10:16:00       63.368       57.517       61.415       43.387       43.893       47.571     1882.471     1926.593     2263.031        0.858        0.304       85.578       27.183        0.101      334.310        4.199      866.384
01/31/2015  10:17:00        2.716      -41.142       35.528       37.275       76.963       39.736     1389.399     5923.329     1578.943        0.593        0.445       41.232       35.958        0.761      334.702        4.848      866.386
01/31/2015  10:18:00       40.349     -129.488       -5.103       66.946       55.729       36.491     4481.711     3105.770     1331.586        1.367        0.446      135.629       35.820        0.070      334.508        4.526      866.405
01/31/2015  10:19:00       22.421        9.821       52.041       49.938       68.756       36.640     2493.838     4727.443     1342.493        0.593        0.428       24.478       35.020        2.047      334.750        4.928      866.421
01/31/2015  10:20:00        1.712       48.751       81.694       26.713       49.633       19.906      713.606     2463.483      396.267        0.631        0.179       48.781       23.789        0.238      334.765        4.953      866.430
01/31/2015  10:21:00       51.062       63.662       80.151       58.455       53.536       38.869     3416.988     2866.064     1510.788        1.044        0.390       81.610       31.193        0.146      334.764        4.952      866.438
01/31/2015  10:22:00       34.079       69.263       84.738       51.307       70.199       55.909     2632.443     4927.888     3125.835        1.191        0.534       77.193       52.738        0.467      334.543        4.584      866.433
01/31/2015  10:23:00       -2.047       -0.468       56.453       46.883       56.285       34.528     2198.010     3167.976     1192.171        0.487        0.328        2.100       28.554      184.868      334.758        4.943      866.434
01/31/2015  10:24:00       38.962      -88.450       14.004       39.439       87.403       54.407     1555.423     7639.276     2960.144        1.084        0.608       96.651       51.891        0.288      334.656        4.772      866.435
01/31/2015  10:25:00       48.774      -38.359       25.927       48.509       79.173       60.095     2353.158     6268.366     3611.441        0.838        0.612       62.050       62.928        1.028      334.835        5.070      866.440
01/31/2015  10:26:00       32.004       15.056       52.929       49.465       41.056       36.802     2446.738     1685.564     1354.377        0.477        0.274       35.368       29.920        0.716      335.184        5.649      866.437
01/31/2015  10:27:00      110.099     -159.332      -47.700       50.797       54.677       33.211     2580.319     2989.591     1102.944        2.323        0.334      193.671       17.314        0.008      334.541        4.579      866.443
01/31/2015  10:28:00       49.089       10.123       54.177       53.557       90.132       54.687     2868.382     8123.728     2990.645        0.971        0.699       50.122       65.126        1.688      334.812        5.031      866.444
01/31/2015  10:29:00        3.849       44.403       67.723       36.366       54.689       35.112     1322.505     2990.867     1232.847        0.606        0.277       44.569       30.996        0.484      335.034        5.401      866.458
01/31/2015  10:30:00       20.740      -25.268       33.348       46.740       89.610       52.456     2184.618     8029.920     2751.668        0.757        0.648       32.689       55.967        2.931      334.949        5.260      866.446
01/31/2015  10:31:00       15.178      -78.591        2.651       48.741       73.717       45.908     2375.669     5434.143     2107.506        0.816        0.496       80.044       32.115        0.161      334.931        5.229      866.446
01/31/2015  10:32:00       29.340      -67.337        9.126       71.510       75.020       40.701     5113.655     5628.009     1656.609        0.894        0.620       73.451       46.671        0.404      334.767        4.957      866.448
01/31/2015  10:33:00       36.434      -58.855       -7.663       50.451       55.110       42.030     2545.272     3037.101     1766.543        0.610        0.367       69.220       39.004        0.318      334.782        4.981      866.444
01/31/2015  10:34:00       14.192      -37.902       -4.882       46.226       47.954       31.811     2136.869     2299.597     1011.935        0.355        0.272       40.472       28.329        0.490      334.959        5.276      866.441
01/31/2015  10:35:00       40.185        9.187       67.853       70.022      122.002       74.236     4903.100    14884.485     5510.953        1.580        1.265       41.222       86.613        4.415      334.960        5.276      866.424
01/31/2015  10:36:00       41.551       71.856       95.377       62.384       73.446       61.347     3891.725     5394.382     3763.478        1.452        0.652       83.004       64.473        0.603      334.794        5.001      866.430
01/31/2015  10:37:00       37.066      -26.299       26.088       62.337       77.904       61.481     3885.932     6069.028     3779.908        0.824        0.687       45.448       64.486        2.013      335.034        5.399      866.431
01/31/2015  10:38:00       50.018     -120.220      -29.558       42.102       56.309       41.971     1772.602     3170.739     1761.561        1.227        0.335      130.210       23.423        0.032      334.875        5.137      866.415
01/31/2015  10:39:00       69.330      -57.001       15.859       66.793      108.270       54.712     4461.264    11722.483     2993.388        1.374        0.959       89.753       70.423        0.616      334.846        5.087      866.414
01/31/2015  10:40:00       39.770       50.122       49.985       32.713       32.512       24.318     1070.142     1057.027      591.382        0.465        0.136       63.983       19.037        0.089      334.635        4.737      866.400
01/31/2015  10:41:00      -12.993       14.441       19.910       32.929       21.255       30.706     1084.298      451.765      942.841        0.163        0.124       19.426       26.461        1.855      334.969        5.292      866.383
01/31/2015  10:42:00       -2.374       13.370       18.856       31.789       22.714       33.515     1010.568      515.917     1123.274        0.159        0.132       13.579       18.039        1.765      335.144        5.583      866.377
01/31/2015  10:43:00       61.089      -75.704       -1.089       63.464       86.711       67.625     4027.684     7518.748     4573.122        1.279        0.806       97.278       68.241        0.492      335.109        5.525      866.371
01/31/2015  10:44:00       30.351       65.074       80.173       45.747       51.583       48.561     2092.831     2660.850     2358.206        0.935        0.356       71.804       43.095        0.360      335.051        5.429      866.370
01/31/2015  10:45:00       43.818       37.298       54.067       39.878       44.124       34.239     1590.236     1946.945     1172.287        0.547        0.235       57.542       25.624        0.198      334.859        5.109      866.347
01/31/2015  10:46:00       21.706       -1.815       64.220       41.443       56.118       36.660     1717.535     3149.271     1343.981        0.540        0.311       21.781       28.909        1.762      335.488        6.154      866.321
01/31/2015  10:47:00       10.635      -44.933       30.479       47.492      101.226       57.580     2255.524    10246.673     3315.499        0.944        0.791       46.175       72.252        2.448      335.290        5.825      866.302
01/31/2015  10:48:00       35.049      -17.137       25.605       41.263       56.718       41.772     1702.619     3216.898     1744.862        0.442        0.333       39.014       41.945        1.156      335.579        6.306      866.274
01/31/2015  10:49:00       30.382       -5.236       57.812       51.178      108.235       64.808     2619.138    11714.900     4200.078        1.141        0.927       30.830       77.932        6.390      335.198        5.674      866.251
01/31/2015  10:50:00       44.986       45.270       86.283       52.956       76.717       56.851     2804.344     5885.506     3232.090        1.172        0.596       63.821       58.178        0.831      335.106        5.518      866.241
01/31/2015  10:51:00       51.151       55.812       73.293       65.644       52.054       44.703     4309.106     2709.610     1998.337        1.006        0.451       75.706       30.645        0.164      335.064        5.449      866.229
01/31/2015  10:52:00       59.928      -25.904       46.206       84.134       87.714       58.603     7078.584     7693.709     3434.316        1.230        0.910       65.287       62.158        0.906      335.219        5.709      866.206
01/31/2015  10:53:00       24.264      -37.230       52.197       46.315       76.569       43.621     2145.064     5862.767     1902.791        0.730        0.496       44.439       46.865        1.112      335.507        6.188      866.180
01/31/2015  10:54:00       86.392      -27.814       15.057       50.105       77.366       46.581     2510.478     5985.440     2169.772        0.956        0.533       90.759       45.785        0.254      335.116        5.536      866.178
01/31/2015  10:55:00       63.322       53.631       56.825       44.563       49.933       37.410     1985.817     2493.353     1399.491        0.800        0.294       82.982       36.222        0.191      335.079        5.476      866.152
01/31/2015  10:56:00      -12.724      -15.485       13.819       40.595       45.199       30.091     1647.926     2042.986      905.494        0.259        0.230       20.042       37.572        3.514      335.263        5.779      866.140
01/31/2015  10:57:00      -37.035      -48.205       -5.764       34.272       25.914       23.398     1174.556      671.551      547.486        0.306        0.120       60.789        5.707        0.009      335.286        5.819      866.137
01/31/2015  10:58:00      -20.192      -35.696       12.456       50.048       31.309       35.199     2504.825      980.276     1238.970        0.328        0.236       41.011       31.312        0.583      335.462        6.110      866.118
01/31/2015  10:59:00      -30.599      -26.963       20.057       29.654       53.152       27.758      879.343     2825.093      770.483        0.327        0.224       40.784       24.464        0.360      335.519        6.208      866.110
01/31/2015  11:00:00      -95.735      -79.204       -2.698       45.632       36.469       32.749     2082.254     1329.966     1072.524        0.996        0.224      124.251       23.647        0.036      335.009        5.359      866.096
01/31/2015  11:01:00     -107.486      -67.518       -8.669       51.249       25.748       24.303     2626.454      662.945      590.632        1.003        0.194      126.933       26.869        0.045      334.925        5.219      866.068
01/31/2015  11:02:00      -63.688      -53.220        6.774       47.946       32.250       27.289     2298.838     1040.045      744.710        0.551        0.204       82.997       27.574        0.110      335.182        5.646      866.061
01/31/2015  11:03:00      -52.531      -77.537       -4.405       33.176       44.899       26.618     1100.629     2015.936      708.544        0.631        0.191       93.657       22.860        0.060      334.959        5.277      866.046
01/31/2015  11:04:00      -23.360     -103.726       -5.581       23.882       33.148       18.312      570.349     1098.766      335.347        0.667        0.100      106.324       13.717        0.017      335.012        5.365      866.043
01/31/2015  11:05:00      -23.924      -50.120       -2.282       30.552       21.315       17.249      933.454      454.311      297.516        0.239        0.084       55.537       14.624        0.069      335.123        5.549      866.031
01/31/2015  11:06:00      -73.881      -16.796        0.722       26.261       31.847       18.086      689.662     1014.232      327.110        0.389        0.102       75.766       14.686        0.038      335.003        5.349      866.002
01/31/2015  11:07:00       11.902       28.438       43.147       32.988       28.775       34.156     1088.194      827.981     1166.623        0.295        0.154       30.828       19.632        0.406      335.870        6.791      865.991
01/31/2015  11:08:00       -6.251       44.632       70.110       54.164       62.419       41.511     2933.719     3896.081     1723.185        0.775        0.428       45.067       44.511        0.975      335.666        6.452      865.976
01/31/2015  11:09:00      109.605     -139.601      -32.980       71.753       67.779       51.905     5148.481     4594.010     2694.125        2.251        0.622      177.487       49.262        0.077      335.613        6.360      865.969
01/31/2015  11:10:00       61.817       -9.133       29.271       63.874       66.010       50.628     4079.908     4357.266     2563.215        0.788        0.550       62.488       59.257        0.899      335.792        6.663      865.962
01/31/2015  11:11:00      -24.150      -18.559       18.773       34.435       38.776       22.039     1185.746     1503.602      485.707        0.223        0.159       30.458       20.581        0.457      335.787        6.653      865.939
01/31/2015  11:12:00       24.121      -23.551       37.998       54.746       81.059       55.018     2997.145     6570.524     3026.992        0.759        0.630       33.712       53.149        2.486      336.086        7.151      865.917
01/31/2015  11:13:00       78.480      -50.579       19.192       63.481       76.120       68.830     4029.823     5794.324     4737.614        1.182        0.728       93.366       56.394        0.365      335.795        6.666      865.886
01/31/2015  11:14:00       56.765      -34.897       50.589       63.960       99.523       62.918     4090.827     9904.734     3958.672        1.247        0.898       66.634       67.145        1.015      335.816        6.701      865.879
01/31/2015  11:15:00       10.647      -38.920       37.252       59.954       60.316       40.885     3594.497     3637.960     1671.544        0.596        0.445       40.350       24.298        0.363      336.093        7.164      865.869
01/31/2015  11:16:00       43.522      -57.401        4.626       51.497       48.020       49.592     2651.922     2305.930     2459.406        0.631        0.371       72.035       38.633        0.288      335.665        6.450      865.878
01/31/2015  11:17:00       31.709       19.693       81.071       56.652       86.897       58.214     3209.394     7551.148     3388.922        1.106        0.707       37.326       68.960        3.413      335.822        6.713      865.874
01/31/2015  11:18:00       51.655      -48.976       17.339       38.498       44.364       37.390     1482.092     1968.139     1398.042        0.511        0.242       71.182       34.579        0.236      335.525        6.217      865.889
01/31/2015  11:19:00       67.690     -118.513      -20.323       84.879       93.666       25.796     7204.482     8773.234      665.432        1.784        0.832      136.482       33.619        0.061      335.334        5.898      865.880
01/31/2015  11:20:00      120.911       15.548       59.442       57.891       93.596       67.185     3351.418     8760.263     4513.763        1.751        0.831      121.906       66.421        0.297      335.635        6.400      865.856
01/31/2015  11:21:00       38.491      -61.426       13.470       53.834       82.051       48.332     2898.100     6732.438     2336.015        0.870        0.598       72.489       53.315        0.541      335.679        6.473      865.861
01/31/2015  11:22:00       63.643       67.761       62.816       47.355       34.646       30.486     2242.467     1200.362      929.409        0.848        0.219       92.962       17.223        0.034      335.874        6.798      865.849
01/31/2015  11:23:00        9.572     -101.238       15.368       53.989       77.053       46.618     2914.828     5937.195     2173.272        1.080        0.551      101.690       45.324        0.199      335.993        6.997      865.836
01/31/2015  11:24:00      -10.193      -34.088       35.474       45.358       57.036       41.542     2057.358     3253.079     1725.697        0.478        0.352       35.579       32.479        0.833      336.158        7.273      865.825
01/31/2015  11:25:00      -11.556      -45.889        4.247       42.400       41.799       27.436     1797.735     1747.163      752.707        0.328        0.215       47.321       21.984        0.216      335.988        6.989      865.813
01/31/2015  11:26:00        9.453      -72.171        5.328       48.716       30.229       29.578     2373.271      913.796      874.833        0.474        0.208       72.788       20.161        0.077      336.000        7.008      865.804
01/31/2015  11:27:00      -11.902       18.841       19.979       59.643       33.512       36.953     3557.239     1123.035     1365.520        0.347        0.302       22.286       40.611        3.321      336.408        7.690      865.780
01/31/2015  11:28:00      105.337       90.457       42.075       30.153       32.811       32.592      909.218     1076.590     1062.231        1.205        0.152      138.847       15.698        0.013      335.400        6.007      865.765
01/31/2015  11:29:00       79.338       71.102        2.634       51.679       41.313       39.246     2670.767     1706.735     1540.240        0.864        0.296      106.537       31.584        0.088      335.616        6.367      865.749
01/31/2015  11:30:00       33.940       76.150        2.681       43.427       59.996       32.823     1885.877     3599.511     1077.338        0.676        0.328       83.371       37.176        0.199      335.817        6.703      865.732
01/31/2015  11:31:00       21.152      120.459       -5.725       37.488       47.435       28.338     1405.367     2250.033      803.061        0.972        0.223      122.302       22.859        0.035      335.712        6.530      865.702
01/31/2015  11:32:00        9.895       86.393        1.205       22.757       61.873       32.465      517.863     3828.282     1053.970        0.648        0.270       86.958       38.396        0.195      335.909        6.856      865.670
01/31/2015  11:33:00       60.780       67.693        8.768       50.624       39.609       30.831     2562.800     1568.889      950.575        0.672        0.254       90.976       17.930        0.039      336.067        7.120      865.625
01/31/2015  11:34:00       15.473      -17.245       38.939       47.957       71.200       38.155     2299.839     5069.492     1455.838        0.544        0.441       23.169       23.274        1.009      336.628        8.057      865.592
01/31/2015  11:35:00       12.539       53.088      102.419       38.037       52.945       42.186     1446.824     2803.124     1779.618        0.975        0.301       54.548       42.987        0.621      336.329        7.557      865.570
01/31/2015  11:36:00      102.643       92.425       81.490       71.511       48.528       48.843     5113.754     2354.937     2385.678        1.778        0.493      138.123       46.544        0.114      335.821        6.709      865.536
01/31/2015  11:37:00      114.496      126.086       86.971       79.711       44.342       44.390     6353.788     1966.202     1970.464        2.343        0.515      170.315       40.800        0.057      335.759        6.604      865.520
01/31/2015  11:38:00      103.891      115.243       85.674       55.912       47.625       45.902     3126.207     2268.156     2106.959        1.946        0.375      155.159       39.705        0.065      335.739        6.572      865.507
01/31/2015  11:39:00       46.008       63.217       62.370       49.983       35.823       43.187     2498.316     1283.277     1865.135        0.782        0.282       78.186       36.047        0.213      335.942        6.911      865.499
01/31/2015  11:40:00       46.741        3.026       28.833       42.031       42.171       32.949     1766.632     1778.408     1085.638        0.383        0.232       46.839       29.604        0.399      336.014        7.032      865.478
01/31/2015  11:41:00      109.774       85.638       62.044       57.592       43.506       43.974     3316.783     1892.755     1933.690        1.519        0.357      139.227       33.872        0.059      335.819        6.707      865.443
01/31/2015  11:42:00       41.652       74.096       12.799       37.107       34.638       35.460     1376.924     1199.823     1257.388        0.561        0.192       85.001       25.212        0.088      335.914        6.864      865.423
01/31/2015  11:43:00       73.017       70.553        9.938       39.222       36.191       33.072     1538.397     1309.778     1093.750        0.717        0.197      101.534       17.660        0.030      336.046        7.086      865.384
01/31/2015  11:44:00       93.927       79.857       19.069       39.307       22.574       34.404     1545.013      509.597     1183.617        0.940        0.162      123.286       26.723        0.047      335.773        6.630      865.353
01/31/2015  11:45:00       35.314       23.319       15.869       26.258       31.289       28.836      689.489      979.002      831.517        0.227        0.125       42.318       28.017        0.438      335.898        6.838      865.320
01/31/2015  11:46:00       -2.181      -23.941      -11.179       19.016       30.409       13.826      361.594      924.685      191.153        0.109        0.074       24.040       16.494        0.471      336.120        7.209      865.265
01/31/2015  11:47:00       62.393      -72.486       12.649       46.387       75.945       42.616     2151.755     5767.626     1816.161        0.952        0.487       95.641       43.419        0.206      336.241        7.410      865.241
01/31/2015  11:48:00       34.959      -16.386       53.448       39.657       62.118       42.552     1572.704     3858.646     1810.677        0.579        0.362       38.609       42.582        1.216      336.431        7.729      865.227
01/31/2015  11:49:00       45.898      -44.654       15.707       42.337       46.060       31.918     1792.436     2121.496     1018.774        0.464        0.247       64.036       25.761        0.162      336.349        7.591      865.214
01/31/2015  11:50:00       53.729       50.311       59.711       54.938       73.099       55.275     3018.172     5343.514     3055.333        1.020        0.571       73.607       46.767        0.404      336.585        7.984      865.205
01/31/2015  11:51:00       73.070      133.037      108.632       82.273       60.048       61.534     6768.913     3605.780     3786.460        2.450        0.708      151.783       59.996        0.156      336.174        7.297      865.172
01/31/2015  11:52:00      118.999       95.580       77.920       59.986       42.128       46.750     3598.318     1774.749     2185.580        1.846        0.378      152.631       35.700        0.055      336.051        7.093      865.173
01/31/2015  11:53:00       75.155      101.246       83.031       55.252       48.905       46.189     3052.786     2391.696     2133.398        1.518        0.379      126.091       34.522        0.075      336.326        7.553      865.172
01/31/2015  11:54:00       69.079       29.156       -3.829       65.628       49.273       36.101     4307.054     2427.803     1303.278        0.684        0.402       74.980       26.922        0.129      336.265        7.451      865.168
01/31/2015  11:55:00        9.686       32.929       20.505       25.166       23.533       24.479      633.336      553.792      599.203        0.169        0.089       34.324       19.322        0.317      336.495        7.835      865.167
01/31/2015  11:56:00      -21.508       90.897       -1.959       36.659       43.115       29.718     1343.902     1858.915      883.167        0.641        0.204       93.407       22.367        0.057      336.585        7.984      865.172
01/31/2015  11:57:00       -2.978       64.026       44.097       41.497       45.888       38.488     1721.962     2105.671     1481.336        0.568        0.265       64.096       30.081        0.220      336.905        8.520      865.203
01/31/2015  11:58:00       53.070       30.010       21.864       62.445       38.437       39.612     3899.332     1477.370     1569.084        0.557        0.347       60.968       35.295        0.335      336.735        8.237      865.233
01/31/2015  11:59:00       67.745      101.321      107.873       70.600       61.689       46.273     4984.316     3805.538     2141.220        1.871        0.547      121.882       35.623        0.085      336.677        8.139      865.237
01/31/2015  12:00:00       36.454        7.310       62.743       44.561       96.020       64.047     1985.708     9219.800     4102.050        1.031        0.765       37.180       70.987        3.645      336.557        7.939      865.276
01/31/2015  12:01:00       47.377       28.975       67.361       52.831       47.720       38.274     2791.072     2277.192     1464.907        0.708        0.327       55.535       29.496        0.282      336.545        7.918      865.289
01/31/2015  12:02:00       -5.081      -34.348        5.874       37.029       43.448       31.364     1371.169     1887.690      983.724        0.274        0.212       34.722       26.881        0.599      336.617        8.038      865.284
01/31/2015  12:03:00       -9.664        2.001        9.967       26.473       17.959       19.420      700.827      322.529      377.148        0.080        0.070        9.869       14.059        2.029      337.021        8.716      865.267
01/31/2015  12:04:00      -11.840      -24.495       28.885       29.317       55.557       46.911      859.459     3086.623     2200.645        0.386        0.307       27.207       35.758        1.727      336.890        8.495      865.233
01/31/2015  12:05:00       55.170       86.821      104.244       69.345       71.238       54.740     4808.688     5074.907     2996.500        1.716        0.644      102.867       53.090        0.266      336.610        8.028      865.211
01/31/2015  12:06:00       66.497       87.949       62.335       84.250       52.657       65.368     7098.142     2772.773     4273.037        1.509        0.707      110.258       64.759        0.345      336.594        8.000      865.191
01/31/2015  12:07:00      102.486       75.538       23.445       31.303       37.312       31.084      979.864     1392.158      966.219        1.005        0.167      127.316       14.521        0.013      336.449        7.758      865.172
01/31/2015  12:08:00       70.462       61.296       20.727       41.517       29.943       32.117     1723.679      896.607     1031.527        0.640        0.183       93.392       21.658        0.054      336.628        8.057      865.163
01/31/2015  12:09:00       34.527       35.578       38.235       83.042       54.394       30.560     6896.026     2958.732      933.904        0.735        0.539       49.578       36.448        0.540      337.079        8.811      865.133
01/31/2015  12:10:00      100.465       85.721       48.315       56.730       43.128       46.393     3218.237     1860.067     2152.321        1.350        0.362      132.066       20.923        0.025      336.791        8.329      865.105
01/31/2015  12:11:00       82.676       97.622       11.118       64.035       39.421       32.638     4100.431     1554.012     1065.263        1.160        0.336      127.927       27.254        0.045      336.717        8.206      865.097
01/31/2015  12:12:00      118.669       82.662       38.686       54.826       54.674       42.118     3005.924     2989.252     1773.920        1.509        0.388      144.621       28.643        0.039      336.746        8.255      865.073
01/31/2015  12:13:00      129.832      101.579       28.544       44.974       46.563       43.056     2022.672     2168.155     1853.821        1.702        0.302      164.847       10.741        0.004      336.468        7.790      865.068
01/31/2015  12:14:00       87.213       90.395       34.825       37.637       28.055       40.513     1416.546      787.086     1641.330        1.042        0.192      125.608       29.354        0.055      336.464        7.783      865.052
01/31/2015  12:15:00       81.068       37.641       26.010       68.364       42.959       35.207     4673.661     1845.499     1239.554        0.821        0.388       89.380       32.075        0.129      336.887        8.491      865.039
01/31/2015  12:16:00      150.762       93.462       11.224       55.885       47.534       41.989     3123.080     2259.522     1763.090        1.937        0.357      177.382       31.449        0.031      336.816        8.371      865.021
01/31/2015  12:17:00      108.030       80.415       16.296       36.488       40.096       40.569     1331.394     1607.720     1645.882        1.149        0.229      134.673       29.633        0.048      336.432        7.731      865.006
01/31/2015  12:18:00       39.836       44.514       13.524       40.780       32.363       32.084     1663.020     1047.393     1029.398        0.374        0.187       59.736       18.247        0.093      336.790        8.330      864.995
01/31/2015  12:19:00       22.995       54.082      -16.189       27.570       30.051       22.624      760.122      903.045      511.858        0.295        0.109       58.767       15.653        0.071      336.747        8.256      864.978
01/31/2015  12:20:00       50.791       -8.654       15.616       52.521       50.641       37.974     2758.477     2564.556     1441.999        0.483        0.338       51.523       35.619        0.478      336.913        8.534      864.943
01/31/2015  12:21:00       32.712      -16.882       39.242       34.224       84.051       48.712     1171.255     7064.602     2372.811        0.675        0.530       36.811       60.268        2.680      337.019        8.712      864.913
01/31/2015  12:22:00       99.314       81.025       34.833       68.100       40.536       44.075     4637.608     1643.140     1942.586        1.293        0.411      128.173       47.269        0.136      336.980        8.646      864.879
01/31/2015  12:23:00       70.406       69.203       16.140       74.814       50.038       51.969     5597.065     2503.772     2700.802        1.040        0.540       98.722       44.470        0.203      337.345        9.256      864.856
01/31/2015  12:24:00       55.696       24.172       -0.407       52.430       41.898       34.992     2748.932     1755.483     1224.461        0.471        0.286       60.715       14.709        0.059      337.382        9.318      864.849
01/31/2015  12:25:00       54.363       47.374        3.757       52.872       56.300       36.028     2795.396     3169.731     1298.022        0.624        0.363       72.109       32.329        0.201      337.213        9.034      864.855
01/31/2015  12:26:00      109.845       87.771        5.198       74.580       44.807       34.417     5562.123     2007.655     1184.515        1.427        0.438      140.604       23.420        0.028      337.036        8.738      864.872
01/31/2015  12:27:00      120.105       84.106        8.423       62.329       53.598       28.238     3884.923     2872.764      797.375        1.456        0.378      146.626       16.104        0.012      336.792        8.330      864.880
01/31/2015  12:28:00       46.539       88.074       -1.264       26.338       52.110       35.154      693.696     2715.502     1235.780        0.728        0.232       99.614       31.871        0.102      336.980        8.646      864.872
01/31/2015  12:29:00       20.352       83.711       -7.136       36.612       79.061       33.806     1340.465     6250.592     1142.841        0.810        0.437       86.149       20.006        0.054      336.993        8.668      864.866
01/31/2015  12:30:00       31.477       37.687       23.929       44.358       38.247       34.701     1967.663     1462.865     1204.157        0.381        0.232       49.104       16.686        0.115      337.430        9.399      864.858
01/31/2015  12:31:00       93.498       80.940       38.168       59.694       36.747       39.126     3563.334     1350.350     1530.869        1.160        0.322      123.666       34.304        0.077      337.376        9.308      864.857
01/31/2015  12:32:00      121.747      105.653       13.062       68.786       48.032       33.241     4731.506     2307.103     1104.940        1.715        0.407      161.199       22.586        0.020      337.126        8.889      864.860
01/31/2015  12:33:00       61.215      100.732       -6.795       42.629       52.309       32.582     1817.206     2736.225     1061.612        0.978        0.281      117.874       28.593        0.059      337.218        9.044      864.848
01/31/2015  12:34:00       69.864       91.510        9.219       31.800       35.507       37.692     1011.256     1260.724     1420.668        0.852        0.185      115.131       22.440        0.038      337.131        8.898      864.845
01/31/2015  12:35:00       78.813      -12.899       56.056       60.655       77.985       46.143     3679.009     6081.668     2129.169        1.070        0.594       79.862       53.607        0.451      337.442        9.419      864.839
01/31/2015  12:36:00       90.582      -16.932       10.559       49.376       76.888       52.339     2437.941     5911.750     2739.330        0.984        0.554       92.151       45.747        0.246      337.432        9.402      864.831
01/31/2015  12:37:00       55.095       58.743       -0.964       38.550       73.912       34.591     1486.133     5463.010     1196.541        0.732        0.407       80.537       18.066        0.050      337.384        9.322      864.817
01/31/2015  12:38:00       89.864       92.739       -2.685       33.413       43.914       40.237     1116.424     1928.402     1618.977        1.067        0.233      129.136       32.715        0.064      337.142        8.916      864.783
01/31/2015  12:39:00       46.701       47.748       -0.321       35.007       26.841       31.282     1225.489      720.451      978.545        0.369        0.146       66.789       22.883        0.117      337.190        8.998      864.764
01/31/2015  12:40:00       -3.773       64.158      -16.306       21.056       29.082       13.187      443.348      845.779      173.904        0.293        0.073       64.269       13.348        0.043      337.227        9.057      864.730
01/31/2015  12:41:00       63.416       59.918       18.324       37.134       53.972       37.062     1378.971     2913.019     1373.563        0.681        0.283       87.245       29.147        0.112      337.643        9.755      864.690
01/31/2015  12:42:00       75.164      107.832      148.898      103.141       82.008       67.126    10638.137     6725.260     4505.929        3.065        1.093      131.443       58.566        0.199      337.689        9.831      864.654
01/31/2015  12:43:00      173.046      110.293       46.116       58.012       58.906       68.536     3365.400     3469.976     4697.144        2.788        0.577      205.205       45.313        0.049      337.238        9.075      864.629
01/31/2015  12:44:00      134.086       79.712       42.049       87.994       62.591       54.552     7742.897     3917.678     2975.922        2.037        0.732      155.990       51.768        0.110      337.618        9.714      864.589
01/31/2015  12:45:00       49.309      116.779      129.064       74.034       66.121       49.888     5481.057     4371.994     2488.782        2.253        0.617      126.762       48.399        0.146      337.845       10.092      864.571
01/31/2015  12:46:00      150.351       98.478       34.193       90.495       80.328       73.440     8189.290     6452.531     5393.361        2.675        1.002      179.731       54.778        0.093      337.332        9.232      864.552
01/31/2015  12:47:00       89.136       56.775        8.867       71.919       56.072       45.424     5172.373     3144.121     2063.337        1.081        0.519      105.682       45.956        0.189      337.304        9.186      864.531
01/31/2015  12:48:00       71.942      -12.265       14.750       61.565       91.954       34.824     3790.270     8455.484     1212.738        0.950        0.673       72.980       38.750        0.282      337.614        9.708      864.511
01/31/2015  12:49:00       11.287      -23.076       14.973       31.195       35.363       33.774      973.152     1250.530     1140.699        0.212        0.168       25.689       25.246        0.966      337.873       10.140      864.483
01/31/2015  12:50:00       57.348       51.458       18.397       75.195       60.565       37.920     5654.360     3668.066     1437.896        0.852        0.538       77.050       34.193        0.197      337.971       10.306      864.474
01/31/2015  12:51:00       62.487       73.769       91.458       78.045       67.176       55.450     6091.057     4512.548     3074.691        1.569        0.684       96.677       39.147        0.164      338.109       10.536      864.460
01/31/2015  12:52:00       50.144      -13.273       69.784       79.616      116.963       81.735     6338.708    13680.371     6680.557        1.713        1.335       51.871       92.990        3.214      337.998       10.351      864.447
01/31/2015  12:53:00       67.952       46.191       32.952       63.691       53.938       45.343     4056.583     2909.289     2055.977        0.843        0.451       82.165       30.117        0.134      337.625        9.726      864.454
01/31/2015  12:54:00       32.812       22.968       22.105       53.966       26.335       32.601     2912.341      693.534     1062.800        0.338        0.233       40.052       19.244        0.231      337.883       10.158      864.441
01/31/2015  12:55:00       92.451       63.329       58.991       59.526       47.986       48.115     3543.403     2302.621     2315.022        1.210        0.408      112.062       30.782        0.075      337.840       10.086      864.433
01/31/2015  12:56:00      119.443       61.805       19.744      105.942       54.882       55.030    11223.723     3012.007     3028.312        1.787        0.863      134.486       29.235        0.047      337.939       10.250      864.407
01/31/2015  12:57:00      135.584      124.467      128.422      105.381       80.317       66.646    11105.126     6450.863     4441.665        3.618        1.100      184.052       59.890        0.106      337.676        9.807      864.401
01/31/2015  12:58:00       83.465       75.176       69.845       58.479       62.217       50.733     3419.765     3870.989     2573.818        1.368        0.493      112.329       50.148        0.199      337.544        9.588      864.419
01/31/2015  12:59:00       36.212       38.600        0.450       41.063       33.875       30.330     1686.162     1147.486      919.909        0.328        0.188       52.927       20.945        0.157      337.442        9.420      864.392
01/31/2015  13:00:00       76.035      115.730       82.094       68.547       61.069       78.677     4698.708     3729.386     6190.147        2.026        0.731      138.473       70.503        0.259      337.590        9.666      864.389
01/31/2015  13:01:00      122.693      131.568       76.540       79.192       62.050       67.074     6271.368     3850.221     4498.905        2.642        0.731      179.899       55.380        0.095      337.478        9.477      864.379
01/31/2015  13:02:00       72.768       74.585       35.769       51.457       43.890       49.783     2647.795     1926.301     2478.311        0.959        0.353      104.202       34.423        0.109      337.674        9.807      864.371
01/31/2015  13:03:00      110.972      127.835       93.379       72.667       54.315       51.048     5280.431     2950.154     2605.936        2.410        0.542      169.282       50.179        0.088      337.727        9.895      864.366
01/31/2015  13:04:00       55.889       50.648       27.512       51.097       37.849       34.281     2610.860     1432.558     1175.213        0.583        0.261       75.424       20.327        0.073      337.604        9.691      864.368
01/31/2015  13:05:00       28.953       25.785       25.071       26.523       25.370       24.494      703.463      643.631      599.950        0.204        0.097       38.770       11.307        0.085      337.590        9.668      864.361
01/31/2015  13:06:00       13.839       16.482       11.866       21.677       21.088       19.110      469.881      444.723      365.173        0.094        0.064       21.521       12.105        0.316      337.699        9.850      864.346
01/31/2015  13:07:00        9.576       52.314       71.575       44.254       41.785       32.985     1958.398     1745.968     1088.024        0.637        0.240       53.183       27.533        0.268      338.137       10.585      864.334
01/31/2015  13:08:00       15.956       34.243       59.041       30.991       31.334       24.352      960.422      981.792      593.023        0.372        0.127       37.778       24.046        0.405      337.913       10.209      864.323
01/31/2015  13:09:00       45.356       69.714        7.141      101.866       54.775       55.047    10376.767     3000.337     3030.126        1.168        0.820       83.169       63.312        0.579      337.546        9.592      864.306
01/31/2015  13:10:00      135.325      118.997      108.612      137.208       89.659       72.055    18826.103     8038.822     5191.897        3.816        1.603      180.203       73.571        0.167      337.705        9.856      864.279
01/31/2015  13:11:00       40.880       38.215       49.233       67.563       75.622       63.009     4564.796     5718.670     3970.095        0.990        0.713       55.961       53.393        0.910      338.215       10.716      864.263
01/31/2015  13:12:00       35.137       63.031       89.393       82.535       67.145       55.203     6812.037     4508.506     3047.413        1.378        0.718       72.163       45.103        0.391      338.211       10.708      864.249
01/31/2015  13:13:00      171.155      117.386        8.676       59.670       36.828       36.235     3560.538     1356.266     1312.977        2.469        0.311      207.541       21.161        0.010      337.657        9.778      864.270
01/31/2015  13:14:00      161.638       95.130       40.393       89.554       64.600       43.948     8019.894     4173.097     1931.466        2.546        0.706      187.554       26.230        0.020      337.785        9.990      864.261
01/31/2015  13:15:00      213.085      139.816       87.500      116.088      103.256       82.921    13476.420    10661.893     6875.954        5.181        1.551      254.860       62.438        0.060      337.763        9.954      864.244
01/31/2015  13:16:00       92.492      121.772      116.253      120.717       77.052       71.300    14572.506     5936.971     5083.713        3.124        1.280      152.915       71.875        0.221      337.916       10.211      864.220
01/31/2015  13:17:00      187.765       68.951       19.649       93.811       55.389       57.498     8800.596     3067.904     3306.024        2.778        0.759      200.025       35.914        0.032      337.737        9.910      864.219
01/31/2015  13:18:00       95.782       72.419       75.700       77.477       64.100       47.542     6002.684     4108.840     2260.218        1.626        0.619      120.078       45.276        0.142      337.876       10.144      864.201
01/31/2015  13:19:00       62.738       85.938      115.162       95.054       86.237       64.944     9035.261     7436.850     4217.729        2.263        1.034      106.402       57.604        0.293      338.048       10.433      864.175
01/31/2015  13:20:00      152.693      130.277      101.466      105.479       93.123       89.356    11125.733     8671.984     7984.434        3.918        1.389      200.717       76.049        0.144      337.775        9.974      864.151
01/31/2015  13:21:00      231.348      143.033       42.390       99.685       71.420       74.456     9937.023     5100.831     5543.767        4.818        1.029      271.993       43.069        0.025      337.786        9.993      864.159
01/31/2015  13:22:00      237.265      152.361        8.323      104.636       78.065       52.631    10948.757     6094.094     2769.986        4.969        0.991      281.972       41.054        0.021      337.947       10.262      864.165
01/31/2015  13:23:00       37.756       95.694       98.948       56.802       63.582       58.650     3226.499     4042.698     3439.878        1.554        0.535      102.873       50.085        0.237      337.952       10.273      864.193
01/31/2015  13:24:00      124.967       36.641       44.646       89.638       77.866       50.676     8035.026     6063.149     2568.099        1.781        0.833      130.228       44.628        0.117      337.641        9.751      864.189
01/31/2015  13:25:00       46.604       51.175       82.843       53.489       72.956       46.049     2861.089     5322.510     2120.541        1.098        0.515       69.216       48.612        0.493      337.901       10.188      864.170
01/31/2015  13:26:00       32.146       44.374       32.899       30.286       33.612       36.269      917.224     1129.772     1315.454        0.372        0.168       54.795        9.895        0.033      338.237       10.751      864.161
01/31/2015  13:27:00      140.420      146.603      -13.976      126.274      100.124       54.128    15945.166    10024.766     2929.883        3.515        1.445      203.003       47.885        0.056      338.002       10.354      864.161
01/31/2015  13:28:00      157.220      124.382        6.182       82.139       57.748       50.888     6746.824     3334.807     2589.557        2.645        0.634      200.472       38.071        0.036      337.848       10.098      864.167
01/31/2015  13:29:00       68.406      135.276      -10.653       73.518       98.361       53.094     5404.876     9674.976     2819.003        2.049        0.895      151.588       52.383        0.119      337.870       10.134      864.169
01/31/2015  13:30:00       72.411       90.734       -5.291       53.755       60.820       46.468     2889.631     3699.046     2159.269        1.112        0.437      116.086       34.131        0.086      337.794       10.009      864.162
01/31/2015  13:31:00       94.999      198.521      -20.485       79.832      108.004       66.680     6373.157    11664.923     4446.171        3.567        1.124      220.080       63.509        0.083      337.843       10.088      864.162
01/31/2015  13:32:00       36.415      133.878      -21.043       65.636       55.299       36.510     4308.126     3057.976     1332.993        1.419        0.435      138.742       26.601        0.037      337.807       10.030      864.165
01/31/2015  13:33:00       55.421      154.221      -29.271       32.779       80.782       38.530     1074.443     6525.689     1484.580        1.840        0.454      163.877       44.095        0.072      337.617        9.712      864.155
01/31/2015  13:34:00       50.243       92.378       12.762       49.850       43.919       44.942     2485.015     1928.856     2019.807        0.883        0.322      105.157       29.219        0.077      337.882       10.158      864.148
01/31/2015  13:35:00       86.696       77.351       14.022       53.961       55.810       48.889     2911.756     3114.720     2390.133        1.105        0.421      116.187       38.338        0.109      337.879       10.151      864.151
01/31/2015  13:36:00      112.659       91.158       79.381       89.924       64.317       56.362     8086.247     4136.662     3176.648        2.135        0.770      144.920       48.165        0.110      338.249       10.770      864.143
01/31/2015  13:37:00      173.427      138.861       31.795       76.979       58.363       55.920     5925.717     3406.218     3127.048        3.141        0.623      222.169       36.646        0.027      337.874       10.140      864.149
01/31/2015  13:38:00       91.054      194.795      -13.490      136.271       66.949       53.200    18569.902     4482.152     2830.233        3.615        1.294      215.026       59.998        0.078      337.691        9.831      864.141
01/31/2015  13:39:00       11.601       60.713        7.888       41.812       56.514       34.145     1748.212     3193.812     1165.914        0.499        0.305       61.811       36.162        0.342      337.950       10.270      864.112
01/31/2015  13:40:00       28.187      164.103      -11.477       59.890       93.099       52.200     3586.857     8667.504     2724.820        2.142        0.749      166.506       58.590        0.124      337.995       10.344      864.095
01/31/2015  13:41:00       77.022      205.911      -29.711       90.770      104.756       67.307     8239.162    10973.923     4530.173        3.647        1.187      219.845       67.063        0.093      337.915       10.207      864.079
01/31/2015  13:42:00      134.096      104.177       18.799      117.906       85.663       58.739    13901.818     7338.231     3450.312        2.694        1.235      169.808       45.316        0.071      338.059       10.450      864.061
01/31/2015  13:43:00      128.349      105.269       16.175       90.130       63.338       56.073     8123.333     4011.690     3144.196        2.155        0.764      165.997       32.646        0.039      337.920       10.218      864.046
01/31/2015  13:44:00      160.801      154.326       -5.612       89.643       83.749       53.362     8035.868     7013.850     2847.480        3.380        0.895      222.876       43.200        0.038      337.934       10.241      864.041
01/31/2015  13:45:00       47.062       95.913       -3.876       68.627       77.247       42.477     4709.679     5967.034     1804.268        1.195        0.624      106.837       41.553        0.151      337.941       10.256      864.042
01/31/2015  13:46:00       58.060      102.353      -13.426       65.867       88.327       33.332     4338.498     7801.670     1111.009        1.364        0.663      117.674       46.346        0.155      337.987       10.333      864.027
01/31/2015  13:47:00      126.454       69.689       18.929       66.987       52.208       43.757     4487.231     2725.697     1914.695        1.517        0.456      144.386       31.754        0.048      338.087       10.499      864.028
01/31/2015  13:48:00       85.512      161.347       -4.953       78.883       99.579       69.660     6222.469     9916.071     4852.465        2.718        1.050      182.606       61.082        0.112      338.088       10.500      864.018
01/31/2015  13:49:00      116.369       68.284       45.227       89.544       63.143       58.823     8018.084     3987.019     3460.110        1.785        0.773      134.923       31.141        0.053      338.477       11.154      864.026
01/31/2015  13:50:00       75.537       69.459       63.625       77.299       40.844       43.428     5975.150     1668.247     1885.983        1.205        0.476      102.617       39.179        0.146      338.296       10.852      864.018
01/31/2015  13:51:00       71.498       78.425       76.579       79.333       68.848       68.805     6293.686     4740.094     4734.118        1.644        0.788      106.124       65.945        0.386      338.258       10.787      863.988
01/31/2015  13:52:00       23.457      -11.027       17.329       33.322       64.411       32.760     1110.332     4148.811     1073.223        0.365        0.317       25.920       10.818        0.174      338.544       11.269      863.977
01/31/2015  13:53:00      164.087      101.556       16.735       65.212       66.855       49.888     4252.649     4469.568     2488.802        2.436        0.561      192.972        4.403        0.001      338.435       11.084      863.973
01/31/2015  13:54:00      167.865      134.682       89.466      132.235       76.765       86.755    17485.972     5892.911     7526.467        4.261        1.545      215.217       90.705        0.178      338.198       10.682      863.972
01/31/2015  13:55:00      123.504       27.349       76.379       99.645       79.206       57.684     9929.216     6273.659     3327.400        2.068        0.977      126.496       55.434        0.192      338.275       10.815      863.983
01/31/2015  13:56:00       53.673       25.797       31.440       73.157       60.838       49.257     5351.952     3701.268     2426.221        0.801        0.574       59.551       23.728        0.159      338.401       11.027      863.984
01/31/2015  13:57:00       50.370       55.113       86.356       67.362       61.881       50.445     4537.676     3829.235     2544.667        1.197        0.546       74.663       48.030        0.414      338.266       10.800      863.975
01/31/2015  13:58:00      145.556       92.984       52.240       81.541       47.896       57.105     6648.949     2294.041     3260.925        2.238        0.610      172.721       39.382        0.052      338.488       11.172      863.973
01/31/2015  13:59:00      159.240      117.591       20.493      107.901       77.299       62.066    11642.638     5975.122     3852.208        3.053        1.073      197.952       46.727        0.056      338.318       10.885      863.993
01/31/2015  14:00:00      194.821      156.017       21.218       96.345       73.494       66.250     9282.350     5401.344     4389.011        4.091        0.954      249.593       51.784        0.043      338.213       10.709      863.992
01/31/2015  14:01:00      171.384      106.160       11.013       89.532       88.884       72.710     8016.015     7900.369     5286.701        3.098        1.060      201.600       39.143        0.038      338.486       11.168      863.993
01/31/2015  14:02:00       40.991       65.620      106.064       66.485       98.413       75.328     4420.268     9685.139     5674.268        1.850        0.989       77.371       77.979        1.016      338.714       11.552      864.006
01/31/2015  14:03:00       16.934       62.532       86.210       58.779       80.984       40.843     3454.935     6558.336     1668.180        1.165        0.584       64.785       35.884        0.307      338.742       11.601      864.017
01/31/2015  14:04:00      150.551      138.364       92.460      102.364       80.049       73.640    10478.423     6407.835     5422.899        3.633        1.115      204.475       66.904        0.107      338.355       10.946      864.053
01/31/2015  14:05:00       72.935       81.978       66.936       80.632       60.195       55.335     6501.589     3623.408     3061.942        1.485        0.659      109.727       46.536        0.180      338.293       10.844      864.088
01/31/2015  14:06:00       57.045       41.570       -9.016       65.908       44.824       29.389     4343.902     2009.155      863.695        0.614        0.361       70.585       22.476        0.101      338.500       11.194      864.113
01/31/2015  14:07:00       67.999       85.678        8.730       68.546       69.927       56.701     4698.504     4889.752     3214.999        1.242        0.640      109.383       50.100        0.210      338.588       11.342      864.130
01/31/2015  14:08:00      150.832       91.598       22.080       81.856       68.815       47.343     6700.447     4735.492     2241.353        2.265        0.684      176.467       22.372        0.016      338.381       10.992      864.137
01/31/2015  14:09:00       75.050       96.999       -9.290       71.372       54.485       36.533     5093.994     2968.589     1334.647        1.226        0.470      122.643       30.164        0.060      338.440       11.091      864.161
01/31/2015  14:10:00      207.013      154.611        4.165       91.852       75.817       61.021     8436.807     5748.221     3723.615        4.234        0.895      258.378       38.438        0.022      338.453       11.110      864.160
01/31/2015  14:11:00      142.950      158.668      -10.495       98.252       76.035       55.275     9653.542     5781.288     3055.313        3.210        0.925      213.566       40.192        0.035      338.296       10.848      864.171
01/31/2015  14:12:00      148.915       80.730       24.983      100.950       69.703       54.172    10190.930     4858.526     2934.627        2.365        0.899      169.390       33.230        0.038      338.419       11.055      864.146
01/31/2015  14:13:00      264.738      140.010       58.014      108.911       74.279       67.369    11861.611     5517.309     4538.600        5.748        1.096      299.482       55.176        0.034      338.399       11.021      864.141
01/31/2015  14:14:00      161.935      118.354       17.489       83.536       73.226       61.603     6978.271     5362.071     3794.904        2.833        0.807      200.576       29.001        0.021      338.397       11.020      864.141
01/31/2015  14:15:00      142.422      151.612       21.154      111.800       81.917       59.874    12499.195     6710.465     3584.853        3.325        1.140      208.015       48.101        0.053      338.544       11.265      864.119
01/31/2015  14:16:00      257.014      149.028       32.498       82.165       70.860       71.955     6751.086     5021.074     5177.574        5.313        0.847      297.095       34.872        0.014      338.402       11.026      864.102
01/31/2015  14:17:00      103.070       85.824       17.853       94.257       74.854       59.644     8884.473     5603.173     3557.418        1.817        0.902      134.124       42.994        0.103      338.397       11.020      864.091
01/31/2015  14:18:00      125.183       87.072       15.927      108.028       69.137       55.872    11670.051     4779.866     3121.639        2.154        0.979      152.487       31.369        0.042      338.360       10.956      864.083
01/31/2015  14:19:00       67.666       93.777       11.404       67.298       65.213       41.271     4529.016     4252.775     1703.288        1.199        0.524      115.641       37.013        0.102      338.415       11.050      864.079
01/31/2015  14:20:00      117.160       68.653       25.762       80.518       50.217       50.384     6483.212     2521.764     2538.508        1.532        0.577      135.793       42.458        0.098      338.517       11.222      864.085
01/31/2015  14:21:00       89.867      129.673       -1.651       83.186       84.293       52.681     6919.848     7105.285     2775.309        2.084        0.840      157.769       50.489        0.102      338.530       11.242      864.106
01/31/2015  14:22:00       87.267      136.417      -15.559       82.729       89.095       49.082     6844.164     7937.921     2409.066        2.183        0.860      161.942       44.178        0.074      338.638       11.425      864.117
01/31/2015  14:23:00       73.372       69.772       42.010      104.497       80.665       64.928    10919.595     6506.829     4215.625        1.683        1.082      101.250       45.139        0.199      338.870       11.815      864.130
01/31/2015  14:24:00      142.111      105.594       61.080      116.847       78.811       63.441    13653.260     6211.100     4024.736        2.948        1.194      177.047       48.009        0.074      338.656       11.455      864.154
01/31/2015  14:25:00      169.459       75.997       38.277      140.284       82.345       53.895    19679.544     6780.657     2904.697        3.266        1.468      185.720       47.938        0.067      338.354       10.945      864.163
01/31/2015  14:26:00      104.646      107.303       78.783       87.037       72.593       65.308     7575.370     5269.725     4265.162        2.289        0.856      149.882       57.657        0.148      338.476       11.151      864.161
01/31/2015  14:27:00      173.726      139.979       57.149      129.226       90.740       67.778    16699.323     8233.818     4593.853        4.128        1.476      223.103       29.429        0.017      338.551       11.278      864.162
01/31/2015  14:28:00      196.824      139.597       43.652      102.378       89.013       69.394    10481.154     7923.359     4815.521        4.167        1.161      241.303       50.196        0.043      338.655       11.450      864.191
01/31/2015  14:29:00      102.851      126.534       13.120       90.448       69.495       58.790     8180.846     4829.596     3456.301        2.161        0.823      163.062       49.139        0.091      338.485       11.167      864.228
01/31/2015  14:30:00      143.787      121.030       17.744      114.485       87.396       63.275    13106.778     7638.117     4003.779        3.019        1.237      187.944       49.519        0.069      338.458       11.120      864.236
01/31/2015  14:31:00      133.448       93.259       18.377       98.882       53.809       39.822     9777.690     2895.423     1585.790        2.055        0.713      162.806       35.254        0.047      338.262       10.790      864.246
01/31/2015  14:32:00       49.590      106.214        9.135       59.711       84.127       60.445     3565.437     7077.338     3653.627        1.406        0.715      117.220       54.663        0.217      338.585       11.335      864.238
01/31/2015  14:33:00       80.831      142.914      -17.343       59.527       91.233       46.910     3543.419     8323.499     2200.536        2.066        0.703      164.189       49.956        0.093      338.447       11.102      864.250
01/31/2015  14:34:00       64.083       96.102        5.446       63.875       55.977       45.086     4080.000     3133.479     2032.745        1.131        0.462      115.508       31.698        0.075      338.527       11.238      864.242
01/31/2015  14:35:00      112.535       85.793        8.178      100.096       66.259       51.932    10019.145     4390.248     2696.914        1.860        0.855      141.508       24.722        0.031      338.697       11.522      864.250
01/31/2015  14:36:00      144.535      113.885       38.717       85.167       68.795       55.588     7253.355     4732.791     3090.013        2.522        0.754      184.011       28.839        0.025      338.596       11.353      864.258
01/31/2015  14:37:00      161.806      113.510       19.969       66.953       49.162       44.400     4482.697     2416.903     1971.344        2.417        0.444      197.651       14.201        0.005      338.437       11.084      864.272
01/31/2015  14:38:00       59.836       52.647       12.101       59.819       55.245       43.887     3578.316     3051.958     1926.096        0.753        0.428       79.700       29.642        0.138      338.591       11.346      864.274
01/31/2015  14:39:00       18.867      143.722      -24.571       37.044       76.246       27.417     1372.229     5813.431      751.669        1.478        0.397      144.955       37.423        0.067      338.500       11.193      864.279
01/31/2015  14:40:00       83.597       87.491        0.556       77.741       73.514       50.909     6043.720     5404.249     2591.716        1.434        0.702      121.008       44.761        0.137      338.646       11.438      864.294
01/31/2015  14:41:00       80.778      174.429      -17.137       73.733      120.644       59.908     5436.537    14554.873     3588.943        3.041        1.179      192.225       64.162        0.111      338.363       10.961      864.307
01/31/2015  14:42:00      104.245      173.115      -26.640       91.343      123.100       53.614     8343.609    15153.551     2874.493        3.395        1.319      202.079       62.945        0.097      338.564       11.299      864.307
01/31/2015  14:43:00      146.013      129.064        0.315      115.150       78.927       55.600    13259.509     6229.487     3091.401        3.028        1.129      194.878       44.050        0.051      338.597       11.355      864.335
01/31/2015  14:44:00       74.418      215.132      -35.881       55.810       78.963       46.166     3114.714     6235.182     2131.270        3.229        0.574      227.640       39.315        0.030      338.615       11.383      864.360
01/31/2015  14:45:00       91.969      150.668       -8.626       75.069       88.986       57.406     5635.351     7918.491     3295.462        2.404        0.842      176.519       56.376        0.102      338.592       11.345      864.365
01/31/2015  14:46:00      104.682      113.702       14.254       86.437       88.419       52.723     7471.360     7818.006     2779.763        2.108        0.903      154.553       51.696        0.112      338.678       11.490      864.360
01/31/2015  14:47:00      106.601      111.366       -1.118       97.247       62.173       51.648     9456.930     3865.429     2667.471        1.988        0.799      154.163       35.962        0.054      338.765       11.638      864.359
01/31/2015  14:48:00      131.078      116.216        8.845      116.533       70.150       54.100    13579.867     4921.015     2926.851        2.609        1.071      175.179       38.746        0.049      338.749       11.611      864.358
01/31/2015  14:49:00      107.951      191.105      -13.800       85.483       94.328       73.765     7307.296     8897.822     5441.320        3.500        1.082      219.487       55.187        0.063      338.453       11.112      864.370
01/31/2015  14:50:00       62.796      154.630      -21.047       49.139       79.965       48.576     2414.595     6394.469     2359.589        1.973        0.558      166.895       47.245        0.080      338.400       11.024      864.368
01/31/2015  14:51:00       -5.057      211.729      -24.640       82.122       71.502       41.016     6743.988     5112.601     1682.350        2.950        0.677      211.789       42.153        0.040      338.491       11.176      864.383
01/31/2015  14:52:00        6.962       81.145      -10.795       67.005       43.784       32.777     4489.617     1917.015     1074.320        0.711        0.374       81.443       23.791        0.085      338.497       11.189      864.383
01/31/2015  14:53:00      -10.025      175.738      -35.074       39.963      108.506       35.109     1597.019    11773.556     1232.619        2.341        0.730      176.024       46.266        0.069      338.520       11.225      864.375
01/31/2015  14:54:00       28.877      276.737      -50.834       53.093       62.591       32.967     2818.865     3917.640     1086.840        4.391        0.391      278.240       32.079        0.013      338.397       11.016      864.376
01/31/2015  14:55:00        1.706      203.548      -43.601       54.247       68.733       26.843     2942.684     4724.287      720.558        2.586        0.419      203.555       25.128        0.015      338.356       10.950      864.368
01/31/2015  14:56:00      -71.190      169.453      -29.550       63.240      111.029       41.430     3999.305    12327.498     1716.419        2.635        0.902      183.800       55.979        0.093      338.658       11.458      864.356
01/31/2015  14:57:00       21.532      166.727      -20.502       53.236       89.580       52.498     2834.040     8024.504     2756.034        2.115        0.681      168.112       58.078        0.119      338.430       11.073      864.347
01/31/2015  14:58:00      -56.430      207.013      -33.426       45.992       55.175       27.068     2115.294     3044.260      732.661        2.652        0.295      214.566       21.948        0.010      338.577       11.322      864.336
01/31/2015  14:59:00      -61.895      143.164      -33.615       29.500       52.165       21.424      870.246     2721.225      459.005        1.475        0.203      155.971       14.549        0.009      338.450       11.111      864.328
01/31/2015  15:00:00      -46.320       40.656       10.115       33.487       32.760       28.342     1121.372     1073.186      803.270        0.345        0.150       61.632       24.912        0.163      338.973       11.989      864.312
01/31/2015  15:01:00       71.635      139.786       -9.706       65.293       96.200       53.854     4263.206     9254.415     2900.205        2.059        0.821      157.072       57.724        0.135      338.649       11.443      864.292
01/31/2015  15:02:00       60.507      202.000      -22.155       70.512       96.789       51.555     4971.906     9368.163     2657.923        3.097        0.850      210.867       51.876        0.061      338.759       11.627      864.287
01/31/2015  15:03:00       90.871      184.146      -22.423       56.622      116.932       56.629     3206.072    13673.138     3206.812        3.137        1.004      205.346       61.656        0.090      338.734       11.583      864.281
01/31/2015  15:04:00       90.350      167.126      -21.336       62.209       90.352       55.257     3869.961     8163.532     3053.284        2.582        0.754      189.985       56.620        0.089      338.822       11.733      864.264
01/31/2015  15:05:00      255.556      182.459       24.081      100.283       79.817       65.828    10056.627     6370.753     4333.276        5.997        1.038      314.007       39.364        0.016      338.726       11.570      864.260
01/31/2015  15:06:00      220.099      169.128       26.836       75.052       57.863       57.517     5632.800     3348.094     3308.175        4.503        0.614      277.575       29.047        0.011      338.586       11.334      864.265
01/31/2015  15:07:00      170.785      113.190       25.848       75.945       68.990       46.349     5767.608     4759.678     2148.213        2.766        0.634      204.889       34.580        0.028      338.552       11.278      864.277
01/31/2015  15:08:00       74.845       80.030        5.594       64.311       67.563       47.614     4135.910     4564.755     2267.102        1.150        0.548      109.574       26.871        0.060      338.704       11.535      864.284
01/31/2015  15:09:00      191.689      147.704       10.894      105.615       70.361       66.107    11154.608     4950.672     4370.113        3.957        1.024      241.994       40.165        0.028      338.587       11.337      864.299
01/31/2015  15:10:00       77.683      150.855       -7.528       90.419       81.791       53.547     8175.679     6689.710     2867.247        2.329        0.887      169.682       40.299        0.056      338.457       11.120      864.317
01/31/2015  15:11:00      178.762      146.005       16.232       93.353       69.991       64.258     8714.751     4898.716     4129.126        3.564        0.887      230.810       32.597        0.020      338.534       11.248      864.317
01/31/2015  15:12:00      274.952      130.162       55.029      101.520       77.380       52.717    10306.341     5987.704     2779.050        5.732        0.954      304.205       40.026        0.017      338.635       11.419      864.291
01/31/2015  15:13:00      126.364      141.405       -1.820       94.570       91.746       63.629     8943.468     8417.366     4048.630        2.868        1.070      189.640       55.550        0.086      338.670       11.477      864.315
01/31/2015  15:14:00       86.538      183.194      -29.726       70.573       92.591       55.191     4980.609     8573.105     3046.064        2.926        0.830      202.605       50.422        0.062      338.514       11.214      864.327
01/31/2015  15:15:00       94.740       98.658       25.106       74.050       52.294       41.246     5483.360     2734.642     1701.272        1.463        0.496      136.781       18.764        0.019      338.640       11.429      864.327
01/31/2015  15:16:00      166.624      122.236       15.378       76.281       74.536       51.252     5818.808     5555.647     2626.723        2.847        0.700      206.652       32.032        0.024      338.618       11.390      864.331
01/31/2015  15:17:00      118.594      140.205        7.660       82.482       93.158       64.665     6803.217     8678.455     4181.564        2.672        0.983      183.635       48.550        0.070      338.714       11.554      864.336
01/31/2015  15:18:00      147.261      165.556       -4.571       80.999       73.995       64.266     6560.914     5475.329     4130.056        3.264        0.808      221.573       58.340        0.069      338.590       11.341      864.342
01/31/2015  15:19:00      139.392      119.953        6.397       81.978       43.318       45.482     6720.370     1876.492     2068.587        2.226        0.533      183.900       27.132        0.022      338.569       11.308      864.330
01/31/2015  15:20:00       65.739      117.287       -0.648       71.159       65.102       55.277     5063.563     4238.295     3055.502        1.522        0.618      134.453       44.814        0.111      338.718       11.561      864.335
01/31/2015  15:21:00       60.154      178.604      -34.105       38.464       59.338       35.380     1479.513     3520.956     1251.763        2.147        0.313      188.462       32.416        0.030      338.671       11.479      864.325
01/31/2015  15:22:00       58.067      114.470       -9.316       67.214       77.847       50.325     4517.690     6060.189     2532.593        1.483        0.656      128.356       46.661        0.132      338.738       11.593      864.320
01/31/2015  15:23:00      131.479      111.024       15.438       97.436       71.680       65.478     9493.711     5137.995     4287.414        2.438        0.946      172.084       50.384        0.086      338.813       11.718      864.321
01/31/2015  15:24:00       76.754      166.799      -16.296       59.999      105.683       51.755     3599.884    11168.826     2678.564        2.571        0.872      183.611       54.466        0.088      338.632       11.413      864.321
01/31/2015  15:25:00        4.838      172.384      -13.212       56.111       95.469       41.973     3148.481     9114.245     1761.765        2.197        0.701      172.451       47.046        0.074      338.728       11.576      864.332
01/31/2015  15:26:00       64.370      194.155      -10.678      115.651       86.662       61.025    13375.178     7510.358     3724.085        3.328        1.230      204.547       60.085        0.086      338.773       11.649      864.341
01/31/2015  15:27:00      201.722      163.430        3.546       82.054       62.283       51.464     6732.796     3879.227     2648.535        4.033        0.663      259.617       33.552        0.017      338.584       11.332      864.358
01/31/2015  15:28:00      130.674       89.384       11.263       70.238       48.719       33.039     4933.438     2373.523     1091.599        1.679        0.420      158.319       20.068        0.016      338.678       11.490      864.364
01/31/2015  15:29:00      183.156      170.295        7.703      113.112       93.480       72.771    12794.279     8738.451     5295.561        4.471        1.341      250.093       58.805        0.055      338.667       11.471      864.359
01/31/2015  15:30:00      219.769      183.013       12.563      103.701       75.936       73.629    10753.891     5766.245     5421.211        5.194        1.097      285.993       48.764        0.029      338.690       11.509      864.351
01/31/2015  15:31:00      189.538      106.108       30.781       92.829       54.828       49.048     8617.240     3006.103     2405.749        3.108        0.701      217.218       19.428        0.008      338.626       11.402      864.371
01/31/2015  15:32:00      124.847      162.875       -9.443       80.930       79.310       56.706     6549.703     6290.032     3215.623        2.913        0.803      205.220       42.117        0.042      338.689       11.508      864.383
01/31/2015  15:33:00       43.987      112.990      -10.761       41.023       74.966       41.527     1682.871     5619.967     1724.471        1.192        0.451      121.250       45.385        0.140      338.610       11.379      864.387
01/31/2015  15:34:00       35.803      127.490       -4.532       62.505       83.222       39.859     3906.829     6925.970     1588.744        1.499        0.621      132.422       44.262        0.112      338.702       11.532      864.378
01/31/2015  15:35:00      197.239      153.751       30.468       82.223       69.656       68.571     6760.587     4852.010     4701.974        3.989        0.816      250.085       35.010        0.020      338.695       11.518      864.374
01/31/2015  15:36:00      191.552      127.127       17.790       90.582       74.918       52.740     8205.145     5612.666     2781.461        3.488        0.830      229.898       35.314        0.024      338.680       11.494      864.364
01/31/2015  15:37:00      186.719      130.981       14.335       56.292       51.681       49.932     3168.832     2670.890     2493.232        3.028        0.417      228.079       30.774        0.018      338.632       11.412      864.380
01/31/2015  15:38:00      108.521       80.903       32.579       59.838       46.420       39.539     3580.636     2154.801     1563.317        1.334        0.365      135.359       20.613        0.023      338.683       11.501      864.372
01/31/2015  15:39:00       87.894       66.050       -1.354       60.156       56.649       37.142     3618.688     3209.095     1379.551        1.015        0.410      109.945       31.491        0.082      338.783       11.669      864.386
01/31/2015  15:40:00       78.809       97.450        6.256       83.795       62.598       51.008     7021.596     3918.544     2601.866        1.464        0.677      125.329       31.659        0.064      338.609       11.374      864.391
01/31/2015  15:41:00      148.910      113.073       18.449       56.684       53.678       48.391     3213.122     2881.313     2341.649        2.187        0.422      186.975       28.553        0.023      338.563       11.299      864.394
01/31/2015  15:42:00       87.337      213.087      -17.188       78.202       92.797       62.530     6115.551     8611.327     3910.030        3.598        0.932      230.291       61.161        0.071      338.583       11.329      864.389
01/31/2015  15:43:00       50.488      141.317      -16.620       48.670       75.179       47.879     2368.816     5651.808     2292.442        1.655        0.516      150.065       43.275        0.083      338.660       11.462      864.399
01/31/2015  15:44:00       58.676      176.364      -23.476       64.774       85.875       51.656     4195.609     7374.544     2668.357        2.467        0.712      185.868       50.782        0.075      338.755       11.620      864.395
01/31/2015  15:45:00      166.865      131.768       15.617       80.926       77.450       57.948     6548.993     5998.498     3357.929        3.068        0.795      212.619       25.823        0.015      338.750       11.610      864.393
01/31/2015  15:46:00      164.812      135.336       16.828       64.767       60.705       50.181     4194.717     3685.040     2518.154        2.808        0.520      213.258       33.821        0.025      338.660       11.460      864.393
01/31/2015  15:47:00      108.494       54.861       36.693       93.121       55.524       53.913     8671.572     3082.959     2906.586        1.539        0.733      121.575       51.948        0.183      338.698       11.525      864.381
01/31/2015  15:48:00       70.267       66.529       14.491       38.608       27.183       33.052     1490.615      738.918     1092.467        0.645        0.166       96.765       18.453        0.036      338.732       11.583      864.384
01/31/2015  15:49:00       19.112       40.617       -4.006       44.066       34.322       25.178     1941.786     1177.997      633.937        0.289        0.188       44.889       20.979        0.218      338.723       11.568      864.379
01/31/2015  15:50:00       40.224      118.253      -14.784       41.936       56.621       34.536     1758.655     3205.963     1192.709        1.099        0.308      124.907       29.879        0.057      338.657       11.457      864.381
01/31/2015  15:51:00       92.719       55.821       17.129       30.953       24.360       24.592      958.119      593.401      604.789        0.708        0.108      108.226       10.339        0.009      338.638       11.424      864.379
01/31/2015  15:52:00       43.781       40.896        8.057       27.137       31.811       27.119      736.408     1011.961      735.437        0.307        0.124       59.910       23.155        0.149      338.732       11.584      864.383
01/31/2015  15:53:00       58.211       33.294       16.408       52.099       42.616       29.200     2714.287     1816.100      852.664        0.507        0.269       67.060       21.793        0.106      338.841       11.766      864.390
01/31/2015  15:54:00       52.936       48.695        2.144       52.130       41.018       30.137     2717.558     1682.462      908.218        0.524        0.265       71.926       30.351        0.178      338.821       11.733      864.389
01/31/2015  15:55:00       42.329       46.764       32.096       43.283       22.272       23.484     1873.423      496.026      551.478        0.396        0.146       63.076       24.712        0.153      338.935       11.925      864.388
01/31/2015  15:56:00      102.954       46.171        5.785       53.657       31.487       28.539     2879.098      991.434      814.491        0.872        0.234      112.833       14.123        0.016      338.786       11.674      864.390
01/31/2015  15:57:00       64.412       51.456       23.311       63.128       45.510       33.531     3985.088     2071.158     1124.348        0.726        0.359       82.441       31.244        0.144      338.852       11.786      864.381
01/31/2015  15:58:00       22.022       23.252       37.370       40.581       45.317       32.450     1646.809     2053.648     1052.991        0.359        0.238       32.025       26.568        0.688      338.879       11.830      864.374
01/31/2015  15:59:00       89.710       71.601       53.866       66.570       62.325       45.021     4431.505     3884.421     2026.930        1.321        0.517      114.781       43.384        0.143      338.814       11.722      864.375
01/31/2015  16:00:00       63.408       32.826       15.188       46.460       34.807       33.872     2158.527     1211.520     1147.313        0.492        0.226       71.401       23.199        0.106      338.820       11.731      864.373
01/31/2015  16:01:00       18.458       52.647       -6.977       27.707       18.243       23.956      767.703      332.805      573.911        0.242        0.084       55.789       14.417        0.067      338.799       11.696      864.381
01/31/2015  16:02:00       32.309       58.364      -14.037       19.120       20.364       17.074      365.558      414.700      291.538        0.286        0.054       66.710        8.325        0.016      338.783       11.669      864.382
01/31/2015  16:03:00       29.945       62.232       -4.321       37.005       36.060       17.282     1369.389     1300.308      298.669        0.388        0.148       69.061       12.670        0.034      338.756       11.624      864.393
01/31/2015  16:04:00       65.333       87.331        3.634       97.174       36.016       28.047     9442.782     1297.164      786.635        1.172        0.576      109.065       28.566        0.069      338.744       11.603      864.405
01/31/2015  16:05:00      129.960       76.890       14.390       72.843       60.598       49.974     5306.070     3672.109     2497.362        1.724        0.574      151.002       42.015        0.077      338.648       11.440      864.400
01/31/2015  16:06:00      167.562      101.550       24.325       49.473       37.200       33.667     2447.546     1383.871     1133.487        2.197        0.248      195.932       22.574        0.013      338.617       11.390      864.399
01/31/2015  16:07:00       98.111       72.992       53.889       83.838       66.806       52.442     7028.885     4463.045     2750.200        1.605        0.712      122.284       50.753        0.172      338.727       11.575      864.396
01/31/2015  16:08:00       20.558       79.144       97.181       39.520       42.376       27.516     1561.820     1795.737      757.120        1.012        0.206       81.771       24.348        0.089      338.730       11.581      864.400
01/31/2015  16:09:00       -5.646       32.687       51.540       48.891       31.788       31.159     2390.374     1010.457      970.859        0.406        0.219       33.171       26.531        0.640      338.775       11.655      864.388
01/31/2015  16:10:00       58.794       68.185       62.275       77.816       65.203       58.327     6055.375     4251.437     3402.084        1.284        0.685       90.033       47.891        0.283      338.763       11.636      864.378
01/31/2015  16:11:00      136.442       72.555       22.939       77.739       51.168       50.879     6043.382     2618.113     2588.696        1.783        0.563      154.534       40.993        0.070      338.699       11.528      864.358
01/31/2015  16:12:00      133.699       62.146       25.093       75.913       48.278       39.670     5762.774     2330.725     1573.738        1.602        0.483      147.436       37.970        0.066      338.664       11.468      864.332
01/31/2015  16:13:00       49.059       11.806        7.220       25.903       20.567       14.691      670.944      422.987      215.821        0.195        0.065       50.459       10.446        0.043      338.709       11.545      864.309
01/31/2015  16:14:00       35.606       36.320        2.993       40.028       44.997       26.345     1602.251     2024.733      694.058        0.346        0.216       50.862       16.042        0.099      338.711       11.549      864.288
01/31/2015  16:15:00      113.331       74.813       22.278       45.478       32.031       28.255     2068.255     1025.961      798.336        1.141        0.195      135.797       16.517        0.015      338.704       11.536      864.287
01/31/2015  16:16:00       56.434       39.798       19.327       43.532       32.765       28.004     1895.009     1073.546      784.234        0.445        0.188       69.056       15.284        0.049      338.770       11.648      864.289
01/31/2015  16:17:00      111.371       65.247       18.760       76.248       48.792       32.818     5813.709     2380.660     1077.043        1.314        0.464      129.076       30.873        0.057      338.769       11.645      864.275
01/31/2015  16:18:00       75.799       53.668       25.185       48.318       42.248       30.362     2334.627     1784.909      921.846        0.715        0.252       92.875       23.231        0.063      338.739       11.595      864.261
01/31/2015  16:19:00      109.467       71.664       13.039       45.323       46.908       33.084     2054.214     2200.338     1094.555        1.132        0.267      130.838       20.144        0.024      338.709       11.544      864.247
01/31/2015  16:20:00      122.067       84.152       26.280       29.130       21.215       25.829      848.567      450.088      667.157        1.232        0.098      148.264       13.664        0.008      338.685       11.503      864.231
01/31/2015  16:21:00       93.072       62.577       25.319       36.195       31.539       26.411     1310.082      994.694      697.517        0.811        0.150      112.153       20.455        0.033      338.675       11.488      864.219
01/31/2015  16:22:00       95.804       48.509       20.951       23.475       20.418       17.069      551.071      416.913      291.338        0.661        0.063      107.385        8.120        0.006      338.673       11.486      864.221
01/31/2015  16:23:00       62.290       38.455        7.342       25.890       17.002       18.010      670.266      289.082      324.367        0.335        0.064       73.204        9.680        0.017      338.660       11.463      864.223
01/31/2015  16:24:00      118.193       55.231       18.095       35.426       20.191       24.224     1255.021      407.674      586.811        0.980        0.112      130.461       17.371        0.018      338.699       11.528      864.213
01/31/2015  16:25:00       68.750       97.994       70.149       67.102       53.293       45.608     4502.685     2840.102     2080.133        1.433        0.471      119.705       39.464        0.109      338.700       11.529      864.195
01/31/2015  16:26:00      146.265       69.838       65.258       82.492       67.448       56.567     6804.908     4549.286     3199.829        2.254        0.728      162.082       47.657        0.086      338.696       11.522      864.177
01/31/2015  16:27:00       40.787       81.762       97.793       67.841       59.460       44.187     4602.464     3535.490     1952.485        1.400        0.505       91.371       46.669        0.261      338.672       11.483      864.166
01/31/2015  16:28:00       48.799       79.146       79.761       51.340       52.907       47.970     2635.764     2799.141     2301.077        1.137        0.387       92.981       38.099        0.168      338.722       11.567      864.151
01/31/2015  16:29:00       78.474       52.190       63.056       58.189       58.685       40.858     3385.960     3443.932     1669.393        1.068        0.425       94.244       37.384        0.157      338.722       11.566      864.146
01/31/2015  16:30:00       19.713       56.883       68.779       40.359       43.362       36.556     1628.866     1880.257     1336.313        0.660        0.242       60.202       31.324        0.271      338.719       11.562      864.136
01/31/2015  16:31:00      118.366       71.531       22.342       56.685       34.476       31.103     3213.241     1188.593      967.417        1.250        0.268      138.301       17.582        0.016      338.642       11.432      864.136
01/31/2015  16:32:00       82.900       67.232       22.373       46.512       34.461       30.261     2163.351     1187.541      915.731        0.808        0.213      106.736       27.328        0.066      338.616       11.388      864.141
01/31/2015  16:33:00       94.135       39.304       17.441       38.071       27.687       26.629     1449.380      766.577      709.086        0.682        0.146      102.011        8.763        0.007      338.620       11.394      864.152
01/31/2015  16:34:00       89.786       71.013       22.181       23.772       24.023       26.316      565.116      577.084      692.533        0.772        0.092      114.474       14.752        0.017      338.642       11.432      864.162
01/31/2015  16:35:00       75.847       29.015       29.565       66.489       51.346       38.315     4420.852     2636.405     1468.002        0.800        0.426       81.207       30.889        0.145      338.662       11.465      864.173
01/31/2015  16:36:00      104.147       41.414       15.706       61.655       42.340       36.044     3801.375     1792.682     1299.196        0.985        0.345      112.079       24.063        0.046      338.634       11.419      864.174
01/31/2015  16:37:00       75.831       43.896       69.730       67.795       63.116       39.684     4596.222     3983.648     1574.785        1.135        0.508       87.619       46.991        0.288      338.666       11.472      864.160
01/31/2015  16:38:00       54.844       57.704       76.017       53.232       46.388       39.292     2833.619     2151.804     1543.850        0.932        0.326       79.609       39.535        0.247      338.690       11.512      864.142
01/31/2015  16:39:00       74.427       75.478       54.354       50.698       41.926       40.182     2570.239     1757.796     1614.578        1.007        0.297      106.002       34.964        0.109      338.730       11.580      864.131
01/31/2015  16:40:00       58.429       21.811       24.363       51.621       36.610       43.060     2664.768     1340.266     1854.207        0.517        0.293       62.367       30.200        0.234      338.628       11.408      864.119
01/31/2015  16:41:00       81.459       31.362       16.851       40.739       30.621       26.527     1659.671      937.657      703.680        0.560        0.165       87.288       20.575        0.056      338.587       11.339      864.128
01/31/2015  16:42:00       70.702       70.688       53.071       47.158       47.861       40.762     2223.881     2290.698     1661.513        0.949        0.309       99.978       23.499        0.055      338.558       11.291      864.131
01/31/2015  16:43:00      141.954       91.100       62.974       62.764       52.191       48.833     3939.372     2723.877     2384.696        2.073        0.452      168.672       33.456        0.039      338.557       11.289      864.127
01/31/2015  16:44:00      105.140       27.034       53.212       77.098       42.828       42.483     5944.075     1834.205     1804.769        1.210        0.479      108.560       25.613        0.056      338.517       11.222      864.139
01/31/2015  16:45:00      103.980       52.960       37.223       53.677       49.918       40.956     2881.175     2491.826     1677.362        1.103        0.353      116.690       31.606        0.073      338.525       11.236      864.135
01/31/2015  16:46:00       87.517       62.012       40.319       52.901       28.609       29.419     2798.544      818.475      865.472        0.881        0.224      107.260       18.434        0.030      338.525       11.235      864.129
01/31/2015  16:47:00      101.156       80.239       49.954       92.606       42.292       30.544     8575.863     1788.614      932.954        1.523        0.565      129.116       35.692        0.076      338.524       11.233      864.120
01/31/2015  16:48:00       97.928       36.780       33.659       59.265       44.030       32.803     3512.310     1938.628     1076.059        0.930        0.326      104.607       23.525        0.051      338.478       11.156      864.112
01/31/2015  16:49:00       72.344       72.478       78.790       49.723       44.876       40.488     2472.348     2013.873     1639.266        1.141        0.306      102.405       29.756        0.084      338.474       11.150      864.110
01/31/2015  16:50:00       86.453       42.575       20.197       52.827       30.639       29.542     2790.660      938.759      872.704        0.715        0.230       96.368       21.245        0.049      338.436       11.087      864.110
01/31/2015  16:51:00      114.948       60.394       35.219       63.066       47.919       46.716     3977.272     2296.274     2182.345        1.328        0.423      129.848       25.793        0.039      338.472       11.147      864.099
01/31/2015  16:52:00      111.170       42.554       22.676       79.613       41.338       39.617     6338.183     1708.845     1569.485        1.215        0.481      119.036       24.143        0.041      338.464       11.132      864.086
01/31/2015  16:53:00      166.571       92.910       40.023       57.303       33.897       33.889     3283.594     1149.005     1148.464        2.178        0.279      190.730       26.811        0.020      338.491       11.177      864.081
01/31/2015  16:54:00      109.630       33.308       13.276       74.675       50.537       38.833     5576.369     2554.034     1508.011        1.147        0.482      114.578       28.065        0.060      338.461       11.128      864.079
01/31/2015  16:55:00       54.280       23.708       19.987       44.422       36.741       28.870     1973.358     1349.865      833.490        0.403        0.208       59.232       21.458        0.131      338.392       11.012      864.079
01/31/2015  16:56:00       68.141       29.511       20.139       48.977       37.413       27.871     2398.751     1399.747      776.801        0.525        0.229       74.257       23.555        0.101      338.433       11.082      864.063
01/31/2015  16:57:00       96.903       46.282       21.769       57.857       27.929       33.352     3347.396      780.011     1112.328        0.862        0.262      107.388       28.961        0.073      338.419       11.058      864.060
01/31/2015  16:58:00      125.681       24.899       15.353       74.393       49.442       47.504     5534.300     2444.469     2256.615        1.344        0.512      128.124       33.074        0.067      338.438       11.088      864.050
01/31/2015  16:59:00      123.743       82.774       43.415       54.156       49.832       36.776     2932.889     2483.181     1352.452        1.541        0.338      148.876       30.651        0.042      338.450       11.110      864.058
01/31/2015  17:00:00       56.127       54.192       60.509       51.225       42.091       36.177     2623.977     1771.638     1308.793        0.773        0.285       78.019       35.547        0.208      338.479       11.159      864.062
01/31/2015  17:01:00       51.191       45.181       43.329       34.187       29.865       29.005     1168.751      891.907      841.319        0.472        0.145       68.278       22.860        0.112      338.374       10.983      864.069
01/31/2015  17:02:00       80.872       39.997       31.722       40.224       31.882       29.561     1617.986     1016.459      873.851        0.633        0.175       90.222       19.828        0.048      338.325       10.899      864.055
01/31/2015  17:03:00       61.323       16.430       31.025       61.272       36.733       37.733     3754.217     1349.340     1423.783        0.576        0.326       63.486       40.376        0.404      338.311       10.876      864.049
01/31/2015  17:04:00       80.981       28.166       38.795       55.610       39.524       34.594     3092.458     1562.129     1196.711        0.735        0.293       85.740       28.690        0.112      338.276       10.817      864.047
01/31/2015  17:05:00       73.709       53.601       20.492       33.556       23.895       21.070     1125.983      570.954      443.952        0.543        0.107       91.138       18.318        0.040      338.256       10.784      864.045
01/31/2015  17:06:00       68.501       42.365       34.504       38.879       33.666       22.512     1511.605     1133.372      506.790        0.541        0.158       80.543       18.139        0.051      338.219       10.721      864.043
01/31/2015  17:07:00       69.140       33.110       14.930       42.202       24.133       22.615     1780.978      582.391      511.452        0.449        0.144       76.659        6.643        0.008      338.248       10.771      864.041
01/31/2015  17:08:00       56.126       18.169       41.006       41.411       27.418       22.494     1714.902      751.762      505.977        0.407        0.149       58.994       20.031        0.115      338.268       10.803      864.025
01/31/2015  17:09:00       44.440       41.100       27.381       40.696       29.648       21.773     1656.134      879.021      474.078        0.371        0.150       60.533       12.269        0.041      338.273       10.813      864.005
01/31/2015  17:10:00       54.130       25.239       33.364       25.914       23.830       21.583      671.527      567.864      465.841        0.319        0.085       59.725       14.694        0.061      338.231       10.741      863.992
01/31/2015  17:11:00       56.544       21.077       29.432       24.757       21.679       19.195      612.895      469.965      368.444        0.298        0.073       60.344       14.807        0.060      338.236       10.750      863.977
01/31/2015  17:12:00       38.431       25.480       23.864       22.299       15.290       17.590      497.252      233.790      309.423        0.187        0.052       46.110       11.233        0.059      338.207       10.702      863.963
01/31/2015  17:13:00       54.314       24.962       17.591       33.350       18.504       16.695     1112.242      342.382      278.708        0.281        0.087       59.775       14.161        0.056      338.221       10.725      863.959
01/31/2015  17:14:00       82.691       47.103        8.450       27.847       25.852       19.840      775.433      668.337      393.644        0.548        0.092       95.165       12.890        0.018      338.233       10.745      863.955
01/31/2015  17:15:00       61.587       28.818       18.051       32.842       20.116       20.682     1078.613      404.670      427.760        0.343        0.096       67.996        8.639        0.016      338.183       10.661      863.974
01/31/2015  17:16:00       78.568       51.913       15.659       21.669       17.587       15.772      469.539      309.299      248.750        0.507        0.051       94.170        6.796        0.005      338.196       10.683      863.987
01/31/2015  17:17:00       60.858       35.676       16.859       25.999       17.468       14.640      675.969      305.137      214.317        0.323        0.060       70.544        6.372        0.008      338.192       10.676      864.012
01/31/2015  17:18:00       50.462       34.772        3.632       19.196       14.531       15.390      368.498      211.158      236.866        0.229        0.041       61.283       10.956        0.032      338.150       10.605      864.029
01/31/2015  17:19:00       43.430       23.021        4.100       17.619       13.337       10.422      310.436      177.870      108.621        0.151        0.030       49.154        5.535        0.013      338.133       10.577      864.032
01/31/2015  17:20:00       67.100       50.590        1.239       21.489       14.792       10.620      461.768      218.800      112.779        0.393        0.040       84.034        8.859        0.011      338.165       10.629      864.028
01/31/2015  17:21:00       66.244       41.204        4.347       22.741       19.274       16.050      517.134      371.484      257.605        0.363        0.057       78.013       10.999        0.020      338.143       10.593      864.021
01/31/2015  17:22:00       78.031       50.841        6.682       21.453       21.870       14.907      460.249      478.295      222.215        0.494        0.058       93.132        5.383        0.003      338.162       10.625      864.022
01/31/2015  17:23:00       87.966       59.416       14.656       13.710       15.360       13.312      187.970      235.919      177.205        0.604        0.030      106.153        9.306        0.008      338.137       10.583      864.025
01/31/2015  17:24:00       72.043       55.527       14.796       22.884       25.607       18.615      523.678      655.707      346.527        0.501        0.076       90.959       17.139        0.036      338.055       10.447      864.041
01/31/2015  17:25:00       70.948       53.725       11.279       37.498       30.830       30.566     1406.130      950.498      934.298        0.567        0.165       88.995       22.677        0.065      338.052       10.440      864.080
01/31/2015  17:26:00       37.504       86.002       -3.745       47.357       50.824       35.598     2242.645     2583.061     1267.193        0.745        0.305       93.824       28.405        0.092      338.027       10.400      864.127
01/31/2015  17:27:00       52.575      120.266      -13.911       38.205       66.293       32.909     1459.654     4394.788     1082.970        1.218        0.347      131.256       33.990        0.067      338.075       10.479      864.188
01/31/2015  17:28:00       46.867      152.307      -16.302       36.984       57.958       34.748     1367.780     3359.084     1207.403        1.580        0.297      159.355       37.109        0.054      338.035       10.413      864.247
01/31/2015  17:29:00       55.329      133.298       -8.194       43.444       64.678       44.761     1887.349     4183.182     2003.533        1.448        0.404      144.325       43.251        0.090      337.965       10.295      864.281
01/31/2015  17:30:00       34.609      115.260      -11.068       38.825       55.671       33.408     1507.391     3099.275     1116.106        1.016        0.286      120.344       31.362        0.068      337.940       10.253      864.308
01/31/2015  17:31:00       46.502      116.153      -11.695       46.492       69.025       33.779     2161.477     4764.494     1141.046        1.193        0.403      125.116       39.513        0.100      337.936       10.246      864.311
01/31/2015  17:32:00       58.059      123.100      -14.513       42.577       52.560       34.126     1812.760     2762.579     1164.594        1.224        0.287      136.105       25.581        0.035      337.951       10.272      864.305
01/31/2015  17:33:00       25.029       66.381       -1.707       39.604       49.440       28.323     1568.453     2444.304      802.201        0.492        0.241       70.943       18.131        0.065      337.899       10.185      864.302
01/31/2015  17:34:00       41.805       62.459        4.663       47.032       40.959       26.845     2212.025     1677.600      720.674        0.514        0.231       75.158       20.416        0.074      337.828       10.066      864.292
01/31/2015  17:35:00       58.962       59.015        6.187       51.706       25.315       28.880     2673.547      640.858      834.083        0.557        0.207       83.422       17.801        0.046      337.840       10.086      864.278
01/31/2015  17:36:00       52.013       62.488       -0.146       53.614       45.764       32.667     2874.465     2094.339     1067.111        0.632        0.302       81.303       31.263        0.148      337.850       10.101      864.278
01/31/2015  17:37:00       59.044       79.443        7.938       57.860       50.110       33.106     3347.824     2510.978     1096.022        0.841        0.348       98.982       29.788        0.091      337.832       10.071      864.282
01/31/2015  17:38:00       67.580       60.508        0.995       47.570       41.852       29.645     2262.911     1751.619      878.830        0.656        0.245       90.710       25.261        0.078      337.750        9.935      864.297
01/31/2015  17:39:00       19.959       34.047       11.875       39.833       33.657       20.723     1586.635     1132.794      429.435        0.242        0.157       39.466       21.789        0.305      337.651        9.770      864.300
01/31/2015  17:40:00       60.674       64.003        2.079       35.490       38.558       30.100     1259.527     1486.726      906.017        0.572        0.183       88.192       25.130        0.081      337.738        9.916      864.300
01/31/2015  17:41:00       60.911       48.401        9.389       39.000       35.667       31.033     1520.995     1272.135      963.066        0.495        0.188       77.800       22.466        0.083      337.707        9.863      864.301
01/31/2015  17:42:00       62.521       43.618        5.085       40.680       33.395       25.714     1654.888     1115.222      661.209        0.463        0.172       76.232       19.849        0.068      337.637        9.745      864.294
01/31/2015  17:43:00       77.873       39.260       11.719       17.508       17.291       22.130      306.523      298.983      489.740        0.442        0.055       87.210       13.270        0.023      337.607        9.697      864.276
01/31/2015  17:44:00       65.902       35.091       11.516       46.727       25.951       25.157     2183.446      673.457      632.877        0.460        0.174       74.662       15.455        0.043      337.580        9.651      864.267
01/31/2015  17:45:00       46.702       36.387       -6.637       19.428       22.135       12.337      377.428      489.961      152.192        0.228        0.051       59.204       11.516        0.038      337.492        9.502      864.269
01/31/2015  17:46:00       38.759       18.833       -0.329       18.046       14.457       14.384      325.675      208.998      206.887        0.130        0.037       43.092        5.299        0.015      337.530        9.565      864.280
01/31/2015  17:47:00       15.127       11.704        5.001       22.926       15.066       10.808      525.612      226.971      116.809        0.063        0.043       19.126       10.572        0.306      337.445        9.424      864.305
01/31/2015  17:48:00       30.654       41.196       -5.704       17.767       21.760       10.512      315.673      473.492      110.505        0.178        0.045       51.350        8.261        0.026      337.465        9.457      864.334
01/31/2015  17:49:00       61.713       85.769      -12.741       37.638       46.653       24.141     1416.618     2176.535      582.805        0.775        0.209      105.664       27.019        0.065      337.444        9.421      864.359
01/31/2015  17:50:00       53.280       48.660        1.025       27.401       28.705       25.042      750.803      823.992      627.080        0.370        0.110       72.156       19.564        0.074      337.391        9.333      864.381
01/31/2015  17:51:00       33.615       33.899        9.641       29.469       25.908       24.663      868.409      671.241      608.262        0.226        0.107       47.740       17.922        0.141      337.302        9.183      864.396
01/31/2015  17:52:00       61.403       62.330       -6.601       37.378       35.277       21.867     1397.136     1244.455      478.174        0.541        0.156       87.495       21.054        0.058      337.308        9.195      864.417
01/31/2015  17:53:00       49.236       75.475      -14.121       27.868       47.629       27.867      776.599     2268.514      776.557        0.607        0.191       90.115       29.195        0.105      337.309        9.196      864.433
01/31/2015  17:54:00       27.899       71.963        0.437       38.128       31.712       27.856     1453.735     1005.665      775.934        0.460        0.162       77.182       21.811        0.080      337.268        9.127      864.469
01/31/2015  17:55:00       23.450       97.040       -7.484       31.209       39.421       18.282      974.014     1553.978      334.218        0.644        0.143       99.833       19.889        0.040      337.282        9.150      864.502
01/31/2015  17:56:00       23.271       95.285      -15.198       32.007       31.983       24.411     1024.459     1022.896      595.910        0.625        0.132       98.085       19.874        0.041      337.276        9.140      864.531
01/31/2015  17:57:00       19.444       98.472      -10.174       35.545       25.117       23.626     1263.436      630.866      558.206        0.631        0.123      100.373       18.009        0.032      337.243        9.087      864.551
01/31/2015  17:58:00       19.818       75.671      -13.728       26.678       37.485       18.564      711.731     1405.111      344.624        0.438        0.123       78.223       19.900        0.065      337.219        9.046      864.566
01/31/2015  17:59:00       16.871       88.610      -16.872       25.304       34.653       17.156      640.302     1200.829      294.324        0.528        0.107       90.202       11.598        0.017      337.243        9.086      864.562
01/31/2015  18:00:00        9.035       53.347       -7.112       29.124       35.932       23.328      848.197     1291.114      544.200        0.283        0.134       54.106       22.566        0.174      337.223        9.054      864.546
01/31/2015  18:01:00       14.223       65.835       -5.818       43.933       28.924       26.529     1930.099      836.612      703.806        0.402        0.174       67.353       20.142        0.089      337.288        9.161      864.527
01/31/2015  18:02:00       18.499       78.099       -8.438       28.218       45.514       21.938      796.239     2071.501      481.291        0.493        0.167       80.260       23.230        0.084      337.230        9.064      864.514
01/31/2015  18:03:00       -3.309       92.847      -13.763       24.295       26.968       16.618      590.231      727.282      276.155        0.521        0.080       92.905       15.801        0.029      337.234        9.071      864.506
01/31/2015  18:04:00       -1.229       62.653      -15.908       27.635       26.380       12.988      763.666      695.881      168.699        0.290        0.081       62.665       15.138        0.058      337.258        9.111      864.510
01/31/2015  18:05:00        7.732       35.307       -6.452       21.061       14.745       11.959      443.566      217.403      143.013        0.108        0.040       36.144        8.188        0.051      337.176        8.975      864.511
01/31/2015  18:06:00       -4.309       60.697      -14.699       33.016       21.047       11.902     1090.061      442.995      141.653        0.280        0.084       60.849        4.065        0.004      337.190        8.999      864.526
01/31/2015  18:07:00      -14.890       12.388       -2.480       27.614       25.782       14.603      762.521      664.708      213.258        0.101        0.082       19.370       12.040        0.386      337.034        8.737      864.547
01/31/2015  18:08:00      -19.097       20.782       -3.012       22.212       34.299       14.150      493.372     1176.425      200.226        0.134        0.094       28.224       12.541        0.197      337.187        8.992      864.573
01/31/2015  18:09:00      -27.528       42.122      -18.599       30.959       40.194       11.093      958.452     1615.565      123.055        0.279        0.135       50.320       13.894        0.076      337.041        8.749      864.597
01/31/2015  18:10:00      -44.128        8.864      -10.035       20.306       29.571       12.865      412.328      874.472      165.518        0.179        0.073       45.010        8.124        0.033      337.009        8.695      864.633
01/31/2015  18:11:00      -41.993      -17.444       -9.517       23.166       18.013       14.223      536.673      324.482      202.282        0.161        0.053       45.472        8.992        0.039      336.714        8.202      864.667
01/31/2015  18:12:00      -63.797      -14.411      -15.507       21.812       20.897       10.878      475.778      436.688      118.323        0.277        0.052       65.404        7.402        0.013      336.604        8.017      864.692
01/31/2015  18:13:00      -65.125      -21.787       -7.534       21.487       22.759       15.396      461.709      517.980      237.023        0.299        0.061       68.673        6.112        0.008      336.632        8.064      864.712
01/31/2015  18:14:00      -44.062       -6.726       -6.292       39.681       25.720       15.805     1574.581      661.501      249.783        0.226        0.124       44.573       12.835        0.083      336.708        8.190      864.730
01/31/2015  18:15:00      -31.863       -0.272       -3.011       35.229       29.001       17.254     1241.059      841.068      297.694        0.170        0.119       31.864       14.299        0.201      336.665        8.122      864.762
01/31/2015  18:16:00      -83.241      -26.348       -4.269       34.040       34.710       19.425     1158.718     1204.790      377.332        0.519        0.137       87.312       17.291        0.039      336.617        8.041      864.784
01/31/2015  18:17:00      -62.045        2.537       -4.241       26.029       42.731       14.378      677.507     1825.937      206.733        0.329        0.136       62.097        8.455        0.019      336.578        7.975      864.811
01/31/2015  18:18:00      -54.564       12.760       -8.627       25.233       26.777       12.061      636.720      716.984      145.475        0.236        0.075       56.036        8.932        0.025      336.693        8.168      864.837
01/31/2015  18:19:00      -35.047      -17.672       -2.079       33.161       39.091       18.917     1099.633     1528.079      357.857        0.226        0.149       39.251       15.847        0.163      336.629        8.059      864.844
01/31/2015  18:20:00      -65.431       -3.862       -9.264       33.313       53.068       23.373     1109.730     2816.238      546.277        0.443        0.224       65.545       19.589        0.089      336.666        8.122      864.837
01/31/2015  18:21:00      -69.139        9.981      -14.136       27.682       35.219       20.424      766.295     1240.347      417.160        0.375        0.121       69.855       10.980        0.025      336.744        8.252      864.816
01/31/2015  18:22:00      -37.437       -9.536       -5.234       23.962       29.384       16.548      574.176      863.407      273.846        0.162        0.086       38.632        7.886        0.042      336.657        8.108      864.771
01/31/2015  18:23:00      -45.512      -30.327       -1.139       24.238       17.591       14.545      587.467      309.460      211.544        0.205        0.055       54.691       16.075        0.086      336.472        7.797      864.726
01/31/2015  18:24:00      -45.782      -33.097       -0.444       31.992       16.165       15.640     1023.466      261.323      244.620        0.236        0.076       56.492       16.592        0.086      336.546        7.920      864.693
01/31/2015  18:25:00      -49.573      -20.157      -14.466       11.933       11.690       10.915      142.402      136.648      119.140        0.174        0.020       53.515        7.681        0.021      336.508        7.857      864.682
01/31/2015  18:26:00      -56.527      -25.031      -14.792       10.393       10.082        7.527      108.024      101.648       56.656        0.215        0.013       61.821        4.365        0.005      336.506        7.854      864.702
01/31/2015  18:27:00      -55.430      -22.130       -6.516       19.994       15.750       10.401      399.766      248.059      108.191        0.218        0.038       59.684        5.183        0.008      336.563        7.950      864.732
01/31/2015  18:28:00      -23.873       27.467       -3.763       25.412       29.175       15.285      645.790      851.192      233.644        0.153        0.087       36.392       16.618        0.209      336.649        8.093      864.760
01/31/2015  18:29:00      -19.746       32.282      -12.541       17.258       19.705       11.492      297.828      388.288      132.058        0.120        0.041       37.843       14.440        0.146      336.848        8.426      864.777
01/31/2015  18:30:00       -4.251        3.805        6.423        8.853        8.495        6.260       78.373       72.167       39.184        0.013        0.009        5.705        3.781        0.439      336.921        8.547      864.774
01/31/2015  18:31:00        0.388        8.265        9.657       13.937        8.124       12.122      194.226       66.005      146.948        0.028        0.020        8.274       10.892        1.733      336.692        8.165      864.765
01/31/2015  18:32:00      -34.114       -6.077       -4.473        9.568       11.055        8.636       91.541      122.206       74.582        0.075        0.014       34.651        5.117        0.022      336.651        8.096      864.748
01/31/2015  18:33:00      -30.117      -30.491      -15.251       20.723       14.553       10.683      429.431      211.779      114.129        0.141        0.038       42.857        7.889        0.034      336.500        7.845      864.734
01/31/2015  18:34:00      -79.290      -22.322      -10.013       15.169       12.056        9.796      230.097      145.354       95.960        0.368        0.024       82.372        4.480        0.003      336.421        7.712      864.741
01/31/2015  18:35:00      -88.282      -18.736      -14.348       11.054       10.026        8.208      122.184      100.514       67.370        0.432        0.015       90.248        4.915        0.003      336.406        7.688      864.770
01/31/2015  18:36:00      -75.633       -2.490      -14.513       28.151       27.940       13.263      792.487      780.630      175.910        0.384        0.087       75.674       11.492        0.023      336.263        7.448      864.816
01/31/2015  18:37:00      -47.747       18.891      -10.309       18.177       34.064       12.540      330.386     1160.342      157.245        0.220        0.082       51.348       12.966        0.064      336.538        7.908      864.862
01/31/2015  18:38:00      -45.696       19.571       -6.979       25.747       32.792       14.690      662.915     1075.283      215.785        0.224        0.098       49.711        6.862        0.019      336.370        7.626      864.900
01/31/2015  18:39:00      -50.675       59.405      -12.983       23.809       29.112       19.327      566.846      847.523      373.530        0.403        0.089       78.082       13.131        0.028      336.383        7.648      864.919
01/31/2015  18:40:00      -60.600       57.728      -11.632       17.756       25.165       18.510      315.275      633.263      342.616        0.422        0.065       83.695       13.382        0.026      336.376        7.636      864.949
01/31/2015  18:41:00      -32.330        2.158       -9.678       33.308       29.474       18.635     1109.392      868.699      347.256        0.173        0.116       32.402       16.363        0.255      336.354        7.600      864.973
01/31/2015  18:42:00      -34.511       27.985      -12.638       32.644       48.311       17.562     1065.662     2333.993      308.409        0.292        0.185       44.432       18.115        0.166      336.237        7.404      864.975
01/31/2015  18:43:00      -61.481       21.108      -17.841       29.376       27.495       14.379      862.944      755.949      206.757        0.318        0.091       65.004       15.566        0.057      336.268        7.456      864.989
01/31/2015  18:44:00      -27.968        9.282       -1.880       27.285       31.439       11.719      744.456      988.428      137.341        0.137        0.094       29.468        5.513        0.035      336.248        7.421      864.988
01/31/2015  18:45:00      -28.798       20.205       -6.577       14.890       20.515        9.202      221.702      420.880       84.672        0.100        0.036       35.179       10.352        0.087      336.407        7.688      864.997
01/31/2015  18:46:00      -44.800      -11.981       -4.730       19.133       18.944        9.100      366.081      358.890       82.807        0.149        0.040       46.375        5.254        0.013      335.920        6.877      864.990
01/31/2015  18:47:00      -31.634        9.806        2.400       26.264       16.506       10.799      689.788      272.461      116.609        0.109        0.054       33.119        6.842        0.043      336.267        7.454      864.987
01/31/2015  18:48:00      -46.123       -1.201       -8.700       23.177       27.376       10.947      537.172      749.457      119.827        0.181        0.070       46.139       12.580        0.074      336.149        7.257      864.988
01/31/2015  18:49:00      -49.789      -10.151       -5.794        9.384       10.709        7.598       88.050      114.675       57.731        0.144        0.013       50.813        4.408        0.008      335.871        6.794      865.006
01/31/2015  18:50:00      -20.716      -16.080       -9.831       21.795       16.539        7.968      475.019      273.553       63.488        0.080        0.041       26.225        8.496        0.105      336.191        7.327      865.037
01/31/2015  18:51:00      -45.085      -33.231      -11.600       15.732       10.815       10.292      247.487      116.961      105.933        0.187        0.024       56.008        3.240        0.003      336.138        7.238      865.082
01/31/2015  18:52:00      -68.680      -12.993       -9.381       22.647       16.825       14.410      512.889      283.096      207.657        0.299        0.050       69.898       12.394        0.031      335.902        6.846      865.135
01/31/2015  18:53:00      -52.804        3.334      -11.454       27.837       25.198       16.560      774.899      634.947      274.250        0.231        0.084       52.909       16.778        0.101      335.893        6.830      865.179
01/31/2015  18:54:00      -44.232        0.160       -3.968       23.903       26.747       13.200      571.344      715.420      174.235        0.172        0.073       44.232        4.460        0.010      336.032        7.062      865.225
01/31/2015  18:55:00      -66.557      -13.009      -17.746       22.689       30.786       15.255      514.777      947.768      232.721        0.330        0.085       67.816       12.713        0.035      336.025        7.051      865.259
01/31/2015  18:56:00      -88.676        2.089      -19.227       29.845       42.979       21.080      890.730     1847.177      444.349        0.571        0.159       88.701       16.023        0.033      336.126        7.218      865.271
01/31/2015  18:57:00      -65.470        4.543      -11.028       30.219       34.637       20.727      913.177     1199.751      429.621        0.349        0.127       65.627        7.578        0.013      336.297        7.505      865.267
01/31/2015  18:58:00      -56.854       10.295       -6.451       30.545       33.373       21.472      932.978     1113.737      461.062        0.294        0.125       57.778       13.791        0.057      336.305        7.518      865.248
01/31/2015  18:59:00      -41.013      -11.140        1.489       26.171       35.358       20.493      684.922     1250.211      419.946        0.208        0.118       42.500       13.632        0.103      336.064        7.115      865.234
01/31/2015  19:00:00      -48.501       19.750       -2.931       26.974       35.710       17.623      727.577     1275.225      310.567        0.253        0.116       52.368       14.743        0.079      336.243        7.413      865.222
01/31/2015  19:01:00       31.466       49.382       -1.096       33.168       34.311       22.660     1100.146     1177.275      513.494        0.311        0.140       58.555       22.568        0.149      336.336        7.569      865.226
01/31/2015  19:02:00       -5.182       41.291       -6.331       39.315       25.161       31.361     1545.689      633.058      983.535        0.247        0.158       41.615       19.344        0.216      336.469        7.793      865.222
01/31/2015  19:03:00       -4.789       47.628      -11.764       25.776       16.936       10.982      664.381      286.835      120.611        0.175        0.054       47.868        8.575        0.032      336.324        7.549      865.235
01/31/2015  19:04:00        1.860       37.220       -9.826       19.289       13.661        7.474      372.059      186.630       55.856        0.105        0.031       37.266        5.445        0.021      336.337        7.572      865.243
01/31/2015  19:05:00       26.167       34.024       -3.821       19.714       18.626       17.361      388.629      346.942      301.401        0.145        0.052       42.923       11.780        0.075      336.399        7.675      865.270
01/31/2015  19:06:00       -8.424       20.436        4.209       22.258       11.463       13.074      495.409      131.411      170.939        0.065        0.040       22.104        5.124        0.054      336.198        7.339      865.285
01/31/2015  19:07:00      -29.915      -11.376       -1.714       23.269       16.199       20.032      541.445      262.395      401.268        0.112        0.060       32.004       12.214        0.146      336.107        7.188      865.309
01/31/2015  19:08:00      -27.888       -7.547       -5.930       25.167       14.526        9.752      633.402      210.993       95.110        0.090        0.047       28.891       10.419        0.130      336.141        7.242      865.315
01/31/2015  19:09:00      -21.508        4.547      -15.854       30.839       29.304       13.638      951.067      858.724      186.003        0.136        0.100       21.983       13.294        0.366      336.183        7.313      865.331
01/31/2015  19:10:00      -82.569      -22.937      -12.830       17.593       14.078       10.532      309.524      198.201      110.925        0.406        0.031       85.695        9.587        0.013      335.910        6.858      865.327
01/31/2015  19:11:00     -110.181      -23.960      -15.891       28.116       18.671       16.021      790.527      348.619      256.680        0.718        0.070      112.756       16.190        0.021      335.785        6.651      865.324
01/31/2015  19:12:00      -44.805      -18.267       -7.267       24.498       15.793       10.209      600.133      249.418      104.231        0.167        0.048       48.386        6.437        0.018      335.776        6.635      865.309
01/31/2015  19:13:00      -70.210      -23.759       -8.681       17.523       12.590       10.344      307.052      158.520      107.009        0.307        0.029       74.121        2.830        0.001      335.792        6.661      865.308
01/31/2015  19:14:00      -55.270      -44.224       -2.993       15.718       13.621        9.172      247.070      185.527       84.131        0.277        0.026       70.785        8.454        0.014      335.803        6.681      865.293
01/31/2015  19:15:00      -64.648      -19.634       -7.471       22.018       17.102       12.594      484.784      292.464      158.610        0.278        0.047       67.564       10.368        0.024      335.760        6.609      865.300
01/31/2015  19:16:00      -53.063      -20.347       -7.178       14.663        9.540        8.828      215.001       91.013       77.942        0.183        0.019       56.830        6.849        0.015      335.780        6.643      865.302
01/31/2015  19:17:00      -64.177      -35.139      -12.177       11.493       14.754        8.095      132.096      217.668       65.521        0.296        0.021       73.167        5.303        0.005      335.874        6.797      865.316
01/31/2015  19:18:00      -93.370      -15.743      -13.818       20.775       15.591       12.035      431.604      243.083      144.834        0.499        0.041       94.688       10.239        0.012      335.836        6.735      865.323
01/31/2015  19:19:00      -91.720      -19.375      -14.712       22.048       14.438       11.969      486.125      208.466      143.254        0.492        0.042       93.744       11.447        0.015      335.844        6.749      865.320
01/31/2015  19:20:00      -53.146       -7.627        0.628       38.035       26.915       15.333     1446.656      724.442      235.107        0.264        0.120       53.691       15.038        0.078      335.933        6.896      865.310
01/31/2015  19:21:00      -33.332      -34.397        0.216       22.723        9.405       11.641      516.321       88.451      135.509        0.152        0.037       47.897       14.187        0.088      335.830        6.727      865.285
01/31/2015  19:22:00      -25.151      -34.963       -6.020       13.711       11.704        7.101      188.000      136.984       50.426        0.113        0.019       43.069        6.836        0.025      335.957        6.937      865.262
01/31/2015  19:23:00      -53.070      -20.221       -4.871        8.781       12.546        8.913       77.100      157.395       79.444        0.178        0.016       56.792        6.912        0.015      335.881        6.811      865.242
01/31/2015  19:24:00      -56.041      -21.386       -9.530        7.483        7.549        5.112       55.989       56.990       26.128        0.191        0.007       59.983        3.583        0.004      335.865        6.783      865.244
01/31/2015  19:25:00      -34.708       -5.814       -5.063       10.851        9.280        4.417      117.754       86.116       19.514        0.074        0.011       35.191        2.282        0.004      335.908        6.856      865.241
01/31/2015  19:26:00      -38.819        1.088       -6.430        7.147        6.588        7.812       51.080       43.401       61.027        0.085        0.008       38.834        5.647        0.021      335.999        7.004      865.259
01/31/2015  19:27:00      -19.712        6.662        5.154       15.377       18.031       10.459      236.459      325.110      109.399        0.057        0.034       20.807        5.969        0.082      336.108        7.189      865.274
01/31/2015  19:28:00      -37.411      -25.081       -8.508       14.710       13.443        7.499      216.370      180.720       56.238        0.128        0.023       45.040        3.840        0.007      335.978        6.971      865.294
01/31/2015  19:29:00      -31.456      -30.426        1.789       19.650       15.941       22.519      386.103      254.126      507.088        0.153        0.057       43.763       13.538        0.096      336.022        7.045      865.305
01/31/2015  19:30:00      -19.305       -7.915        2.334       17.927       21.780        9.580      321.381      474.382       91.777        0.066        0.044       20.864        8.602        0.170      336.095        7.166      865.296
01/31/2015  19:31:00      -34.847      -17.856      -10.767       16.763       11.885        7.219      280.992      141.251       52.115        0.106        0.024       39.156        9.547        0.059      335.961        6.945      865.276
01/31/2015  19:32:00      -25.727      -18.143        0.686       16.610       17.154       11.438      275.886      294.251      130.817        0.085        0.035       31.481        9.209        0.086      336.035        7.066      865.234
01/31/2015  19:33:00      -10.769      -36.226       -4.056       14.111       12.878       12.365      199.109      165.832      152.894        0.098        0.026       37.793        7.068        0.035      336.005        7.017      865.171
01/31/2015  19:34:00       -5.305      -36.622       -4.820       15.594       13.841       12.778      243.171      191.584      163.285        0.100        0.030       37.004        4.829        0.017      336.006        7.017      865.121
01/31/2015  19:35:00       -5.466      -46.566       -1.604       18.784       15.834       11.550      352.853      250.705      133.397        0.147        0.037       46.886        8.354        0.032      336.092        7.161      865.056
01/31/2015  19:36:00      -15.460      -38.290        0.148       22.226       14.411       10.927      493.987      207.687      119.401        0.126        0.041       41.293        6.024        0.021      336.044        7.081      865.008
01/31/2015  19:37:00       11.635      -16.599       13.946       28.738       19.319       16.611      825.901      373.207      275.937        0.104        0.074       20.271       15.378        0.576      335.868        6.789      864.978
01/31/2015  19:38:00       28.883      -68.001       -4.085       25.569       19.322       18.651      653.787      373.345      347.851        0.342        0.069       73.881       12.533        0.029      336.169        7.289      864.946
01/31/2015  19:39:00      -38.572      -23.685       -7.063       34.904       32.279       20.486     1218.273     1041.922      419.661        0.239        0.134       45.264       17.727        0.153      335.735        6.567      864.933
01/31/2015  19:40:00       -8.449      -16.620        7.037       21.669       13.944       10.815      469.528      194.425      116.974        0.059        0.039       18.644       11.908        0.408      335.525        6.216      864.943
01/31/2015  19:41:00     -104.406      -29.200      -10.073       36.158       43.386       21.550     1307.404     1882.347      464.403        0.775        0.183      108.413       16.749        0.024      335.564        6.283      864.931
01/31/2015  19:42:00      -75.218      -47.588        2.820       43.600       29.091       18.215     1900.950      846.262      331.781        0.550        0.154       89.008       14.288        0.026      335.365        5.950      864.931
01/31/2015  19:43:00      -75.343      -35.269       -0.358       49.522       27.808       18.106     2452.473      773.261      327.834        0.524        0.178       83.189       17.651        0.045      335.306        5.851      864.929
01/31/2015  19:44:00     -116.529      -30.932       -8.143       25.247       20.403       16.725      637.410      416.276      279.736        0.797        0.067      120.565       13.614        0.013      335.293        5.829      864.917
01/31/2015  19:45:00     -109.832      -25.416       -2.621       27.125       20.063       19.767      735.768      402.541      390.736        0.712        0.076      112.735       17.744        0.025      335.128        5.556      864.895
01/31/2015  19:46:00     -119.868      -29.323       -7.160       25.447       22.613       13.904      647.543      511.328      193.315        0.832        0.068      123.403       13.759        0.012      335.057        5.439      864.870
01/31/2015  19:47:00      -88.930      -32.654        4.125       44.430       34.259       16.838     1974.065     1173.679      283.515        0.621        0.172       94.736       16.020        0.029      335.109        5.525      864.842
01/31/2015  19:48:00     -122.728      -47.498        1.055       34.974       25.293       20.243     1223.194      639.724      409.797        0.980        0.114      131.598       17.294        0.017      335.157        5.604      864.822
01/31/2015  19:49:00     -143.301      -53.749       -6.356       28.348       28.351       19.021      803.633      803.753      361.785        1.272        0.098      153.050       15.018        0.010      335.099        5.507      864.812
01/31/2015  19:50:00     -148.674      -33.147       -0.650       28.208       27.131       18.666      795.703      736.104      348.414        1.254        0.094      152.324       12.675        0.007      334.936        5.238      864.804
01/31/2015  19:51:00     -167.850      -84.670       -8.803       28.709       32.709       18.257      824.179     1069.901      333.325        1.882        0.111      187.997       13.908        0.005      334.869        5.126      864.799
01/31/2015  19:52:00     -111.890      -78.254       -9.087       38.357       30.001       25.443     1471.272      900.047      647.333        1.087        0.151      136.540        5.838        0.002      334.862        5.116      864.793
01/31/2015  19:53:00      -71.286      -62.481      -12.349       41.299       33.996       25.199     1705.605     1155.736      635.008        0.632        0.175       94.792       20.516        0.047      334.864        5.118      864.797
01/31/2015  19:54:00     -109.073      -27.957       -6.351       45.164       28.046       25.743     2039.742      786.571      662.727        0.810        0.174      112.599       26.182        0.054      334.768        4.959      864.776
01/31/2015  19:55:00     -111.476      -43.032       -6.444       38.389       29.515       17.886     1473.690      871.134      319.903        0.849        0.133      119.493       15.582        0.017      334.767        4.957      864.761
01/31/2015  19:56:00      -97.621      -10.764       -6.164       43.196       24.964       23.735     1865.913      623.200      563.363        0.637        0.153       98.213       25.278        0.066      334.892        5.164      864.762
01/31/2015  19:57:00     -116.201        2.594       -2.961       48.338       31.221       29.874     2336.556      974.762      892.456        0.886        0.210      116.230       29.353        0.064      335.000        5.343      864.758
01/31/2015  19:58:00     -119.967       14.595       -3.902       50.134       35.035       23.641     2513.388     1227.482      558.918        0.946        0.215      120.851       20.829        0.030      335.175        5.634      864.761
01/31/2015  19:59:00     -102.350      -13.088       -6.033       34.147       46.770       20.737     1165.986     2187.450      430.003        0.723        0.189      103.184       13.172        0.016      335.082        5.480      864.782
01/31/2015  20:00:00      -80.342       -5.419       -7.972       34.998       39.852       20.029     1224.891     1588.151      401.167        0.488        0.161       80.525        6.622        0.007      334.952        5.263      864.805
01/31/2015  20:01:00      -95.519      -13.520       -4.656       52.836       39.754       24.796     2791.656     1580.410      614.839        0.716        0.249       96.471       22.995        0.057      334.876        5.138      864.833
01/31/2015  20:02:00      -63.729        7.022       -4.190       47.678       28.406       21.307     2273.188      806.925      453.985        0.383        0.177       64.114       21.400        0.111      334.890        5.161      864.878
01/31/2015  20:03:00      -57.096        6.949        5.582       41.693       29.121       23.213     1738.340      848.008      538.855        0.323        0.156       57.517       15.536        0.073      334.914        5.202      864.908
01/31/2015  20:04:00      -93.585       22.425       -0.889       48.881       39.696       32.702     2389.317     1575.796     1069.390        0.715        0.252       96.235       27.558        0.082      335.103        5.515      864.939
01/31/2015  20:05:00     -126.104       18.869       -8.472       52.327       41.965       30.070     2738.111     1761.049      904.182        1.087        0.270      127.508       26.915        0.045      335.027        5.388      864.986
01/31/2015  20:06:00     -131.684       11.864       -4.834       59.918       51.850       29.150     3590.223     2688.443      849.714        1.232        0.356      132.218       30.074        0.052      334.862        5.114      865.024
01/31/2015  20:07:00     -121.555       17.784      -17.090       55.292       45.648       28.701     3057.218     2083.753      823.740        1.067        0.298      122.849       25.567        0.043      334.959        5.275      865.056
01/31/2015  20:08:00     -136.385       32.715      -17.215       46.034       37.181       24.236     2119.114     1382.439      587.365        1.203        0.204      140.254       15.183        0.012      335.043        5.415      865.107
01/31/2015  20:09:00     -102.540       15.719      -15.936       50.059       36.259       23.567     2505.856     1314.732      555.417        0.770        0.219      103.738       25.788        0.062      334.875        5.137      865.154
01/31/2015  20:10:00      -95.133       28.824      -30.641       24.530       40.918       21.959      601.744     1674.286      482.211        0.679        0.138       99.404       18.014        0.033      334.951        5.263      865.209
01/31/2015  20:11:00      -86.156       42.006      -15.005       32.035       35.564       22.066     1026.216     1264.778      486.908        0.609        0.139       95.850       13.167        0.019      335.276        5.804      865.255
01/31/2015  20:12:00      -90.508      102.802      -25.218       25.598       34.313       14.390      655.236     1177.390      207.075        1.072        0.102      136.967        8.125        0.004      335.545        6.250      865.279
01/31/2015  20:13:00      -66.299      122.461      -25.044       30.313       21.627       17.775      918.861      467.707      315.952        1.086        0.085      139.256       14.829        0.011      335.719        6.540      865.316
01/31/2015  20:14:00      -68.240      121.326      -21.223       30.185       31.733       19.906      911.125     1006.993      396.261        1.107        0.116      139.200       11.440        0.007      335.830        6.724      865.340
01/31/2015  20:15:00      -57.186      104.073      -19.922       40.157       36.492       18.830     1612.623     1331.650      354.568        0.890        0.165      118.749       14.603        0.015      335.795        6.668      865.368
01/31/2015  20:16:00      -37.478       88.381      -16.931       33.485       41.561       16.873     1121.247     1727.292      284.690        0.632        0.157       95.999       11.032        0.013      335.681        6.476      865.399
01/31/2015  20:17:00      -36.132      184.701      -26.141       30.959       21.084       13.274      958.439      444.551      176.201        1.884        0.079      188.202        8.695        0.002      335.719        6.541      865.409
01/31/2015  20:18:00      -38.158      152.330      -27.928       24.773       20.518       15.457      613.680      420.969      238.912        1.336        0.064      157.037       11.290        0.005      335.702        6.513      865.425
01/31/2015  20:19:00      -17.677      163.171      -30.267       20.968       18.549       12.100      439.649      344.070      146.399        1.439        0.047      164.125        7.901        0.002      335.739        6.573      865.417
01/31/2015  20:20:00      -22.745      137.980      -20.331       23.029       19.126       12.407      530.343      365.818      153.942        1.051        0.053      139.842        7.583        0.003      335.673        6.466      865.410
01/31/2015  20:21:00      -17.008      135.692      -25.861       23.598       22.467       12.357      556.870      504.749      152.697        1.029        0.061      136.754        9.036        0.004      335.744        6.583      865.405
01/31/2015  20:22:00       -6.269      122.266      -19.500       21.951       24.289       10.384      481.867      589.955      107.836        0.827        0.059      122.427        3.130        0.001      335.633        6.398      865.391
01/31/2015  20:23:00       22.254      127.230      -19.650       35.413       38.484       13.739     1254.112     1481.020      188.760        1.000        0.146      129.161       11.846        0.008      335.617        6.371      865.388
01/31/2015  20:24:00        5.203      127.092      -27.003       27.970       33.982       16.965      782.333     1154.781      287.795        0.957        0.111      127.199       19.030        0.022      335.634        6.399      865.386
01/31/2015  20:25:00       26.457      124.954      -14.887       29.902       31.237       21.482      894.100      975.764      461.474        0.943        0.117      127.725       18.249        0.020      335.544        6.248      865.385
01/31/2015  20:26:00       17.634       95.001       -8.949       28.254       33.945       26.042      798.263     1152.261      678.167        0.602        0.131       96.624       22.681        0.055      335.478        6.138      865.406
01/31/2015  20:27:00       16.990      141.479      -15.316       40.552       41.283       29.674     1644.456     1704.309      880.526        1.238        0.211      142.495       27.125        0.036      335.489        6.156      865.438
01/31/2015  20:28:00       19.308      146.405      -18.784       34.860       39.237       27.618     1215.201     1539.506      762.751        1.284        0.176      147.673       28.153        0.036      335.456        6.100      865.482
01/31/2015  20:29:00       28.246      176.481      -29.413       32.712       31.678       17.005     1070.063     1003.508      289.161        1.759        0.118      178.727       12.353        0.005      335.492        6.161      865.525
01/31/2015  20:30:00       41.567      189.571      -27.811       29.422       38.274       24.375      865.626     1464.921      594.160        2.068        0.146      194.074       21.315        0.012      335.508        6.187      865.568
01/31/2015  20:31:00       19.935      179.486      -26.192       28.371       38.991       24.482      804.908     1520.324      599.351        1.811        0.146      180.590       22.941        0.016      335.487        6.152      865.610
01/31/2015  20:32:00       35.838      182.561      -31.546       29.126       30.658       20.674      848.301      939.906      427.430        1.891        0.111      186.045       17.891        0.009      335.559        6.272      865.637
01/31/2015  20:33:00       23.038      175.474      -28.383       31.277       38.164       19.270      978.223     1456.487      371.319        1.747        0.140      176.980       19.970        0.013      335.520        6.209      865.654
01/31/2015  20:34:00       43.749      187.239      -26.370       37.085       47.637       28.284     1375.304     2269.306      799.988        2.106        0.222      192.282       24.994        0.017      335.560        6.273      865.665
01/31/2015  20:35:00       29.533      166.982      -26.787       32.942       52.004       26.200     1085.182     2704.416      686.421        1.697        0.224      169.574       24.374        0.021      335.532        6.227      865.684
01/31/2015  20:36:00       36.306       99.859      -10.965       42.001       57.952       36.269     1764.049     3358.430     1315.435        0.892        0.322      106.254       35.029        0.109      335.450        6.091      865.698
01/31/2015  20:37:00       42.608       96.139       -2.823       42.801       50.561       35.138     1831.921     2556.367     1234.659        0.834        0.281      105.158       31.296        0.089      335.431        6.060      865.704
01/31/2015  20:38:00       67.190      101.235       -3.653       57.583       61.852       42.893     3315.802     3825.627     1839.795        1.188        0.449      121.504       36.876        0.092      335.539        6.240      865.721
01/31/2015  20:39:00       44.802      121.634      -14.037       52.911       64.484       41.896     2799.566     4158.240     1755.299        1.285        0.436      129.623       37.292        0.083      335.536        6.234      865.748
01/31/2015  20:40:00       52.700      122.146      -17.350       51.828       72.103       42.836     2686.134     5198.818     1834.908        1.386        0.486      133.030       44.250        0.111      335.556        6.268      865.768
01/31/2015  20:41:00       77.660      116.285       -6.963       55.908       53.139       36.728     3125.721     2823.794     1348.983        1.345        0.365      139.833       33.916        0.059      335.676        6.469      865.787
01/31/2015  20:42:00       33.841       97.396       -1.425       44.741       63.048       40.229     2001.744     3975.020     1618.340        0.911        0.380      103.108       41.543        0.162      335.622        6.379      865.803
01/31/2015  20:43:00       16.777       69.545        3.079       30.582       45.721       24.895      935.249     2090.395      619.770        0.439        0.182       71.540       23.415        0.107      335.596        6.335      865.816
01/31/2015  20:44:00       21.829      105.166      -16.342       29.537       32.492       18.865      872.429     1055.747      355.888        0.704        0.114      107.408       12.987        0.015      335.623        6.380      865.834
01/31/2015  20:45:00       18.706      109.867      -20.651       45.210       47.961       24.974     2043.923     2300.281      623.724        0.891        0.248      111.448       30.749        0.076      335.744        6.582      865.842
01/31/2015  20:46:00       12.905      134.038      -28.076       31.463       37.438       20.827      989.901     1401.594      433.744        1.087        0.141      134.658       22.916        0.029      335.823        6.713      865.839
01/31/2015  20:47:00        1.583      110.782      -17.747       16.269       24.594        9.986      264.693      604.886       99.723        0.678        0.048      110.793        7.682        0.005      335.805        6.683      865.838
01/31/2015  20:48:00      -21.798       54.810      -12.000       31.564       38.740       11.386      996.256     1500.818      129.632        0.312        0.131       58.986        7.898        0.018      335.722        6.544      865.859
01/31/2015  20:49:00      -79.896       -9.416       -7.966       28.323       18.257       13.790      802.171      333.307      190.161        0.393        0.066       80.449       14.322        0.032      335.392        5.996      865.883
01/31/2015  20:50:00      -73.195        3.290      -14.810       32.140       37.145       20.831     1032.981     1379.777      433.943        0.422        0.142       73.269       10.909        0.022      335.537        6.236      865.898
01/31/2015  20:51:00      -86.997       83.706      -19.231       50.570       48.395       28.143     2557.361     2342.039      792.016        1.032        0.285      120.728       26.458        0.048      335.686        6.486      865.904
01/31/2015  20:52:00     -110.253       99.453      -30.770       22.934       26.236       14.583      525.990      688.321      212.673        1.221        0.071      148.481       10.966        0.005      335.567        6.287      865.896
01/31/2015  20:53:00        4.731       61.199        5.765       30.613       37.311       18.578      937.131     1392.132      345.127        0.324        0.134       61.382       22.373        0.133      335.461        6.110      865.890
01/31/2015  20:54:00       -5.333       43.190       -2.273       19.630       29.526       15.358      385.338      871.763      235.880        0.170        0.075       43.518       17.709        0.166      335.456        6.101      865.878
01/31/2015  20:55:00      -16.028       87.186      -13.120       38.330       52.248       18.489     1469.209     2729.882      341.845        0.628        0.227       88.647       15.937        0.032      335.529        6.224      865.875
01/31/2015  20:56:00       -9.637       67.122       -8.372       19.357       35.283       17.051      374.691     1244.924      290.739        0.329        0.096       67.811       17.345        0.065      335.446        6.084      865.880
01/31/2015  20:57:00      -16.653       76.401      -10.245       28.759       21.295       16.286      827.053      453.492      265.239        0.388        0.077       78.195        9.766        0.016      335.497        6.169      865.880
01/31/2015  20:58:00      -58.648      -41.572      -10.240       27.836       23.055       10.007      774.836      531.541      100.138        0.334        0.070       71.888        6.755        0.009      335.366        5.951      865.887
01/31/2015  20:59:00      -56.242      -52.832       -0.139       46.737       24.288       18.473     2184.388      589.929      341.268        0.453        0.156       77.165       17.088        0.049      335.388        5.986      865.897
01/31/2015  21:00:00      -82.774      -59.370       -2.662       32.329       22.926       14.858     1045.148      525.600      220.759        0.609        0.090      101.864        8.182        0.006      335.286        5.816      865.917
01/31/2015  21:01:00      -65.944      -54.312        1.397       51.438       38.531       19.793     2645.885     1484.655      391.761        0.591        0.226       85.431       26.573        0.097      335.141        5.578      865.929
01/31/2015  21:02:00      -31.304      -28.165        3.918       45.018       27.570       16.921     2026.658      760.101      286.326        0.243        0.154       42.109       16.376        0.151      335.051        5.430      865.940
01/31/2015  21:03:00      -58.991      -49.131       -0.087       46.838       23.329       15.990     2193.816      544.231      255.666        0.444        0.150       76.771       17.956        0.055      335.011        5.362      865.944
01/31/2015  21:04:00      -50.292      -45.145        9.259       36.137       32.967       23.631     1305.884     1086.830      558.444        0.380        0.148       67.582       22.915        0.115      334.915        5.202      865.930
01/31/2015  21:05:00      -84.787      -64.624       -3.005       26.377       24.500       18.032      695.741      600.237      325.146        0.650        0.081      106.607       14.367        0.018      334.904        5.183      865.910
01/31/2015  21:06:00      -86.032      -37.344       -8.877       33.067       20.274       15.210     1093.458      411.048      231.346        0.531        0.087       93.787       17.181        0.034      334.930        5.227      865.896
01/31/2015  21:07:00      -58.857      -43.050        4.105       39.840       22.958       17.986     1587.246      527.047      323.507        0.389        0.122       72.921       22.240        0.093      334.838        5.075      865.883
01/31/2015  21:08:00      -52.933      -61.487        2.646       36.594       30.306       18.561     1339.122      918.451      344.500        0.460        0.130       81.133       18.592        0.053      334.784        4.985      865.878
01/31/2015  21:09:00      -50.237      -55.734        0.360       36.630       19.745       16.139     1341.751      389.871      260.462        0.381        0.100       75.033       16.525        0.049      334.787        4.989      865.873
01/31/2015  21:10:00      -55.022      -41.484        2.644       33.108       18.119       16.717     1096.130      328.291      279.447        0.323        0.085       68.908       10.443        0.023      334.816        5.038      865.874
01/31/2015  21:11:00      -92.126      -31.311       -2.332       25.369       20.040       14.007      643.593      401.592      196.201        0.536        0.062       97.302       12.836        0.017      334.704        4.851      865.873
01/31/2015  21:12:00     -120.241      -58.679       -6.306       28.537       15.616       13.638      814.385      243.858      185.988        0.959        0.062      133.795        6.033        0.002      334.603        4.683      865.879
01/31/2015  21:13:00      -84.841      -53.737       -4.292       43.264       26.109       16.366     1871.765      681.678      267.837        0.646        0.141      100.427       15.196        0.023      334.553        4.601      865.894
01/31/2015  21:14:00     -106.517      -37.579      -10.929       28.444       23.102       14.591      809.040      533.700      212.893        0.722        0.078      112.952       13.399        0.014      334.664        4.785      865.914
01/31/2015  21:15:00     -111.936      -18.770      -10.007       27.360       32.906       16.780      748.578     1082.813      281.560        0.755        0.106      113.499       12.997        0.013      334.575        4.638      865.917
01/31/2015  21:16:00     -120.207      -49.524       -1.947       29.333       23.319       18.168      860.421      543.754      330.088        0.932        0.087      130.009       18.318        0.020      334.629        4.729      865.919
01/31/2015  21:17:00     -126.602      -27.267       -8.673       17.290       25.427       15.684      298.948      646.557      245.991        0.902        0.060      129.505       11.545        0.008      334.579        4.644      865.924
01/31/2015  21:18:00     -108.844      -34.495        5.792       41.064       28.765       20.839     1686.221      827.449      434.255        0.801        0.147      114.180       20.273        0.032      334.450        4.431      865.924
01/31/2015  21:19:00     -151.155      -65.035      -12.480       26.542       20.583       14.217      704.495      423.663      202.129        1.428        0.067      164.552        8.818        0.003      334.414        4.372      865.934
01/31/2015  21:20:00     -138.831      -65.814      -11.939       42.254       22.187       22.062     1785.396      492.279      486.751        1.326        0.138      153.641       20.610        0.018      334.348        4.261      865.944
01/31/2015  21:21:00     -158.330      -47.110      -10.244       16.671       19.072       14.540      277.930      363.747      211.401        1.412        0.043      165.190        7.318        0.002      334.317        4.209      865.949
01/31/2015  21:22:00     -170.691      -52.161      -12.861       27.499       23.682       15.733      756.200      560.856      247.535        1.679        0.078      178.483       11.070        0.004      334.266        4.124      865.954
01/31/2015  21:23:00     -144.907      -50.595      -16.424       27.313       22.445       18.678      745.992      503.781      348.859        1.271        0.080      153.486       13.596        0.008      334.221        4.050      865.952
01/31/2015  21:24:00     -149.036      -47.446       -4.618       22.315       26.578       16.833      497.954      706.412      283.350        1.299        0.074      156.406       12.968        0.007      334.240        4.082      865.952
01/31/2015  21:25:00     -141.076      -24.875       -6.414       33.674       34.110       19.574     1133.925     1163.475      383.127        1.162        0.134      143.252       15.352        0.011      334.137        3.911      865.964
01/31/2015  21:26:00     -132.526       -8.026      -11.410       47.703       28.861       26.598     2275.571      832.955      707.470        1.079        0.191      132.769       25.479        0.037      334.180        3.982      865.974
01/31/2015  21:27:00     -189.084       -6.067      -27.302       22.568       29.840       19.571      509.296      890.447      383.025        1.916        0.089      189.182       11.156        0.003      334.115        3.874      865.979
01/31/2015  21:28:00     -187.992       -7.100      -23.519       49.713       24.829       23.480     2471.429      616.476      551.307        1.979        0.182      188.126       25.560        0.018      334.100        3.849      865.983
01/31/2015  21:29:00     -154.711        5.561      -14.470       44.216       32.634       19.136     1955.059     1064.986      366.202        1.378        0.169      154.811       23.414        0.023      334.144        3.923      866.000
01/31/2015  21:30:00     -167.289      -15.468      -20.604       30.906       33.283       19.673      955.188     1107.753      387.012        1.555        0.122      168.003       15.240        0.008      334.016        3.711      866.036
01/31/2015  21:31:00     -174.500      -14.460      -21.899       42.064       35.277       19.691     1769.368     1244.500      387.752        1.727        0.170      175.098       18.640        0.011      334.027        3.727      866.055
01/31/2015  21:32:00     -203.521       14.667      -24.318       41.253       41.270       24.921     1701.813     1703.237      621.048        2.313        0.201      204.048       26.490        0.017      334.123        3.885      866.055
01/31/2015  21:33:00     -186.534      -22.290      -22.598       40.295       35.066       28.451     1623.652     1229.597      809.481        1.973        0.183      187.861       27.144        0.021      333.994        3.673      866.058
01/31/2015  21:34:00     -165.422      -35.883       -7.099       49.299       44.382       28.329     2430.347     1969.740      802.536        1.695        0.260      169.269       25.793        0.023      333.994        3.672      866.062
01/31/2015  21:35:00     -184.374      -17.410      -16.713       57.316       36.546       29.110     3285.108     1335.600      847.384        2.002        0.273      185.195       29.861        0.026      333.976        3.643      866.061
01/31/2015  21:36:00     -164.327      -15.905      -16.842       58.686       34.796       29.095     3444.077     1210.762      846.532        1.652        0.275      165.095       29.597        0.032      333.989        3.665      866.063
01/31/2015  21:37:00     -116.472      -41.037       -9.617       40.227       31.345       28.300     1618.220      982.487      800.864        0.937        0.170      123.490       23.568        0.036      334.019        3.715      866.050
01/31/2015  21:38:00     -133.187      -48.278      -28.820       34.831       25.012       21.276     1213.186      625.621      452.685        1.160        0.115      141.667       10.680        0.006      334.023        3.721      866.036
01/31/2015  21:39:00     -119.433      -47.509       -6.976       34.002       33.222       23.789     1156.128     1103.731      565.926        0.970        0.141      128.535       16.487        0.016      334.008        3.697      866.027
01/31/2015  21:40:00     -102.526      -35.998      -10.610       25.889       30.168       19.511      670.252      910.130      380.696        0.694        0.098      108.663        5.894        0.003      334.022        3.721      866.011
01/31/2015  21:41:00      -85.907      -24.200       -1.800       37.277       22.299       21.116     1389.557      497.225      445.893        0.515        0.117       89.250       14.601        0.027      334.030        3.735      866.010
01/31/2015  21:42:00      -94.580      -39.162       -6.719       41.621       29.432       18.212     1732.342      866.254      331.688        0.673        0.147      102.367        7.368        0.005      334.076        3.809      866.006
01/31/2015  21:43:00     -141.359      -44.249       -3.535       32.402       28.195       21.959     1049.871      794.953      482.211        1.214        0.116      148.123       19.041        0.017      334.044        3.757      866.008
01/31/2015  21:44:00     -138.884      -48.637       -6.245       29.569       29.376       21.170      874.322      862.924      448.185        1.194        0.109      147.154       16.670        0.013      334.049        3.766      866.009
01/31/2015  21:45:00     -137.887      -56.694       -4.318       32.264       27.497       17.688     1040.984      756.065      312.879        1.218        0.105      149.087       13.234        0.008      334.045        3.759      866.008
01/31/2015  21:46:00      -92.621      -59.617       -5.816       54.430       40.615       18.927     2962.596     1649.600      358.245        0.857        0.249      110.149       16.274        0.022      334.080        3.818      866.028
01/31/2015  21:47:00     -163.844      -74.926       -8.456       26.456       32.956       18.024      699.929     1086.113      324.875        1.732        0.106      180.163        9.409        0.003      334.042        3.752      866.024
01/31/2015  21:48:00     -150.436      -64.493       -9.438       28.288       24.239       19.796      800.235      587.536      391.867        1.433        0.089      163.677       11.858        0.005      334.024        3.725      866.024
01/31/2015  21:49:00     -155.279      -44.429      -13.680       22.159       21.895       18.289      491.005      479.371      334.480        1.379        0.065      161.510       13.273        0.007      333.981        3.653      866.027
01/31/2015  21:50:00     -146.200      -72.771       -7.171       28.274       24.626       17.765      799.440      606.461      315.588        1.422        0.086      163.310       12.251        0.006      333.971        3.637      866.034
01/31/2015  21:51:00     -168.934      -78.571       -4.570       27.367       26.293       18.602      748.967      691.338      346.021        1.826        0.089      186.312       13.409        0.005      333.998        3.681      866.041
01/31/2015  21:52:00     -135.090      -50.551       -5.808       39.353       38.886       18.974     1548.641     1512.110      360.016        1.213        0.171      144.238       10.944        0.006      333.966        3.627      866.059
01/31/2015  21:53:00     -166.091      -57.234      -14.622       23.336       27.945       21.106      544.572      780.918      445.484        1.642        0.089      175.675       11.056        0.004      333.949        3.599      866.066
01/31/2015  21:54:00     -142.060      -53.348      -12.504       30.811       32.331       20.500      949.299     1045.307      420.235        1.280        0.121      151.746       17.967        0.014      333.895        3.510      866.080
01/31/2015  21:55:00     -142.657      -43.619       -9.966       23.457       26.410       18.311      550.250      697.496      335.305        1.197        0.079      149.176       12.505        0.007      333.922        3.554      866.099
01/31/2015  21:56:00     -128.418       -5.250       -7.408       43.267       32.792       21.024     1872.034     1075.309      442.003        0.998        0.169      128.525       21.838        0.029      334.009        3.700      866.114
01/31/2015  21:57:00     -174.649       14.524      -16.336       26.491       30.172       15.799      701.774      910.361      249.613        1.642        0.093      175.252       12.952        0.005      334.078        3.814      866.120
01/31/2015  21:58:00     -149.868      -12.728      -12.637       50.337       37.023       23.922     2533.785     1370.733      572.280        1.363        0.224      150.408       23.667        0.025      334.028        3.730      866.119
01/31/2015  21:59:00     -158.303      -11.216      -18.975       53.515       38.582       23.223     2863.823     1488.574      539.296        1.522        0.245      158.700       25.078        0.025      333.896        3.511      866.128
01/31/2015  22:00:00     -159.407      -22.970      -10.828       46.475       27.784       22.237     2159.918      771.934      494.488        1.474        0.171      161.054       22.158        0.019      333.858        3.448      866.138
01/31/2015  22:01:00     -129.997      -37.563       -6.134       46.216       33.976       25.114     2135.918     1154.343      630.738        1.113        0.196      135.316       25.679        0.036      333.915        3.544      866.144
01/31/2015  22:02:00     -149.873      -35.360       -8.347       45.474       29.472       18.041     2067.898      868.625      325.480        1.352        0.163      153.988       17.750        0.013      333.800        3.353      866.145
01/31/2015  22:03:00     -113.116      -42.743       -5.341       39.962       29.152       18.673     1596.923      849.816      348.682        0.872        0.140      120.922       16.514        0.019      333.905        3.527      866.148
01/31/2015  22:04:00     -123.584      -20.014      -11.538       38.401       35.087       21.580     1474.660     1231.111      465.707        0.949        0.159      125.194       21.761        0.030      333.943        3.590      866.166
01/31/2015  22:05:00     -133.518      -63.575        1.973       30.705       21.906       19.785      942.776      479.870      391.447        1.184        0.091      147.881       17.420        0.014      333.822        3.390      866.161
01/31/2015  22:06:00     -124.418      -35.733       -8.840       23.788       26.764       17.959      565.871      716.337      322.529        0.922        0.080      129.448       14.971        0.013      333.828        3.399      866.146
01/31/2015  22:07:00     -100.261      -35.565       -2.509       36.852       23.921       18.000     1358.058      572.207      324.017        0.679        0.113      106.382       18.087        0.029      333.869        3.468      866.135
01/31/2015  22:08:00     -121.357      -52.654       -3.476       23.051       24.582       15.576      531.340      604.270      242.601        0.944        0.069      132.287       12.049        0.008      333.873        3.474      866.132
01/31/2015  22:09:00     -131.592      -40.447      -11.621       18.964       16.875       14.666      359.632      284.778      215.085        0.997        0.043      137.668       10.000        0.005      333.910        3.536      866.124
01/31/2015  22:10:00     -126.927      -52.508       -1.955       20.739       22.841       12.799      430.096      521.712      163.823        0.999        0.056      137.359        9.699        0.005      333.899        3.515      866.126
01/31/2015  22:11:00     -121.718      -59.435       -1.593       33.531       29.750       18.063     1124.332      885.062      326.257        1.034        0.117      135.454       12.014        0.008      333.916        3.544      866.140
01/31/2015  22:12:00     -135.790      -50.122       -6.713       29.533       27.843       19.077      872.188      775.244      363.931        1.150        0.101      144.745       15.369        0.011      333.812        3.374      866.167
01/31/2015  22:13:00     -130.606      -33.058       -8.833       38.914       25.182       17.219     1514.311      634.156      296.498        1.034        0.122      134.725       18.735        0.019      333.776        3.311      866.192
01/31/2015  22:14:00     -119.924      -37.811       -5.708       26.645       22.927       18.326      709.970      525.660      335.849        0.871        0.079      125.744       13.141        0.011      333.765        3.293      866.207
01/31/2015  22:15:00     -135.557      -45.062       -9.156       19.550       20.068       13.916      382.196      402.709      193.657        1.073        0.049      142.850       10.351        0.005      333.699        3.185      866.224
01/31/2015  22:16:00     -118.901      -26.352       -8.909       29.393       25.380       18.137      863.971      644.160      328.959        0.837        0.092      121.786       17.339        0.020      333.644        3.093      866.252
01/31/2015  22:17:00      -93.685      -11.578       -4.003       32.714       27.681       20.107     1070.233      766.213      404.278        0.558        0.112       94.397       19.124        0.041      333.655        3.110      866.275
01/31/2015  22:18:00     -120.570        8.554       -4.573       52.427       33.863       29.141     2748.615     1146.707      849.176        0.969        0.237      120.873       30.002        0.062      333.797        3.348      866.296
01/31/2015  22:19:00     -130.668       29.608       -9.059       46.063       38.613       24.414     2121.841     1490.943      596.061        1.112        0.210      133.980       17.925        0.018      333.850        3.433      866.314
01/31/2015  22:20:00     -179.853       55.722      -12.415       44.534       32.921       24.454     1983.297     1083.796      598.014        1.964        0.183      188.288       17.536        0.009      333.870        3.468      866.333
01/31/2015  22:21:00     -176.663       52.982      -18.822       45.820       35.751       21.878     2099.439     1278.105      478.630        1.911        0.193      184.437       11.677        0.004      333.865        3.459      866.360
01/31/2015  22:22:00     -172.527       48.046       -6.635       47.623       37.976       28.197     2267.931     1442.169      795.048        1.831        0.225      179.092       25.057        0.020      333.865        3.459      866.365
01/31/2015  22:23:00     -167.039       41.193      -12.198       44.315       38.616       21.106     1963.857     1491.186      445.468        1.682        0.195      172.043       18.515        0.012      333.864        3.458      866.369
01/31/2015  22:24:00     -126.969       30.988       -8.551       43.442       28.327       22.518     1887.222      802.414      507.082        1.018        0.160      130.696       19.108        0.021      333.763        3.291      866.371
01/31/2015  22:25:00     -137.096       31.017      -13.092       53.166       38.997       21.693     2826.586     1520.796      470.570        1.237        0.241      140.560       13.962        0.010      333.804        3.358      866.382
01/31/2015  22:26:00     -151.706       26.775       -8.116       36.943       32.103       17.677     1364.762     1030.613      312.486        1.325        0.135      154.051       15.051        0.010      333.812        3.372      866.400
01/31/2015  22:27:00     -147.635       28.236       -8.002       35.760       29.733       15.868     1278.761      884.061      251.796        1.254        0.121      150.311       13.330        0.008      334.002        3.687      866.403
01/31/2015  22:28:00     -137.270       18.979      -10.952       47.448       37.719       21.030     2251.302     1422.686      442.268        1.172        0.206      138.576       21.852        0.025      334.131        3.902      866.416
01/31/2015  22:29:00     -139.058       40.891       -8.309       51.215       34.815       24.885     2622.946     1212.074      619.256        1.277        0.223      144.945       23.648        0.027      334.165        3.957      866.435
01/31/2015  22:30:00     -142.154       30.755       -7.560       49.979       30.552       27.583     2497.864      933.426      760.806        1.270        0.210      145.443       29.203        0.040      334.063        3.787      866.442
01/31/2015  22:31:00     -106.423       14.245       -4.885       48.627       36.210       25.130     2364.600     1311.136      631.526        0.793        0.215      107.372       25.538        0.057      334.038        3.746      866.434
01/31/2015  22:32:00      -74.358       -9.927        0.889       42.259       34.132       24.450     1785.841     1164.996      597.798        0.459        0.177       75.018       21.087        0.079      333.849        3.434      866.424
01/31/2015  22:33:00      -96.759        8.859       -3.441       41.263       30.560       26.803     1702.664      933.901      718.377        0.640        0.168       97.164       25.641        0.070      333.820        3.384      866.422
01/31/2015  22:34:00     -106.515       -0.088       -7.690       31.814       24.341       17.780     1012.158      592.461      316.132        0.666        0.096      106.515       16.872        0.025      333.759        3.285      866.399
01/31/2015  22:35:00     -127.339        2.514       -7.261       33.268       30.151       16.455     1106.735      909.057      270.764        0.928        0.114      127.364       14.942        0.014      333.839        3.418      866.383
01/31/2015  22:36:00      -89.643      -29.873       -8.136       20.420       19.278       14.886      416.978      371.643      221.592        0.500        0.051       94.489        9.120        0.009      333.736        3.247      866.370
01/31/2015  22:37:00      -83.406      -21.701      -20.681       26.642       20.001       16.871      709.779      400.023      284.623        0.462        0.070       86.183       15.182        0.031      333.804        3.359      866.365
01/31/2015  22:38:00      -64.352      -18.271       -7.371       22.625       24.178       16.633      511.903      584.560      276.667        0.295        0.069       66.896       12.042        0.032      333.872        3.472      866.374
01/31/2015  22:39:00      -97.958      -19.355      -19.161       19.459       12.689        9.075      378.658      161.013       82.360        0.548        0.031       99.852        5.707        0.003      333.745        3.260      866.369
01/31/2015  22:40:00     -118.833      -44.709      -16.283       19.674       18.915       17.548      387.077      357.761      307.925        0.872        0.053      126.966       12.884        0.010      333.654        3.111      866.372
01/31/2015  22:41:00     -116.873      -21.752      -12.906       29.426       24.466       19.938      865.881      598.602      397.531        0.808        0.093      118.880       15.589        0.017      333.614        3.043      866.378
01/31/2015  22:42:00     -108.048      -31.005      -13.293       19.727       21.144       15.281      389.150      447.088      233.518        0.694        0.053      112.409        8.226        0.005      333.547        2.932      866.380
01/31/2015  22:43:00      -99.417      -28.956      -13.055       21.022       18.950       11.552      441.918      359.096      133.450        0.591        0.047      103.548        9.578        0.009      333.586        2.997      866.377
01/31/2015  22:44:00     -111.955      -26.621      -17.447       21.746       23.368       16.190      472.891      546.072      262.101        0.741        0.064      115.077       14.479        0.016      333.591        3.005      866.373
01/31/2015  22:45:00      -90.223      -47.094      -19.339       24.376       18.248       17.129      594.166      332.993      293.395        0.598        0.061      101.774        5.644        0.003      333.606        3.030      866.372
01/31/2015  22:46:00      -99.286      -56.624       -9.404       20.689       14.347       12.858      428.035      205.835      165.340        0.698        0.040      114.298        8.957        0.006      333.499        2.854      866.389
01/31/2015  22:47:00      -96.328      -47.993      -16.843       13.409       13.121       11.943      179.790      172.155      142.637        0.618        0.025      107.622        9.474        0.008      333.496        2.849      866.388
01/31/2015  22:48:00     -104.000      -52.348       -9.101       20.369       21.287       12.025      414.880      453.149      144.604        0.733        0.051      116.431        4.739        0.002      333.527        2.900      866.373
01/31/2015  22:49:00      -64.405      -46.171       -5.260       34.904       23.211       19.782     1218.313      538.754      391.334        0.423        0.107       79.245       21.462        0.073      333.500        2.855      866.367
01/31/2015  22:50:00      -95.243      -48.767      -16.722       23.480       17.711       10.550      551.291      313.668      111.298        0.635        0.049      107.002        6.962        0.004      333.499        2.854      866.376
01/31/2015  22:51:00     -103.888      -32.775      -16.421       14.343       16.619       11.021      205.735      276.180      121.465        0.637        0.030      108.935        7.032        0.004      333.512        2.874      866.383
01/31/2015  22:52:00      -44.185      -45.365       -4.336       37.666       15.997       17.505     1418.758      255.890      306.434        0.300        0.099       63.327       12.031        0.036      333.570        2.971      866.392
01/31/2015  22:53:00      -32.029      -50.791       -1.281       31.357       22.661       17.201      983.281      513.512      295.879        0.270        0.090       60.047       17.901        0.089      333.668        3.135      866.409
01/31/2015  22:54:00      -44.253      -26.964        8.712       46.822       23.573       19.652     2192.315      555.689      386.197        0.295        0.157       51.821       24.855        0.230      333.545        2.929      866.416
01/31/2015  22:55:00      -67.099      -43.080       -2.599       23.021       21.005       14.954      529.974      441.206      223.636        0.378        0.060       79.738       10.000        0.016      333.512        2.873      866.430
01/31/2015  22:56:00      -51.076      -41.249        7.938       32.272       24.307       18.724     1041.478      590.839      350.579        0.318        0.099       65.653       16.899        0.066      333.442        2.759      866.436
01/31/2015  22:57:00      -64.108      -37.814        5.621       32.684       20.490       19.859     1068.234      419.822      394.389        0.373        0.094       74.429       13.045        0.031      333.385        2.665      866.441
01/31/2015  22:58:00      -65.771      -32.961        2.326       47.250       24.119       16.128     2232.517      581.725      260.122        0.425        0.154       73.568       18.289        0.062      333.356        2.617      866.454
01/31/2015  22:59:00      -87.190      -46.547        1.010       34.820       22.392       22.783     1212.438      501.382      519.071        0.600        0.112       98.837       20.304        0.042      333.316        2.550      866.478
01/31/2015  23:00:00      -82.099      -48.554       -0.053       40.449       23.757       22.482     1636.160      564.397      505.421        0.590        0.135       95.382       23.463        0.061      333.273        2.478      866.501
01/31/2015  23:01:00      -73.746      -51.373       -3.488       40.000       33.157       15.327     1600.036     1099.368      234.930        0.551        0.147       89.876       15.563        0.030      333.235        2.417      866.528
01/31/2015  23:02:00     -100.381      -49.483       -0.419       44.143       24.943       16.715     1948.605      622.129      279.388        0.769        0.143      111.914       17.663        0.025      333.204        2.365      866.543
01/31/2015  23:03:00      -90.253      -41.613        2.744       34.620       23.574       21.629     1198.562      555.733      467.804        0.605        0.111       99.385       15.488        0.024      333.257        2.453      866.559
01/31/2015  23:04:00     -100.838      -44.620       -1.693       35.715       20.972       16.385     1275.549      439.843      268.454        0.707        0.099      110.269       16.716        0.023      333.235        2.417      866.575
01/31/2015  23:05:00      -75.878      -42.422       -4.705       36.373       20.633       13.182     1323.006      425.716      173.773        0.475        0.096       86.932        9.523        0.012      333.274        2.482      866.576
01/31/2015  23:06:00      -86.148      -42.323        1.207       28.823       17.319       13.892      830.777      299.963      192.976        0.527        0.066       95.982       14.677        0.023      333.253        2.447      866.576
01/31/2015  23:07:00      -88.494      -41.572       -0.434       26.710       17.880       17.931      713.425      319.685      321.511        0.546        0.068       97.772       17.467        0.032      333.244        2.433      866.600
01/31/2015  23:08:00      -64.365      -41.335       -1.880       27.309       19.192       16.631      745.807      368.349      276.589        0.362        0.070       76.495       10.639        0.019      333.271        2.475      866.607
01/31/2015  23:09:00      -60.380      -38.337        2.920       36.356       19.920       15.160     1321.768      396.793      229.821        0.354        0.097       71.522       15.618        0.048      333.252        2.445      866.612
01/31/2015  23:10:00      -66.741      -30.999       -0.055       22.505       15.670       13.652      506.474      245.539      186.367        0.318        0.047       73.589       12.023        0.027      333.247        2.434      866.617
01/31/2015  23:11:00      -91.084      -35.616       -5.181       12.475       15.587        8.969      155.617      242.941       80.434        0.504        0.024       97.800        6.233        0.004      333.273        2.480      866.640
01/31/2015  23:12:00      -67.144      -23.213       -0.883       14.183       10.940       11.832      201.149      119.688      139.991        0.275        0.023       71.044        6.492        0.008      333.214        2.380      866.653
01/31/2015  23:13:00      -62.547      -27.125       -7.713        8.828       10.856        7.059       77.940      117.856       49.835        0.248        0.012       68.175        5.066        0.006      333.284        2.497      866.662
01/31/2015  23:14:00      -49.780      -26.728        0.321       30.353       13.999       15.410      921.318      195.965      237.478        0.227        0.068       56.502       17.835        0.100      333.291        2.509      866.671
01/31/2015  23:15:00      -17.677      -21.770        3.868       27.865       14.788       13.049      776.479      218.697      170.284        0.098        0.058       28.043       12.904        0.212      333.312        2.543      866.684
01/31/2015  23:16:00      -38.786      -24.692        0.774       24.431       14.253       15.072      596.860      203.152      227.168        0.157        0.051       45.978       16.884        0.135      333.211        2.377      866.690
01/31/2015  23:17:00      -58.714      -38.503        0.709       18.559       15.918       14.240      344.431      253.397      202.786        0.287        0.040       70.212       12.500        0.032      333.217        2.387      866.691
01/31/2015  23:18:00      -42.924      -24.729        2.818       18.797       16.560       12.224      353.322      274.218      149.429        0.162        0.039       49.538       11.482        0.054      333.188        2.339      866.683
01/31/2015  23:19:00      -30.400      -15.561       -5.659       17.422       10.162       10.479      303.512      103.273      109.804        0.086        0.026       34.151        3.171        0.009      333.255        2.449      866.678
01/31/2015  23:20:00      -45.772      -17.899       -5.430       16.712       11.476        8.795      279.286      131.699       77.358        0.147        0.024       49.147        6.765        0.019      333.260        2.458      866.679
01/31/2015  23:21:00      -60.081      -21.195       -8.307       11.175       10.902        8.907      124.876      118.861       79.342        0.223        0.016       63.710        5.612        0.008      333.235        2.414      866.688
01/31/2015  23:22:00      -77.206      -24.810       -9.448        8.070       10.850        6.611       65.130      117.722       43.701        0.345        0.011       81.094        3.502        0.002      333.220        2.390      866.705
01/31/2015  23:23:00      -94.481      -17.227      -12.734       17.320       13.849       13.502      299.984      191.795      182.305        0.503        0.034       96.039       10.237        0.011      333.230        2.406      866.713
01/31/2015  23:24:00      -94.797      -22.369       -8.016       20.851       10.574       12.965      434.777      111.810      168.083        0.513        0.036       97.400       12.700        0.017      333.138        2.255      866.730
01/31/2015  23:25:00      -96.619      -23.315       -7.487       14.979       13.954       11.528      224.376      194.721      132.888        0.524        0.028       99.392        8.518        0.007      333.098        2.189      866.751
01/31/2015  23:26:00      -77.984      -25.380       -9.299        9.595        9.775        8.474       92.069       95.543       71.813        0.354        0.013       82.010        4.542        0.003      333.115        2.220      866.764
01/31/2015  23:27:00      -56.302      -21.780       -4.666       15.612       14.172       10.260      243.726      200.849      105.271        0.211        0.027       60.368        6.054        0.010      333.089        2.175      866.777
01/31/2015  23:28:00      -62.782      -22.965       -9.506       15.226       10.147        8.160      231.840      102.958       66.582        0.248        0.020       66.850        5.141        0.006      333.006        2.038      866.778
01/31/2015  23:29:00      -85.600      -23.635       -5.973       10.501       11.545        9.595      110.275      133.290       92.065        0.413        0.017       88.803        4.991        0.003      332.915        1.889      866.776
01/31/2015  23:30:00      -90.783      -40.649       -9.222       18.076       24.333       10.921      326.751      592.110      119.270        0.551        0.052       99.468        7.427        0.006      332.829        1.748      866.777
01/31/2015  23:31:00      -90.875      -39.314       -7.624       15.127       16.437        9.548      228.835      270.168       91.164        0.523        0.030       99.014        9.255        0.009      332.868        1.811      866.774
01/31/2015  23:32:00      -86.439      -44.945      -21.769       18.427       18.053       13.573      339.543      325.896      184.237        0.541        0.042       97.426        7.576        0.006      332.823        1.736      866.765
01/31/2015  23:33:00      -78.360      -25.969      -16.746       19.622       17.622       13.124      385.012      310.551      172.246        0.398        0.043       82.551        9.189        0.012      332.843        1.770      866.775
01/31/2015  23:34:00      -70.207      -12.003      -13.470       23.556       17.269       10.827      554.873      298.218      117.216        0.311        0.049       71.226        8.756        0.015      332.863        1.804      866.781
01/31/2015  23:35:00      -35.505      -17.392       -3.615       19.380       20.927        9.908      375.598      437.941       98.170        0.124        0.046       39.536        7.574        0.037      332.850        1.783      866.771
01/31/2015  23:36:00      -30.275       -5.437      -11.906        9.580        8.836        7.026       91.785       78.083       49.358        0.065        0.011       30.760        5.059        0.027      332.933        1.917      866.763
01/31/2015  23:37:00       -8.490       -4.935       -0.653       16.186        8.106       15.406      262.003       65.710      237.354        0.033        0.028        9.820       12.392        1.592      333.037        2.091      866.757
01/31/2015  23:38:00      -17.510      -12.316       -0.083       10.578       12.918        6.045      111.890      166.877       36.538        0.039        0.016       21.408        6.561        0.094      332.958        1.958      866.750
01/31/2015  23:39:00      -10.495      -16.786        2.879       10.239       18.724        7.811      104.830      350.590       61.012        0.046        0.026       19.797        9.488        0.230      332.967        1.974      866.745
01/31/2015  23:40:00      -23.720      -16.852       -4.767       14.575       10.480        8.484      212.440      109.839       71.980        0.063        0.020       29.097        5.067        0.030      332.890        1.848      866.743
01/31/2015  23:41:00      -41.057      -30.544       -5.283       12.180       11.846        9.605      148.343      140.339       92.248        0.151        0.019       51.173        4.844        0.009      332.933        1.920      866.750
01/31/2015  23:42:00      -43.236      -21.600      -13.724        6.739        6.532        4.493       45.413       42.670       20.185        0.132        0.005       48.331        2.784        0.003      332.841        1.768      866.756
01/31/2015  23:43:00      -45.147      -18.763      -16.223        4.884        5.138        3.316       23.851       26.399       10.994        0.136        0.003       48.891        1.121        0.001      332.791        1.685      866.761
01/31/2015  23:44:00      -58.247      -24.439      -14.282        8.218        7.746        6.176       67.535       59.994       38.141        0.218        0.008       63.166        2.604        0.002      332.850        1.784      866.763
01/31/2015  23:45:00      -64.249      -26.886       -7.610       10.060        8.391        5.469      101.201       70.413       29.913        0.256        0.010       69.648        2.847        0.002      332.876        1.826      866.765
01/31/2015  23:46:00      -46.933      -30.867       -3.162       23.082       13.618       11.474      532.766      185.462      131.654        0.201        0.042       56.173        8.767        0.024      332.869        1.813      866.764
01/31/2015  23:47:00      -91.476      -34.814       -5.266       20.876       12.189       10.472      435.826      148.575      109.665        0.515        0.035       97.877        9.951        0.010      332.878        1.829      866.755
01/31/2015  23:48:00      -92.660      -10.775       -8.211       17.180       15.782       12.874      295.154      249.059      165.750        0.474        0.035       93.284        9.967        0.011      332.757        1.628      866.752
01/31/2015  23:49:00      -97.233      -23.395       -7.167       23.121       14.865       10.831      534.602      220.983      117.307        0.546        0.044      100.008       11.262        0.013      332.751        1.618      866.751
01/31/2015  23:50:00      -91.075      -54.874       -2.213       22.659       20.025       14.750      513.411      401.002      217.574        0.622        0.057      106.328       11.516        0.012      332.738        1.596      866.754
01/31/2015  23:51:00      -86.281      -44.676       -4.627       23.233       18.220       18.213      539.753      331.979      331.711        0.533        0.060       97.162       15.827        0.027      332.687        1.513      866.756
01/31/2015  23:52:00     -105.258      -49.215       -0.485       19.724       18.653       15.475      389.021      347.929      239.460        0.724        0.049      116.195       12.239        0.011      332.687        1.512      866.752
01/31/2015  23:53:00     -111.105      -57.943       -7.446       20.908       23.722       15.148      437.132      562.717      229.454        0.849        0.061      125.307       11.007        0.008      332.692        1.519      866.743
01/31/2015  23:54:00     -114.214      -60.327        0.811       28.422       25.866       18.371      807.831      669.035      337.493        0.925        0.091      129.167       12.401        0.009      332.628        1.414      866.737
01/31/2015  23:55:00     -101.270      -47.596        6.872       32.857       23.452       18.720     1079.608      549.974      350.449        0.727        0.099      111.897       18.125        0.026      332.585        1.343      866.725
01/31/2015  23:56:00      -94.155      -51.669       -1.252       26.201       19.977       13.077      686.494      399.062      171.008        0.640        0.063      107.401       15.142        0.020      332.590        1.354      866.713
01/31/2015  23:57:00      -92.510      -46.549       -8.267       18.596       20.428       10.332      345.805      417.306      106.750        0.583        0.043      103.561        8.477        0.007      332.728        1.581      866.711
01/31/2015  23:58:00      -95.708      -42.836       -0.996       32.772       19.208       13.826     1074.020      368.955      191.153        0.631        0.082      104.857       12.872        0.015      332.702        1.537      866.699
01/31/2015  23:59:00     -106.333      -37.588       -7.211       19.004       17.637       13.791      361.165      311.077      190.187        0.682        0.043      112.781       11.783        0.011      332.647        1.445      866.691
